<?xml version='1.0' encoding='UTF-8'?><gpx version="1.1" creator="JPX - https://github.com/jenetics/jpx" xmlns="http://www.topografix.com/GPX/1/1"><trk><trkseg><trkpt lat="44.1507908" lon="10.4124536"><ele>546.0</ele><time>2026-04-09T06:59:22.967Z</time></trkpt><trkpt lat="44.1508163" lon="10.4123469"><ele>546.0</ele><time>2026-04-09T06:59:24.967Z</time></trkpt><trkpt lat="44.150835" lon="10.4122181"><ele>546.0</ele><time>2026-04-09T06:59:26.967Z</time></trkpt><trkpt lat="44.1508693" lon="10.4121142"><ele>546.0</ele><time>2026-04-09T06:59:28.975Z</time></trkpt><trkpt lat="44.1509362" lon="10.412091"><ele>546.0</ele><time>2026-04-09T06:59:30.969Z</time></trkpt><trkpt lat="44.1510142" lon="10.412076"><ele>546.0</ele><time>2026-04-09T06:59:33.964Z</time></trkpt><trkpt lat="44.1510958" lon="10.4120699"><ele>543.5</ele><time>2026-04-09T06:59:36.963Z</time></trkpt><trkpt lat="44.1511059" lon="10.4119569"><ele>541.0</ele><time>2026-04-09T06:59:39.983Z</time></trkpt><trkpt lat="44.1510427" lon="10.4119068"><ele>538.5</ele><time>2026-04-09T06:59:41.969Z</time></trkpt><trkpt lat="44.1509826" lon="10.4118511"><ele>536.0</ele><time>2026-04-09T06:59:43.963Z</time></trkpt><trkpt lat="44.1509269" lon="10.4117866"><ele>533.5</ele><time>2026-04-09T06:59:47.976Z</time></trkpt><trkpt lat="44.1508608" lon="10.4117449"><ele>531.0</ele><time>2026-04-09T06:59:50.961Z</time></trkpt><trkpt lat="44.1507615" lon="10.4117506"><ele>530.8</ele><time>2026-04-09T06:59:53.969Z</time></trkpt><trkpt lat="44.1506739" lon="10.4117634"><ele>530.6</ele><time>2026-04-09T06:59:55.965Z</time></trkpt><trkpt lat="44.1505609" lon="10.4117538"><ele>530.4</ele><time>2026-04-09T06:59:57.975Z</time></trkpt><trkpt lat="44.1504441" lon="10.4117039"><ele>530.2</ele><time>2026-04-09T06:59:59.966Z</time></trkpt><trkpt lat="44.1503836" lon="10.411675"><ele>530.0</ele><time>2026-04-09T07:00:00.968Z</time></trkpt><trkpt lat="44.1503203" lon="10.4116429"><ele>529.9999999999999</ele><time>2026-04-09T07:00:01.965Z</time></trkpt><trkpt lat="44.1502547" lon="10.4116066"><ele>530.0</ele><time>2026-04-09T07:00:02.967Z</time></trkpt><trkpt lat="44.1501855" lon="10.4115756"><ele>530.0</ele><time>2026-04-09T07:00:03.967Z</time></trkpt><trkpt lat="44.1501161" lon="10.4115411"><ele>530.0</ele><time>2026-04-09T07:00:04.966Z</time></trkpt><trkpt lat="44.1500481" lon="10.4115018"><ele>530.0</ele><time>2026-04-09T07:00:05.966Z</time></trkpt><trkpt lat="44.1499771" lon="10.4114681"><ele>529.9999999999999</ele><time>2026-04-09T07:00:06.969Z</time></trkpt><trkpt lat="44.1499044" lon="10.4114345"><ele>530.0</ele><time>2026-04-09T07:00:07.97Z</time></trkpt><trkpt lat="44.1498343" lon="10.411393"><ele>529.0</ele><time>2026-04-09T07:00:08.966Z</time></trkpt><trkpt lat="44.1497632" lon="10.411346"><ele>528.0</ele><time>2026-04-09T07:00:09.969Z</time></trkpt><trkpt lat="44.1496817" lon="10.4113075"><ele>527.0</ele><time>2026-04-09T07:00:10.967Z</time></trkpt><trkpt lat="44.1496088" lon="10.411274"><ele>526.0</ele><time>2026-04-09T07:00:11.967Z</time></trkpt><trkpt lat="44.149538" lon="10.4112372"><ele>525.0</ele><time>2026-04-09T07:00:12.979Z</time></trkpt><trkpt lat="44.1494682" lon="10.4112009"><ele>524.0</ele><time>2026-04-09T07:00:13.97Z</time></trkpt><trkpt lat="44.1494003" lon="10.4111641"><ele>524.1666666666666</ele><time>2026-04-09T07:00:14.972Z</time></trkpt><trkpt lat="44.1493353" lon="10.4111263"><ele>524.3333333333333</ele><time>2026-04-09T07:00:15.969Z</time></trkpt><trkpt lat="44.1492599" lon="10.4111018"><ele>524.5</ele><time>2026-04-09T07:00:16.971Z</time></trkpt><trkpt lat="44.1491943" lon="10.411105"><ele>524.6666666666666</ele><time>2026-04-09T07:00:17.963Z</time></trkpt><trkpt lat="44.1491296" lon="10.4111378"><ele>524.8333333333334</ele><time>2026-04-09T07:00:18.963Z</time></trkpt><trkpt lat="44.1490159" lon="10.4112063"><ele>525.0</ele><time>2026-04-09T07:00:20.973Z</time></trkpt><trkpt lat="44.1489181" lon="10.4112831"><ele>525.0</ele><time>2026-04-09T07:00:22.988Z</time></trkpt><trkpt lat="44.1488294" lon="10.411349"><ele>525.0</ele><time>2026-04-09T07:00:24.988Z</time></trkpt><trkpt lat="44.148742" lon="10.4113733"><ele>525.0</ele><time>2026-04-09T07:00:26.979Z</time></trkpt><trkpt lat="44.1486712" lon="10.4113274"><ele>525.0</ele><time>2026-04-09T07:00:28.972Z</time></trkpt><trkpt lat="44.148614" lon="10.4112567"><ele>525.0</ele><time>2026-04-09T07:00:30.991Z</time></trkpt><trkpt lat="44.1485633" lon="10.4111714"><ele>525.0</ele><time>2026-04-09T07:00:32.966Z</time></trkpt><trkpt lat="44.1485172" lon="10.4110769"><ele>525.0</ele><time>2026-04-09T07:00:34.968Z</time></trkpt><trkpt lat="44.1484838" lon="10.4109748"><ele>525.0</ele><time>2026-04-09T07:00:36.978Z</time></trkpt><trkpt lat="44.1484615" lon="10.4108679"><ele>525.0</ele><time>2026-04-09T07:00:38.98Z</time></trkpt><trkpt lat="44.1484274" lon="10.4107566"><ele>525.0</ele><time>2026-04-09T07:00:40.973Z</time></trkpt><trkpt lat="44.1483887" lon="10.4106432"><ele>525.0</ele><time>2026-04-09T07:00:42.986Z</time></trkpt><trkpt lat="44.1483483" lon="10.410525"><ele>525.0</ele><time>2026-04-09T07:00:44.98Z</time></trkpt><trkpt lat="44.1483146" lon="10.4104004"><ele>525.8</ele><time>2026-04-09T07:00:46.992Z</time></trkpt><trkpt lat="44.1482887" lon="10.4102722"><ele>526.6</ele><time>2026-04-09T07:00:48.969Z</time></trkpt><trkpt lat="44.1482558" lon="10.4101457"><ele>527.4</ele><time>2026-04-09T07:00:50.962Z</time></trkpt><trkpt lat="44.1482271" lon="10.4100249"><ele>528.2</ele><time>2026-04-09T07:00:52.977Z</time></trkpt><trkpt lat="44.1482055" lon="10.409897"><ele>529.0</ele><time>2026-04-09T07:00:54.978Z</time></trkpt><trkpt lat="44.1481918" lon="10.4097602"><ele>525.0</ele><time>2026-04-09T07:00:56.976Z</time></trkpt><trkpt lat="44.1481829" lon="10.4096123"><ele>521.0</ele><time>2026-04-09T07:00:58.98Z</time></trkpt><trkpt lat="44.1481656" lon="10.4094568"><ele>517.0</ele><time>2026-04-09T07:01:00.983Z</time></trkpt><trkpt lat="44.1481574" lon="10.4092996"><ele>513.0</ele><time>2026-04-09T07:01:02.988Z</time></trkpt><trkpt lat="44.1481415" lon="10.4091443"><ele>509.0</ele><time>2026-04-09T07:01:04.988Z</time></trkpt><trkpt lat="44.1481225" lon="10.4089874"><ele>509.0</ele><time>2026-04-09T07:01:06.984Z</time></trkpt><trkpt lat="44.1481059" lon="10.4088311"><ele>509.0</ele><time>2026-04-09T07:01:08.976Z</time></trkpt><trkpt lat="44.1480894" lon="10.4086736"><ele>509.0</ele><time>2026-04-09T07:01:10.982Z</time></trkpt><trkpt lat="44.1480782" lon="10.4085131"><ele>509.0</ele><time>2026-04-09T07:01:12.977Z</time></trkpt><trkpt lat="44.1480655" lon="10.4083436"><ele>508.8571428571428</ele><time>2026-04-09T07:01:14.973Z</time></trkpt><trkpt lat="44.148056" lon="10.4082565"><ele>508.71428571428567</ele><time>2026-04-09T07:01:15.982Z</time></trkpt><trkpt lat="44.1480468" lon="10.4081655"><ele>508.57142857142856</ele><time>2026-04-09T07:01:16.984Z</time></trkpt><trkpt lat="44.1480366" lon="10.4080713"><ele>508.4285714285714</ele><time>2026-04-09T07:01:17.97Z</time></trkpt><trkpt lat="44.1480215" lon="10.4079735"><ele>508.2857142857142</ele><time>2026-04-09T07:01:18.975Z</time></trkpt><trkpt lat="44.1480009" lon="10.4078797"><ele>508.14285714285717</ele><time>2026-04-09T07:01:19.984Z</time></trkpt><trkpt lat="44.147943" lon="10.4078114"><ele>508.0</ele><time>2026-04-09T07:01:20.996Z</time></trkpt><trkpt lat="44.1478739" lon="10.4077681"><ele>508.00000000000006</ele><time>2026-04-09T07:01:21.987Z</time></trkpt><trkpt lat="44.1477932" lon="10.4077517"><ele>508.0</ele><time>2026-04-09T07:01:22.993Z</time></trkpt><trkpt lat="44.1477133" lon="10.4077317"><ele>508.0</ele><time>2026-04-09T07:01:23.979Z</time></trkpt><trkpt lat="44.147631" lon="10.4077081"><ele>508.0</ele><time>2026-04-09T07:01:24.984Z</time></trkpt><trkpt lat="44.1475452" lon="10.4076932"><ele>508.00000000000006</ele><time>2026-04-09T07:01:26Z</time></trkpt><trkpt lat="44.1474727" lon="10.4076961"><ele>508.0</ele><time>2026-04-09T07:01:26.979Z</time></trkpt><trkpt lat="44.1473667" lon="10.4077208"><ele>506.6666666666667</ele><time>2026-04-09T07:01:28.979Z</time></trkpt><trkpt lat="44.147292" lon="10.407771"><ele>505.33333333333337</ele><time>2026-04-09T07:01:30.975Z</time></trkpt><trkpt lat="44.1472288" lon="10.4078392"><ele>504.0</ele><time>2026-04-09T07:01:32.974Z</time></trkpt><trkpt lat="44.1471817" lon="10.4079582"><ele>502.66666666666663</ele><time>2026-04-09T07:01:34.99Z</time></trkpt><trkpt lat="44.147238" lon="10.4080999"><ele>501.3333333333333</ele><time>2026-04-09T07:01:36.986Z</time></trkpt><trkpt lat="44.1472858" lon="10.4081595"><ele>500.0</ele><time>2026-04-09T07:01:37.98Z</time></trkpt><trkpt lat="44.1473358" lon="10.4082298"><ele>501.49999999999994</ele><time>2026-04-09T07:01:38.974Z</time></trkpt><trkpt lat="44.147379" lon="10.4083173"><ele>503.0</ele><time>2026-04-09T07:01:39.971Z</time></trkpt><trkpt lat="44.1474185" lon="10.4084101"><ele>504.5</ele><time>2026-04-09T07:01:40.977Z</time></trkpt><trkpt lat="44.1474473" lon="10.4085171"><ele>506.0</ele><time>2026-04-09T07:01:41.988Z</time></trkpt><trkpt lat="44.1474753" lon="10.4086327"><ele>507.49999999999994</ele><time>2026-04-09T07:01:42.974Z</time></trkpt><trkpt lat="44.1474976" lon="10.4087459"><ele>509.0</ele><time>2026-04-09T07:01:43.971Z</time></trkpt><trkpt lat="44.1475167" lon="10.4088667"><ele>509.0</ele><time>2026-04-09T07:01:44.98Z</time></trkpt><trkpt lat="44.1475353" lon="10.4089851"><ele>509.0</ele><time>2026-04-09T07:01:45.975Z</time></trkpt><trkpt lat="44.1475546" lon="10.4091103"><ele>509.0</ele><time>2026-04-09T07:01:46.979Z</time></trkpt><trkpt lat="44.1475749" lon="10.4092363"><ele>509.0</ele><time>2026-04-09T07:01:47.974Z</time></trkpt><trkpt lat="44.1475931" lon="10.4093618"><ele>509.0</ele><time>2026-04-09T07:01:48.977Z</time></trkpt><trkpt lat="44.1476092" lon="10.4094969"><ele>509.0</ele><time>2026-04-09T07:01:49.975Z</time></trkpt><trkpt lat="44.1476281" lon="10.4096318"><ele>509.0</ele><time>2026-04-09T07:01:50.976Z</time></trkpt><trkpt lat="44.1476466" lon="10.4097681"><ele>509.0</ele><time>2026-04-09T07:01:51.968Z</time></trkpt><trkpt lat="44.1476679" lon="10.4099017"><ele>509.0</ele><time>2026-04-09T07:01:52.984Z</time></trkpt><trkpt lat="44.1476842" lon="10.4100391"><ele>509.0</ele><time>2026-04-09T07:01:53.98Z</time></trkpt><trkpt lat="44.1477038" lon="10.4101736"><ele>507.0</ele><time>2026-04-09T07:01:54.969Z</time></trkpt><trkpt lat="44.1477226" lon="10.4103122"><ele>505.0</ele><time>2026-04-09T07:01:55.977Z</time></trkpt><trkpt lat="44.1477447" lon="10.4104496"><ele>503.0</ele><time>2026-04-09T07:01:56.975Z</time></trkpt><trkpt lat="44.1477697" lon="10.4105861"><ele>501.0</ele><time>2026-04-09T07:01:57.977Z</time></trkpt><trkpt lat="44.1477957" lon="10.4107275"><ele>499.0</ele><time>2026-04-09T07:01:58.977Z</time></trkpt><trkpt lat="44.1478194" lon="10.4108673"><ele>498.0</ele><time>2026-04-09T07:01:59.974Z</time></trkpt><trkpt lat="44.147846" lon="10.4110087"><ele>497.0</ele><time>2026-04-09T07:02:00.973Z</time></trkpt><trkpt lat="44.1478709" lon="10.411153"><ele>496.0</ele><time>2026-04-09T07:02:01.978Z</time></trkpt><trkpt lat="44.147902" lon="10.4112958"><ele>495.0</ele><time>2026-04-09T07:02:02.986Z</time></trkpt><trkpt lat="44.1479249" lon="10.4114375"><ele>494.0</ele><time>2026-04-09T07:02:03.976Z</time></trkpt><trkpt lat="44.1479477" lon="10.4115791"><ele>493.4</ele><time>2026-04-09T07:02:04.969Z</time></trkpt><trkpt lat="44.1479749" lon="10.4117226"><ele>492.79999999999995</ele><time>2026-04-09T07:02:05.975Z</time></trkpt><trkpt lat="44.1480006" lon="10.4118631"><ele>492.20000000000005</ele><time>2026-04-09T07:02:06.976Z</time></trkpt><trkpt lat="44.148025" lon="10.4120028"><ele>491.6</ele><time>2026-04-09T07:02:07.975Z</time></trkpt><trkpt lat="44.1480502" lon="10.4121444"><ele>491.0</ele><time>2026-04-09T07:02:08.971Z</time></trkpt><trkpt lat="44.1480796" lon="10.4122842"><ele>491.0</ele><time>2026-04-09T07:02:09.973Z</time></trkpt><trkpt lat="44.1481048" lon="10.4124238"><ele>491.0</ele><time>2026-04-09T07:02:10.992Z</time></trkpt><trkpt lat="44.1481279" lon="10.4125618"><ele>491.0</ele><time>2026-04-09T07:02:11.972Z</time></trkpt><trkpt lat="44.1481515" lon="10.4126817"><ele>491.0</ele><time>2026-04-09T07:02:12.983Z</time></trkpt><trkpt lat="44.148174" lon="10.4127934"><ele>491.0</ele><time>2026-04-09T07:02:13.98Z</time></trkpt><trkpt lat="44.1481917" lon="10.4128925"><ele>491.0</ele><time>2026-04-09T07:02:14.975Z</time></trkpt><trkpt lat="44.1482055" lon="10.413052"><ele>491.0</ele><time>2026-04-09T07:02:16.975Z</time></trkpt><trkpt lat="44.1481886" lon="10.4131935"><ele>491.0</ele><time>2026-04-09T07:02:18.982Z</time></trkpt><trkpt lat="44.1482152" lon="10.4133145"><ele>491.0</ele><time>2026-04-09T07:02:20.978Z</time></trkpt><trkpt lat="44.1482505" lon="10.4134456"><ele>491.0</ele><time>2026-04-09T07:02:22.977Z</time></trkpt><trkpt lat="44.1482957" lon="10.4135779"><ele>491.66666666666663</ele><time>2026-04-09T07:02:24.991Z</time></trkpt><trkpt lat="44.1483613" lon="10.4137257"><ele>492.3333333333333</ele><time>2026-04-09T07:02:26.971Z</time></trkpt><trkpt lat="44.1483997" lon="10.4138031"><ele>493.0</ele><time>2026-04-09T07:02:27.975Z</time></trkpt><trkpt lat="44.1484395" lon="10.4138781"><ele>493.66666666666663</ele><time>2026-04-09T07:02:28.98Z</time></trkpt><trkpt lat="44.1484784" lon="10.4139551"><ele>494.3333333333333</ele><time>2026-04-09T07:02:29.975Z</time></trkpt><trkpt lat="44.1485168" lon="10.4140392"><ele>495.0</ele><time>2026-04-09T07:02:30.976Z</time></trkpt><trkpt lat="44.1485603" lon="10.4141271"><ele>493.1666666666667</ele><time>2026-04-09T07:02:31.98Z</time></trkpt><trkpt lat="44.1486041" lon="10.4142202"><ele>491.33333333333337</ele><time>2026-04-09T07:02:32.981Z</time></trkpt><trkpt lat="44.1486456" lon="10.4143185"><ele>489.5</ele><time>2026-04-09T07:02:33.978Z</time></trkpt><trkpt lat="44.1486735" lon="10.4144202"><ele>487.6666666666667</ele><time>2026-04-09T07:02:35.012Z</time></trkpt><trkpt lat="44.1486818" lon="10.4145145"><ele>485.83333333333337</ele><time>2026-04-09T07:02:35.974Z</time></trkpt><trkpt lat="44.1486768" lon="10.4146174"><ele>484.0</ele><time>2026-04-09T07:02:36.978Z</time></trkpt><trkpt lat="44.1486565" lon="10.414719"><ele>482.00000000000006</ele><time>2026-04-09T07:02:37.975Z</time></trkpt><trkpt lat="44.1486317" lon="10.4148235"><ele>480.0</ele><time>2026-04-09T07:02:38.974Z</time></trkpt><trkpt lat="44.1486007" lon="10.4149268"><ele>478.0</ele><time>2026-04-09T07:02:39.976Z</time></trkpt><trkpt lat="44.1485722" lon="10.4150275"><ele>476.0</ele><time>2026-04-09T07:02:40.976Z</time></trkpt><trkpt lat="44.1485585" lon="10.415115"><ele>474.00000000000006</ele><time>2026-04-09T07:02:41.976Z</time></trkpt><trkpt lat="44.1486048" lon="10.4152344"><ele>472.0</ele><time>2026-04-09T07:02:43.973Z</time></trkpt><trkpt lat="44.148701" lon="10.4153199"><ele>472.00000000000006</ele><time>2026-04-09T07:02:45.977Z</time></trkpt><trkpt lat="44.1488157" lon="10.415422"><ele>472.0</ele><time>2026-04-09T07:02:47.982Z</time></trkpt><trkpt lat="44.1488834" lon="10.4154659"><ele>472.0</ele><time>2026-04-09T07:02:48.98Z</time></trkpt><trkpt lat="44.148949" lon="10.4155142"><ele>472.0</ele><time>2026-04-09T07:02:49.983Z</time></trkpt><trkpt lat="44.1490126" lon="10.4155713"><ele>472.00000000000006</ele><time>2026-04-09T07:02:50.977Z</time></trkpt><trkpt lat="44.1490618" lon="10.415642"><ele>472.0</ele><time>2026-04-09T07:02:51.974Z</time></trkpt><trkpt lat="44.149109" lon="10.4157611"><ele>473.40000000000003</ele><time>2026-04-09T07:02:52.967Z</time></trkpt><trkpt lat="44.1491476" lon="10.4158676"><ele>474.80000000000007</ele><time>2026-04-09T07:02:53.966Z</time></trkpt><trkpt lat="44.1491754" lon="10.4159879"><ele>476.2</ele><time>2026-04-09T07:02:54.979Z</time></trkpt><trkpt lat="44.1491979" lon="10.4160845"><ele>477.6</ele><time>2026-04-09T07:02:55.975Z</time></trkpt><trkpt lat="44.1492549" lon="10.4162089"><ele>479.0</ele><time>2026-04-09T07:02:57.976Z</time></trkpt><trkpt lat="44.1493569" lon="10.4162061"><ele>478.99999999999994</ele><time>2026-04-09T07:02:59.981Z</time></trkpt><trkpt lat="44.149474" lon="10.4161545"><ele>479.0</ele><time>2026-04-09T07:03:01.982Z</time></trkpt><trkpt lat="44.1495393" lon="10.4161328"><ele>479.0</ele><time>2026-04-09T07:03:02.978Z</time></trkpt><trkpt lat="44.1496071" lon="10.4161036"><ele>479.0</ele><time>2026-04-09T07:03:03.98Z</time></trkpt><trkpt lat="44.1496775" lon="10.416076"><ele>478.99999999999994</ele><time>2026-04-09T07:03:04.979Z</time></trkpt><trkpt lat="44.1497475" lon="10.4160727"><ele>479.0</ele><time>2026-04-09T07:03:05.976Z</time></trkpt><trkpt lat="44.1498429" lon="10.4161691"><ele>479.0</ele><time>2026-04-09T07:03:07.975Z</time></trkpt><trkpt lat="44.1498606" lon="10.4162589"><ele>479.0</ele><time>2026-04-09T07:03:08.977Z</time></trkpt><trkpt lat="44.1498651" lon="10.4163532"><ele>479.0</ele><time>2026-04-09T07:03:09.976Z</time></trkpt><trkpt lat="44.1498707" lon="10.4164543"><ele>479.0</ele><time>2026-04-09T07:03:10.977Z</time></trkpt><trkpt lat="44.1498728" lon="10.4165547"><ele>479.0</ele><time>2026-04-09T07:03:11.973Z</time></trkpt><trkpt lat="44.1498775" lon="10.4166614"><ele>479.0</ele><time>2026-04-09T07:03:12.977Z</time></trkpt><trkpt lat="44.1498799" lon="10.4167687"><ele>479.0</ele><time>2026-04-09T07:03:13.98Z</time></trkpt><trkpt lat="44.1498949" lon="10.4168717"><ele>479.3333333333333</ele><time>2026-04-09T07:03:14.978Z</time></trkpt><trkpt lat="44.1499269" lon="10.4169647"><ele>479.66666666666663</ele><time>2026-04-09T07:03:15.979Z</time></trkpt><trkpt lat="44.1499752" lon="10.4170553"><ele>480.0</ele><time>2026-04-09T07:03:16.974Z</time></trkpt><trkpt lat="44.1500233" lon="10.4171477"><ele>480.33333333333337</ele><time>2026-04-09T07:03:17.976Z</time></trkpt><trkpt lat="44.150073" lon="10.4172455"><ele>480.6666666666667</ele><time>2026-04-09T07:03:18.975Z</time></trkpt><trkpt lat="44.1501318" lon="10.4173416"><ele>481.0</ele><time>2026-04-09T07:03:19.977Z</time></trkpt><trkpt lat="44.1501959" lon="10.4174331"><ele>476.50000000000006</ele><time>2026-04-09T07:03:20.969Z</time></trkpt><trkpt lat="44.1502582" lon="10.4175235"><ele>472.0</ele><time>2026-04-09T07:03:21.974Z</time></trkpt><trkpt lat="44.1503182" lon="10.4176061"><ele>467.5</ele><time>2026-04-09T07:03:22.982Z</time></trkpt><trkpt lat="44.1503792" lon="10.4176801"><ele>463.0</ele><time>2026-04-09T07:03:23.98Z</time></trkpt><trkpt lat="44.1504544" lon="10.4177353"><ele>458.50000000000006</ele><time>2026-04-09T07:03:24.983Z</time></trkpt><trkpt lat="44.1505347" lon="10.4177898"><ele>454.0</ele><time>2026-04-09T07:03:25.983Z</time></trkpt><trkpt lat="44.1506152" lon="10.4178434"><ele>454.0</ele><time>2026-04-09T07:03:26.984Z</time></trkpt><trkpt lat="44.1506986" lon="10.4179034"><ele>454.0</ele><time>2026-04-09T07:03:27.969Z</time></trkpt><trkpt lat="44.1507786" lon="10.4179682"><ele>454.0</ele><time>2026-04-09T07:03:28.98Z</time></trkpt><trkpt lat="44.150858" lon="10.4180472"><ele>454.0</ele><time>2026-04-09T07:03:29.98Z</time></trkpt><trkpt lat="44.1509296" lon="10.4181245"><ele>454.0</ele><time>2026-04-09T07:03:30.977Z</time></trkpt><trkpt lat="44.150991" lon="10.4181979"><ele>453.50000000000006</ele><time>2026-04-09T07:03:31.978Z</time></trkpt><trkpt lat="44.1510885" lon="10.4182634"><ele>453.0</ele><time>2026-04-09T07:03:33.977Z</time></trkpt><trkpt lat="44.1511645" lon="10.4182726"><ele>452.5</ele><time>2026-04-09T07:03:34.981Z</time></trkpt><trkpt lat="44.1512252" lon="10.4182323"><ele>452.0</ele><time>2026-04-09T07:03:35.981Z</time></trkpt><trkpt lat="44.1513009" lon="10.4181956"><ele>451.50000000000006</ele><time>2026-04-09T07:03:36.985Z</time></trkpt><trkpt lat="44.1513831" lon="10.4181585"><ele>451.0</ele><time>2026-04-09T07:03:37.97Z</time></trkpt><trkpt lat="44.1514668" lon="10.4181359"><ele>453.4</ele><time>2026-04-09T07:03:38.972Z</time></trkpt><trkpt lat="44.1515508" lon="10.4181239"><ele>455.8</ele><time>2026-04-09T07:03:39.983Z</time></trkpt><trkpt lat="44.1516746" lon="10.4181236"><ele>458.19999999999993</ele><time>2026-04-09T07:03:41.991Z</time></trkpt><trkpt lat="44.1517724" lon="10.4181312"><ele>460.59999999999997</ele><time>2026-04-09T07:03:43.981Z</time></trkpt><trkpt lat="44.15183" lon="10.4181737"><ele>463.0</ele><time>2026-04-09T07:03:46.97Z</time></trkpt><trkpt lat="44.1517475" lon="10.4181804"><ele>463.00000000000006</ele><time>2026-04-09T07:03:50.977Z</time></trkpt><trkpt lat="44.1516737" lon="10.4181778"><ele>463.0</ele><time>2026-04-09T07:03:52.976Z</time></trkpt><trkpt lat="44.151586" lon="10.4181705"><ele>463.0</ele><time>2026-04-09T07:03:54.975Z</time></trkpt><trkpt lat="44.151517" lon="10.4182117"><ele>463.0</ele><time>2026-04-09T07:03:56.976Z</time></trkpt><trkpt lat="44.1515023" lon="10.4183095"><ele>463.00000000000006</ele><time>2026-04-09T07:03:58.977Z</time></trkpt><trkpt lat="44.1514959" lon="10.4184069"><ele>463.0</ele><time>2026-04-09T07:04:01.975Z</time></trkpt><trkpt lat="44.151502" lon="10.4185368"><ele>462.1666666666667</ele><time>2026-04-09T07:04:07.968Z</time></trkpt><trkpt lat="44.1514942" lon="10.4186759"><ele>461.33333333333337</ele><time>2026-04-09T07:04:09.976Z</time></trkpt><trkpt lat="44.1515025" lon="10.4188146"><ele>460.5</ele><time>2026-04-09T07:04:11.978Z</time></trkpt><trkpt lat="44.1514754" lon="10.4189022"><ele>459.66666666666663</ele><time>2026-04-09T07:04:17.976Z</time></trkpt><trkpt lat="44.1514383" lon="10.418991"><ele>458.8333333333333</ele><time>2026-04-09T07:04:25.968Z</time></trkpt><trkpt lat="44.1514073" lon="10.4190738"><ele>458.0</ele><time>2026-04-09T07:04:31.973Z</time></trkpt><trkpt lat="44.151369" lon="10.419168"><ele>458.0</ele><time>2026-04-09T07:04:37.978Z</time></trkpt><trkpt lat="44.1513277" lon="10.4192468"><ele>458.0</ele><time>2026-04-09T07:04:45.969Z</time></trkpt><trkpt lat="44.1512852" lon="10.4193255"><ele>458.0</ele><time>2026-04-09T07:04:52.975Z</time></trkpt><trkpt lat="44.1512282" lon="10.4193657"><ele>458.0</ele><time>2026-04-09T07:04:57.969Z</time></trkpt><trkpt lat="44.1511543" lon="10.4193659"><ele>458.0</ele><time>2026-04-09T07:05:03.963Z</time></trkpt><trkpt lat="44.1510894" lon="10.4193825"><ele>458.0</ele><time>2026-04-09T07:05:08.966Z</time></trkpt><trkpt lat="44.1510208" lon="10.419423"><ele>458.0</ele><time>2026-04-09T07:05:14.964Z</time></trkpt><trkpt lat="44.1510194" lon="10.419518"><ele>458.0</ele><time>2026-04-09T07:05:21.982Z</time></trkpt><trkpt lat="44.1510846" lon="10.4195451"><ele>458.0</ele><time>2026-04-09T07:05:29.984Z</time></trkpt><trkpt lat="44.1511326" lon="10.4196045"><ele>458.0</ele><time>2026-04-09T07:05:36.981Z</time></trkpt><trkpt lat="44.1511849" lon="10.4196768"><ele>458.0</ele><time>2026-04-09T07:05:42.961Z</time></trkpt><trkpt lat="44.1512497" lon="10.4196897"><ele>458.0</ele><time>2026-04-09T07:05:48.965Z</time></trkpt><trkpt lat="44.1513119" lon="10.4196631"><ele>458.0</ele><time>2026-04-09T07:05:54.973Z</time></trkpt><trkpt lat="44.1513784" lon="10.4196481"><ele>458.0</ele><time>2026-04-09T07:06:01.918Z</time></trkpt><trkpt lat="44.151445" lon="10.4196667"><ele>458.57142857142856</ele><time>2026-04-09T07:06:08.973Z</time></trkpt><trkpt lat="44.1515142" lon="10.4196522"><ele>459.14285714285717</ele><time>2026-04-09T07:06:14.964Z</time></trkpt><trkpt lat="44.1515809" lon="10.4196285"><ele>459.7142857142857</ele><time>2026-04-09T07:06:19.978Z</time></trkpt><trkpt lat="44.1516554" lon="10.4196108"><ele>460.2857142857143</ele><time>2026-04-09T07:06:25.963Z</time></trkpt><trkpt lat="44.1517212" lon="10.4196342"><ele>460.8571428571429</ele><time>2026-04-09T07:06:31.965Z</time></trkpt><trkpt lat="44.1517847" lon="10.419645"><ele>461.42857142857144</ele><time>2026-04-09T07:06:37.962Z</time></trkpt><trkpt lat="44.1518388" lon="10.4196945"><ele>462.0</ele><time>2026-04-09T07:06:44.961Z</time></trkpt><trkpt lat="44.1518987" lon="10.4197366"><ele>466.42857142857144</ele><time>2026-04-09T07:06:50.964Z</time></trkpt><trkpt lat="44.1519499" lon="10.4198037"><ele>470.8571428571429</ele><time>2026-04-09T07:06:57.961Z</time></trkpt><trkpt lat="44.152016" lon="10.4198265"><ele>475.2857142857143</ele><time>2026-04-09T07:07:03.975Z</time></trkpt><trkpt lat="44.1520748" lon="10.4198736"><ele>479.7142857142857</ele><time>2026-04-09T07:07:09.968Z</time></trkpt><trkpt lat="44.152121" lon="10.4199346"><ele>484.14285714285717</ele><time>2026-04-09T07:07:15.98Z</time></trkpt><trkpt lat="44.1521739" lon="10.4199995"><ele>488.57142857142856</ele><time>2026-04-09T07:07:21.962Z</time></trkpt><trkpt lat="44.1522334" lon="10.4200525"><ele>493.0</ele><time>2026-04-09T07:07:27.968Z</time></trkpt><trkpt lat="44.1522903" lon="10.4201086"><ele>493.0</ele><time>2026-04-09T07:07:34.966Z</time></trkpt><trkpt lat="44.1523453" lon="10.420166"><ele>493.0</ele><time>2026-04-09T07:07:40.961Z</time></trkpt><trkpt lat="44.1524032" lon="10.4202237"><ele>493.0</ele><time>2026-04-09T07:07:46.976Z</time></trkpt><trkpt lat="44.152469" lon="10.4202782"><ele>493.0</ele><time>2026-04-09T07:07:52.983Z</time></trkpt><trkpt lat="44.1525417" lon="10.4203121"><ele>493.0</ele><time>2026-04-09T07:07:58.966Z</time></trkpt><trkpt lat="44.1525762" lon="10.4203894"><ele>493.0</ele><time>2026-04-09T07:08:04.977Z</time></trkpt><trkpt lat="44.1525106" lon="10.4203876"><ele>493.0</ele><time>2026-04-09T07:08:13.965Z</time></trkpt><trkpt lat="44.1524407" lon="10.4203553"><ele>493.0</ele><time>2026-04-09T07:08:21.972Z</time></trkpt><trkpt lat="44.1523702" lon="10.4203331"><ele>493.0</ele><time>2026-04-09T07:08:28.979Z</time></trkpt><trkpt lat="44.1523034" lon="10.4203198"><ele>493.0</ele><time>2026-04-09T07:08:35.978Z</time></trkpt><trkpt lat="44.1522297" lon="10.4203207"><ele>493.0</ele><time>2026-04-09T07:08:42.961Z</time></trkpt><trkpt lat="44.1521614" lon="10.4203421"><ele>493.0</ele><time>2026-04-09T07:08:49.975Z</time></trkpt><trkpt lat="44.1520979" lon="10.4203495"><ele>493.0</ele><time>2026-04-09T07:08:55.967Z</time></trkpt><trkpt lat="44.1520341" lon="10.4203868"><ele>493.0</ele><time>2026-04-09T07:09:02.963Z</time></trkpt><trkpt lat="44.1519781" lon="10.4204349"><ele>493.0</ele><time>2026-04-09T07:09:10.966Z</time></trkpt><trkpt lat="44.1519037" lon="10.4204583"><ele>493.0</ele><time>2026-04-09T07:09:16.967Z</time></trkpt><trkpt lat="44.1518378" lon="10.4204847"><ele>493.0</ele><time>2026-04-09T07:09:21.982Z</time></trkpt><trkpt lat="44.1517702" lon="10.4205229"><ele>493.0</ele><time>2026-04-09T07:09:27.964Z</time></trkpt><trkpt lat="44.1517077" lon="10.4205691"><ele>493.0</ele><time>2026-04-09T07:09:33.964Z</time></trkpt><trkpt lat="44.151641" lon="10.4206079"><ele>493.0</ele><time>2026-04-09T07:09:39.968Z</time></trkpt><trkpt lat="44.1515876" lon="10.4206751"><ele>493.0</ele><time>2026-04-09T07:09:45.973Z</time></trkpt><trkpt lat="44.1515274" lon="10.420716"><ele>497.0</ele><time>2026-04-09T07:09:50.975Z</time></trkpt><trkpt lat="44.1514607" lon="10.4207434"><ele>501.0</ele><time>2026-04-09T07:09:55.974Z</time></trkpt><trkpt lat="44.1514059" lon="10.4207957"><ele>505.0</ele><time>2026-04-09T07:10:01.979Z</time></trkpt><trkpt lat="44.1513563" lon="10.4208682"><ele>509.0</ele><time>2026-04-09T07:10:08.98Z</time></trkpt><trkpt lat="44.151312" lon="10.4209408"><ele>513.0</ele><time>2026-04-09T07:10:13.974Z</time></trkpt><trkpt lat="44.1512742" lon="10.4210288"><ele>517.0</ele><time>2026-04-09T07:10:19.96Z</time></trkpt><trkpt lat="44.1512422" lon="10.4211077"><ele>521.0</ele><time>2026-04-09T07:10:25.978Z</time></trkpt><trkpt lat="44.1511904" lon="10.4211687"><ele>521.0</ele><time>2026-04-09T07:10:30.971Z</time></trkpt><trkpt lat="44.1511326" lon="10.4212293"><ele>521.0</ele><time>2026-04-09T07:10:36.976Z</time></trkpt><trkpt lat="44.151072" lon="10.4212706"><ele>521.0</ele><time>2026-04-09T07:10:43.977Z</time></trkpt><trkpt lat="44.1510127" lon="10.4213216"><ele>521.0</ele><time>2026-04-09T07:10:49.974Z</time></trkpt><trkpt lat="44.1509406" lon="10.4213493"><ele>521.0</ele><time>2026-04-09T07:10:54.969Z</time></trkpt><trkpt lat="44.1508762" lon="10.4213998"><ele>521.0</ele><time>2026-04-09T07:11:00.97Z</time></trkpt><trkpt lat="44.1508071" lon="10.4214329"><ele>521.0</ele><time>2026-04-09T07:11:06.979Z</time></trkpt><trkpt lat="44.150748" lon="10.4214705"><ele>524.8571428571429</ele><time>2026-04-09T07:11:16.979Z</time></trkpt><trkpt lat="44.150676" lon="10.4214806"><ele>528.7142857142858</ele><time>2026-04-09T07:11:22.977Z</time></trkpt><trkpt lat="44.1506112" lon="10.4214892"><ele>532.5714285714287</ele><time>2026-04-09T07:11:27.977Z</time></trkpt><trkpt lat="44.1505401" lon="10.4215063"><ele>536.4285714285714</ele><time>2026-04-09T07:11:33.967Z</time></trkpt><trkpt lat="44.1504712" lon="10.4215259"><ele>540.2857142857143</ele><time>2026-04-09T07:11:39.973Z</time></trkpt><trkpt lat="44.150397" lon="10.4215429"><ele>544.1428571428572</ele><time>2026-04-09T07:11:45.968Z</time></trkpt><trkpt lat="44.1503276" lon="10.421575"><ele>548.0</ele><time>2026-04-09T07:11:51.971Z</time></trkpt><trkpt lat="44.1502549" lon="10.4215839"><ele>548.0000000000001</ele><time>2026-04-09T07:11:56.967Z</time></trkpt><trkpt lat="44.1501883" lon="10.4216177"><ele>548.0</ele><time>2026-04-09T07:12:02.981Z</time></trkpt><trkpt lat="44.1501588" lon="10.42171"><ele>548.0</ele><time>2026-04-09T07:12:10.97Z</time></trkpt><trkpt lat="44.1501271" lon="10.4217869"><ele>548.0</ele><time>2026-04-09T07:12:16.978Z</time></trkpt><trkpt lat="44.1500886" lon="10.4218584"><ele>548.0</ele><time>2026-04-09T07:12:21.972Z</time></trkpt><trkpt lat="44.1500557" lon="10.4219525"><ele>548.0000000000001</ele><time>2026-04-09T07:12:29.977Z</time></trkpt><trkpt lat="44.149982" lon="10.4219798"><ele>548.0</ele><time>2026-04-09T07:12:35.969Z</time></trkpt><trkpt lat="44.1499194" lon="10.4219396"><ele>549.7142857142858</ele><time>2026-04-09T07:12:40.98Z</time></trkpt><trkpt lat="44.1498627" lon="10.4218978"><ele>551.4285714285714</ele><time>2026-04-09T07:12:46.965Z</time></trkpt><trkpt lat="44.1497892" lon="10.4218744"><ele>553.1428571428571</ele><time>2026-04-09T07:12:53.961Z</time></trkpt><trkpt lat="44.1497204" lon="10.4218633"><ele>554.8571428571429</ele><time>2026-04-09T07:12:58.98Z</time></trkpt><trkpt lat="44.1496506" lon="10.4218446"><ele>556.5714285714286</ele><time>2026-04-09T07:13:05.979Z</time></trkpt><trkpt lat="44.1495827" lon="10.4218507"><ele>558.2857142857143</ele><time>2026-04-09T07:13:11.972Z</time></trkpt><trkpt lat="44.1495186" lon="10.4218869"><ele>560.0</ele><time>2026-04-09T07:13:16.976Z</time></trkpt><trkpt lat="44.1494419" lon="10.4219295"><ele>560.0</ele><time>2026-04-09T07:13:23.984Z</time></trkpt><trkpt lat="44.1493869" lon="10.4219837"><ele>560.0</ele><time>2026-04-09T07:13:28.986Z</time></trkpt><trkpt lat="44.1493247" lon="10.4220031"><ele>560.0</ele><time>2026-04-09T07:13:34.968Z</time></trkpt><trkpt lat="44.149254" lon="10.4220009"><ele>560.0</ele><time>2026-04-09T07:13:40.975Z</time></trkpt><trkpt lat="44.1491961" lon="10.4219556"><ele>560.0</ele><time>2026-04-09T07:13:46.98Z</time></trkpt><trkpt lat="44.1491344" lon="10.4219108"><ele>560.0</ele><time>2026-04-09T07:13:52.976Z</time></trkpt><trkpt lat="44.1490837" lon="10.4218418"><ele>560.0</ele><time>2026-04-09T07:13:58.979Z</time></trkpt><trkpt lat="44.149042" lon="10.4217717"><ele>560.7142857142857</ele><time>2026-04-09T07:14:03.983Z</time></trkpt><trkpt lat="44.1489792" lon="10.4217448"><ele>561.4285714285714</ele><time>2026-04-09T07:14:09.972Z</time></trkpt><trkpt lat="44.1489152" lon="10.4217445"><ele>562.1428571428571</ele><time>2026-04-09T07:14:16.977Z</time></trkpt><trkpt lat="44.1488509" lon="10.4217879"><ele>562.8571428571429</ele><time>2026-04-09T07:14:25.985Z</time></trkpt><trkpt lat="44.1488022" lon="10.4218626"><ele>563.5714285714286</ele><time>2026-04-09T07:14:32.985Z</time></trkpt><trkpt lat="44.1487684" lon="10.4219409"><ele>564.2857142857142</ele><time>2026-04-09T07:14:37.972Z</time></trkpt><trkpt lat="44.1487236" lon="10.4220162"><ele>565.0</ele><time>2026-04-09T07:14:43.985Z</time></trkpt><trkpt lat="44.148676" lon="10.4220829"><ele>566.4285714285713</ele><time>2026-04-09T07:14:49.974Z</time></trkpt><trkpt lat="44.1486352" lon="10.4221512"><ele>567.8571428571429</ele><time>2026-04-09T07:14:54.976Z</time></trkpt><trkpt lat="44.1485938" lon="10.4222352"><ele>569.2857142857142</ele><time>2026-04-09T07:14:59.966Z</time></trkpt><trkpt lat="44.1485508" lon="10.4223019"><ele>570.7142857142857</ele><time>2026-04-09T07:15:04.994Z</time></trkpt><trkpt lat="44.1485263" lon="10.4223972"><ele>572.1428571428571</ele><time>2026-04-09T07:15:11.977Z</time></trkpt><trkpt lat="44.148505" lon="10.4225005"><ele>573.5714285714286</ele><time>2026-04-09T07:15:17.972Z</time></trkpt><trkpt lat="44.1484922" lon="10.422598"><ele>575.0</ele><time>2026-04-09T07:15:22.969Z</time></trkpt><trkpt lat="44.1485079" lon="10.4226913"><ele>575.0</ele><time>2026-04-09T07:15:27.996Z</time></trkpt><trkpt lat="44.1485188" lon="10.4227845"><ele>575.0</ele><time>2026-04-09T07:15:33.976Z</time></trkpt><trkpt lat="44.1485278" lon="10.4228744"><ele>575.0</ele><time>2026-04-09T07:15:40.982Z</time></trkpt><trkpt lat="44.1485243" lon="10.4229694"><ele>575.0</ele><time>2026-04-09T07:15:46.988Z</time></trkpt><trkpt lat="44.1484985" lon="10.4230625"><ele>575.0</ele><time>2026-04-09T07:15:54.974Z</time></trkpt><trkpt lat="44.1484582" lon="10.4231387"><ele>575.0</ele><time>2026-04-09T07:16:01.982Z</time></trkpt><trkpt lat="44.1484292" lon="10.4232183"><ele>575.0</ele><time>2026-04-09T07:16:07.973Z</time></trkpt><trkpt lat="44.1484117" lon="10.4233182"><ele>575.8571428571429</ele><time>2026-04-09T07:16:13.982Z</time></trkpt><trkpt lat="44.148411" lon="10.4234144"><ele>576.7142857142857</ele><time>2026-04-09T07:16:20.97Z</time></trkpt><trkpt lat="44.1484256" lon="10.4235017"><ele>577.5714285714286</ele><time>2026-04-09T07:16:26.976Z</time></trkpt><trkpt lat="44.1484285" lon="10.4235899"><ele>578.4285714285714</ele><time>2026-04-09T07:16:31.972Z</time></trkpt><trkpt lat="44.1484406" lon="10.4236871"><ele>579.2857142857142</ele><time>2026-04-09T07:16:37.98Z</time></trkpt><trkpt lat="44.1484593" lon="10.4237827"><ele>580.1428571428571</ele><time>2026-04-09T07:16:43.984Z</time></trkpt><trkpt lat="44.148506" lon="10.423855"><ele>581.0</ele><time>2026-04-09T07:16:49.975Z</time></trkpt><trkpt lat="44.1485629" lon="10.4239057"><ele>581.0</ele><time>2026-04-09T07:16:55.967Z</time></trkpt><trkpt lat="44.1486077" lon="10.4239709"><ele>581.0</ele><time>2026-04-09T07:17:01.973Z</time></trkpt><trkpt lat="44.1486461" lon="10.4240446"><ele>581.0</ele><time>2026-04-09T07:17:06.97Z</time></trkpt><trkpt lat="44.1487151" lon="10.4240699"><ele>581.0</ele><time>2026-04-09T07:17:12.98Z</time></trkpt><trkpt lat="44.1487723" lon="10.4240308"><ele>581.0</ele><time>2026-04-09T07:17:19.981Z</time></trkpt><trkpt lat="44.1488308" lon="10.4239659"><ele>581.0</ele><time>2026-04-09T07:17:27.974Z</time></trkpt><trkpt lat="44.1488933" lon="10.4239195"><ele>581.0</ele><time>2026-04-09T07:17:33.976Z</time></trkpt><trkpt lat="44.1489447" lon="10.4238674"><ele>581.5714285714286</ele><time>2026-04-09T07:17:39.97Z</time></trkpt><trkpt lat="44.1489881" lon="10.4238036"><ele>582.1428571428571</ele><time>2026-04-09T07:17:45.974Z</time></trkpt><trkpt lat="44.1490508" lon="10.4237821"><ele>582.7142857142858</ele><time>2026-04-09T07:17:55.98Z</time></trkpt><trkpt lat="44.1491161" lon="10.4237896"><ele>583.2857142857142</ele><time>2026-04-09T07:18:02.975Z</time></trkpt><trkpt lat="44.1491861" lon="10.4238021"><ele>583.8571428571429</ele><time>2026-04-09T07:18:10.986Z</time></trkpt><trkpt lat="44.1492527" lon="10.4237896"><ele>584.4285714285714</ele><time>2026-04-09T07:18:16.98Z</time></trkpt><trkpt lat="44.1493244" lon="10.4237834"><ele>585.0</ele><time>2026-04-09T07:18:21.979Z</time></trkpt><trkpt lat="44.1493923" lon="10.4237837"><ele>587.8571428571429</ele><time>2026-04-09T07:18:26.97Z</time></trkpt><trkpt lat="44.1494702" lon="10.4238097"><ele>590.7142857142857</ele><time>2026-04-09T07:18:32.973Z</time></trkpt><trkpt lat="44.1495364" lon="10.4238252"><ele>593.5714285714286</ele><time>2026-04-09T07:18:38.981Z</time></trkpt><trkpt lat="44.1496066" lon="10.4238546"><ele>596.4285714285714</ele><time>2026-04-09T07:18:45.994Z</time></trkpt><trkpt lat="44.1496696" lon="10.423884"><ele>599.2857142857143</ele><time>2026-04-09T07:18:51.973Z</time></trkpt><trkpt lat="44.1497346" lon="10.4238735"><ele>602.1428571428571</ele><time>2026-04-09T07:18:57.98Z</time></trkpt><trkpt lat="44.1497992" lon="10.4238634"><ele>605.0</ele><time>2026-04-09T07:19:02.98Z</time></trkpt><trkpt lat="44.1498693" lon="10.4238481"><ele>609.4285714285714</ele><time>2026-04-09T07:19:07.977Z</time></trkpt><trkpt lat="44.1499418" lon="10.4238251"><ele>613.8571428571429</ele><time>2026-04-09T07:19:13.979Z</time></trkpt><trkpt lat="44.1500128" lon="10.4238438"><ele>618.2857142857142</ele><time>2026-04-09T07:19:21.981Z</time></trkpt><trkpt lat="44.1500808" lon="10.4238584"><ele>622.7142857142858</ele><time>2026-04-09T07:19:27.975Z</time></trkpt><trkpt lat="44.1501363" lon="10.4239024"><ele>627.1428571428572</ele><time>2026-04-09T07:19:33.984Z</time></trkpt><trkpt lat="44.1502004" lon="10.4239398"><ele>631.5714285714286</ele><time>2026-04-09T07:19:38.999Z</time></trkpt><trkpt lat="44.1502708" lon="10.4239783"><ele>636.0</ele><time>2026-04-09T07:19:44.973Z</time></trkpt><trkpt lat="44.1503345" lon="10.4240351"><ele>636.0</ele><time>2026-04-09T07:19:50.982Z</time></trkpt><trkpt lat="44.1503882" lon="10.4240846"><ele>636.0</ele><time>2026-04-09T07:19:55.979Z</time></trkpt><trkpt lat="44.1504498" lon="10.4241293"><ele>636.0</ele><time>2026-04-09T07:20:01.972Z</time></trkpt><trkpt lat="44.1505126" lon="10.4241664"><ele>636.0</ele><time>2026-04-09T07:20:07.967Z</time></trkpt><trkpt lat="44.1505713" lon="10.4242052"><ele>636.0</ele><time>2026-04-09T07:20:12.982Z</time></trkpt><trkpt lat="44.1506393" lon="10.4242512"><ele>636.0</ele><time>2026-04-09T07:20:18.976Z</time></trkpt><trkpt lat="44.1506971" lon="10.4243048"><ele>636.0</ele><time>2026-04-09T07:20:24.972Z</time></trkpt><trkpt lat="44.1507543" lon="10.4243544"><ele>634.5714285714286</ele><time>2026-04-09T07:20:29.98Z</time></trkpt><trkpt lat="44.1508017" lon="10.4244212"><ele>633.1428571428572</ele><time>2026-04-09T07:20:35.975Z</time></trkpt><trkpt lat="44.1508578" lon="10.4244893"><ele>631.7142857142858</ele><time>2026-04-09T07:20:40.984Z</time></trkpt><trkpt lat="44.1509067" lon="10.4245565"><ele>630.2857142857142</ele><time>2026-04-09T07:20:46.978Z</time></trkpt><trkpt lat="44.150962" lon="10.4246117"><ele>628.8571428571429</ele><time>2026-04-09T07:20:53.979Z</time></trkpt><trkpt lat="44.1510115" lon="10.4246726"><ele>627.4285714285714</ele><time>2026-04-09T07:20:59.978Z</time></trkpt><trkpt lat="44.1510665" lon="10.42474"><ele>626.0</ele><time>2026-04-09T07:21:05.978Z</time></trkpt><trkpt lat="44.1511182" lon="10.4248116"><ele>631.8571428571429</ele><time>2026-04-09T07:21:11.973Z</time></trkpt><trkpt lat="44.1511589" lon="10.4248799"><ele>637.7142857142858</ele><time>2026-04-09T07:21:16.985Z</time></trkpt><trkpt lat="44.151218" lon="10.4249318"><ele>643.5714285714287</ele><time>2026-04-09T07:21:22.983Z</time></trkpt><trkpt lat="44.1512823" lon="10.424971"><ele>649.4285714285714</ele><time>2026-04-09T07:21:27.977Z</time></trkpt><trkpt lat="44.151351" lon="10.4250175"><ele>655.2857142857143</ele><time>2026-04-09T07:21:32.97Z</time></trkpt><trkpt lat="44.1514083" lon="10.4250631"><ele>661.1428571428572</ele><time>2026-04-09T07:21:36.984Z</time></trkpt><trkpt lat="44.1514632" lon="10.4251085"><ele>667.0</ele><time>2026-04-09T07:21:41.973Z</time></trkpt><trkpt lat="44.1515284" lon="10.4251618"><ele>663.8571428571429</ele><time>2026-04-09T07:21:46.969Z</time></trkpt><trkpt lat="44.1515855" lon="10.4252037"><ele>660.7142857142858</ele><time>2026-04-09T07:21:51.981Z</time></trkpt><trkpt lat="44.1516531" lon="10.4252338"><ele>657.5714285714287</ele><time>2026-04-09T07:21:56.972Z</time></trkpt><trkpt lat="44.1517216" lon="10.4252491"><ele>654.4285714285714</ele><time>2026-04-09T07:22:01.977Z</time></trkpt><trkpt lat="44.151786" lon="10.4252753"><ele>651.2857142857142</ele><time>2026-04-09T07:22:06.98Z</time></trkpt><trkpt lat="44.1518512" lon="10.4253025"><ele>648.1428571428572</ele><time>2026-04-09T07:22:11.98Z</time></trkpt><trkpt lat="44.1519138" lon="10.4253461"><ele>645.0</ele><time>2026-04-09T07:22:17.988Z</time></trkpt><trkpt lat="44.1519792" lon="10.4253795"><ele>645.0</ele><time>2026-04-09T07:22:23.97Z</time></trkpt><trkpt lat="44.1520436" lon="10.425427"><ele>645.0</ele><time>2026-04-09T07:22:29.983Z</time></trkpt><trkpt lat="44.1521116" lon="10.425435"><ele>645.0</ele><time>2026-04-09T07:22:34.977Z</time></trkpt><trkpt lat="44.1521748" lon="10.4254235"><ele>645.0</ele><time>2026-04-09T07:22:40.961Z</time></trkpt><trkpt lat="44.1522418" lon="10.4253892"><ele>645.0</ele><time>2026-04-09T07:22:44.976Z</time></trkpt><trkpt lat="44.1523063" lon="10.4253499"><ele>645.0</ele><time>2026-04-09T07:22:48.972Z</time></trkpt><trkpt lat="44.1523638" lon="10.4253032"><ele>645.0</ele><time>2026-04-09T07:22:52.975Z</time></trkpt><trkpt lat="44.1524303" lon="10.4252437"><ele>645.5714285714286</ele><time>2026-04-09T07:22:57.968Z</time></trkpt><trkpt lat="44.1524854" lon="10.4251883"><ele>646.1428571428571</ele><time>2026-04-09T07:23:01.982Z</time></trkpt><trkpt lat="44.1525533" lon="10.4251397"><ele>646.7142857142857</ele><time>2026-04-09T07:23:06.982Z</time></trkpt><trkpt lat="44.1526185" lon="10.4251173"><ele>647.2857142857142</ele><time>2026-04-09T07:23:11.981Z</time></trkpt><trkpt lat="44.1526909" lon="10.425101"><ele>647.8571428571429</ele><time>2026-04-09T07:23:16.967Z</time></trkpt><trkpt lat="44.1527558" lon="10.425091"><ele>648.4285714285713</ele><time>2026-04-09T07:23:21.985Z</time></trkpt><trkpt lat="44.1528212" lon="10.4250806"><ele>649.0</ele><time>2026-04-09T07:23:26.981Z</time></trkpt><trkpt lat="44.152888" lon="10.4250875"><ele>648.9999999999999</ele><time>2026-04-09T07:23:31.974Z</time></trkpt><trkpt lat="44.1529529" lon="10.4250795"><ele>649.0</ele><time>2026-04-09T07:23:36.98Z</time></trkpt><trkpt lat="44.1530233" lon="10.4251015"><ele>649.0</ele><time>2026-04-09T07:23:41.974Z</time></trkpt><trkpt lat="44.1530897" lon="10.4251255"><ele>649.0</ele><time>2026-04-09T07:23:46.99Z</time></trkpt><trkpt lat="44.1531579" lon="10.4251295"><ele>649.0</ele><time>2026-04-09T07:23:51.969Z</time></trkpt><trkpt lat="44.1532369" lon="10.4251255"><ele>648.9999999999999</ele><time>2026-04-09T07:23:57.983Z</time></trkpt><trkpt lat="44.1533029" lon="10.4251251"><ele>649.0</ele><time>2026-04-09T07:24:01.978Z</time></trkpt><trkpt lat="44.1533743" lon="10.425151"><ele>649.7142857142857</ele><time>2026-04-09T07:24:06.978Z</time></trkpt><trkpt lat="44.1534413" lon="10.4251495"><ele>650.4285714285714</ele><time>2026-04-09T07:24:12.969Z</time></trkpt><trkpt lat="44.1535089" lon="10.4251422"><ele>651.1428571428571</ele><time>2026-04-09T07:24:18.981Z</time></trkpt><trkpt lat="44.1535713" lon="10.4251709"><ele>651.8571428571429</ele><time>2026-04-09T07:24:24.98Z</time></trkpt><trkpt lat="44.153619" lon="10.4252318"><ele>652.5714285714286</ele><time>2026-04-09T07:24:30.984Z</time></trkpt><trkpt lat="44.1536575" lon="10.4253081"><ele>653.2857142857142</ele><time>2026-04-09T07:24:35.981Z</time></trkpt><trkpt lat="44.1536855" lon="10.4253937"><ele>654.0</ele><time>2026-04-09T07:24:40.969Z</time></trkpt><trkpt lat="44.1536999" lon="10.4254794"><ele>658.4285714285714</ele><time>2026-04-09T07:24:45.978Z</time></trkpt><trkpt lat="44.153714" lon="10.42558"><ele>662.8571428571429</ele><time>2026-04-09T07:24:51.979Z</time></trkpt><trkpt lat="44.1537308" lon="10.4256678"><ele>667.2857142857142</ele><time>2026-04-09T07:24:56.99Z</time></trkpt><trkpt lat="44.1537626" lon="10.4257573"><ele>671.7142857142858</ele><time>2026-04-09T07:25:02.976Z</time></trkpt><trkpt lat="44.1538062" lon="10.4258564"><ele>676.1428571428572</ele><time>2026-04-09T07:25:08.969Z</time></trkpt><trkpt lat="44.1538499" lon="10.4259209"><ele>680.5714285714286</ele><time>2026-04-09T07:25:13.997Z</time></trkpt><trkpt lat="44.1539107" lon="10.4259716"><ele>685.0</ele><time>2026-04-09T07:25:17.97Z</time></trkpt><trkpt lat="44.1539673" lon="10.4260414"><ele>685.0</ele><time>2026-04-09T07:25:23.977Z</time></trkpt><trkpt lat="44.1540089" lon="10.4261172"><ele>685.0</ele><time>2026-04-09T07:25:29.981Z</time></trkpt><trkpt lat="44.1540493" lon="10.4261945"><ele>685.0</ele><time>2026-04-09T07:25:34.976Z</time></trkpt><trkpt lat="44.1540871" lon="10.4262649"><ele>685.0</ele><time>2026-04-09T07:25:39.999Z</time></trkpt><trkpt lat="44.1541152" lon="10.4263489"><ele>685.0</ele><time>2026-04-09T07:25:44.966Z</time></trkpt><trkpt lat="44.1541529" lon="10.4264332"><ele>685.0</ele><time>2026-04-09T07:25:49.972Z</time></trkpt><trkpt lat="44.1541853" lon="10.4265149"><ele>685.0</ele><time>2026-04-09T07:25:55.985Z</time></trkpt><trkpt lat="44.1542198" lon="10.4265913"><ele>685.2857142857142</ele><time>2026-04-09T07:26:00.979Z</time></trkpt><trkpt lat="44.1542528" lon="10.4266781"><ele>685.5714285714287</ele><time>2026-04-09T07:26:06.967Z</time></trkpt><trkpt lat="44.1541902" lon="10.4266421"><ele>685.8571428571429</ele><time>2026-04-09T07:26:19.971Z</time></trkpt><trkpt lat="44.1541333" lon="10.4265739"><ele>686.1428571428571</ele><time>2026-04-09T07:26:27.974Z</time></trkpt><trkpt lat="44.1540708" lon="10.426514"><ele>686.4285714285713</ele><time>2026-04-09T07:26:33.977Z</time></trkpt><trkpt lat="44.1540066" lon="10.4264887"><ele>686.7142857142858</ele><time>2026-04-09T07:26:38.999Z</time></trkpt><trkpt lat="44.1539542" lon="10.4264376"><ele>687.0</ele><time>2026-04-09T07:26:43.975Z</time></trkpt><trkpt lat="44.1538975" lon="10.4263888"><ele>686.7142857142858</ele><time>2026-04-09T07:26:49.977Z</time></trkpt><trkpt lat="44.1538351" lon="10.4263428"><ele>686.4285714285713</ele><time>2026-04-09T07:26:54.977Z</time></trkpt><trkpt lat="44.153784" lon="10.4262727"><ele>686.1428571428571</ele><time>2026-04-09T07:26:59.972Z</time></trkpt><trkpt lat="44.1537346" lon="10.426206"><ele>685.8571428571429</ele><time>2026-04-09T07:27:06.968Z</time></trkpt><trkpt lat="44.1536883" lon="10.4261449"><ele>685.5714285714287</ele><time>2026-04-09T07:27:10.974Z</time></trkpt><trkpt lat="44.1536372" lon="10.4260719"><ele>685.2857142857142</ele><time>2026-04-09T07:27:15.979Z</time></trkpt><trkpt lat="44.1535771" lon="10.426015"><ele>685.0</ele><time>2026-04-09T07:27:20.969Z</time></trkpt><trkpt lat="44.1535356" lon="10.4259314"><ele>685.0</ele><time>2026-04-09T07:27:25.974Z</time></trkpt><trkpt lat="44.1534903" lon="10.4258601"><ele>685.0</ele><time>2026-04-09T07:27:31.976Z</time></trkpt><trkpt lat="44.1534448" lon="10.4259239"><ele>685.0</ele><time>2026-04-09T07:27:40.968Z</time></trkpt><trkpt lat="44.1534639" lon="10.4260133"><ele>685.0</ele><time>2026-04-09T07:27:46.978Z</time></trkpt><trkpt lat="44.153488" lon="10.4261011"><ele>685.0</ele><time>2026-04-09T07:27:51.975Z</time></trkpt><trkpt lat="44.1535243" lon="10.4261819"><ele>685.0</ele><time>2026-04-09T07:27:56.883Z</time></trkpt><trkpt lat="44.1535534" lon="10.4262872"><ele>685.0</ele><time>2026-04-09T07:28:01.987Z</time></trkpt><trkpt lat="44.153588" lon="10.426362"><ele>689.7142857142857</ele><time>2026-04-09T07:28:05.972Z</time></trkpt><trkpt lat="44.1536214" lon="10.4264563"><ele>694.4285714285714</ele><time>2026-04-09T07:28:10.968Z</time></trkpt><trkpt lat="44.1536475" lon="10.42654"><ele>699.1428571428571</ele><time>2026-04-09T07:28:15.972Z</time></trkpt><trkpt lat="44.1536758" lon="10.426633"><ele>703.8571428571429</ele><time>2026-04-09T07:28:20.98Z</time></trkpt><trkpt lat="44.153699" lon="10.4267171"><ele>708.5714285714287</ele><time>2026-04-09T07:28:25.967Z</time></trkpt><trkpt lat="44.1537281" lon="10.4267953"><ele>713.2857142857143</ele><time>2026-04-09T07:28:30.985Z</time></trkpt><trkpt lat="44.1537588" lon="10.4268833"><ele>718.0</ele><time>2026-04-09T07:28:35.98Z</time></trkpt><trkpt lat="44.1537832" lon="10.4269768"><ele>718.0</ele><time>2026-04-09T07:28:41.984Z</time></trkpt><trkpt lat="44.1538144" lon="10.4270639"><ele>718.0</ele><time>2026-04-09T07:28:47.969Z</time></trkpt><trkpt lat="44.1538578" lon="10.4271417"><ele>718.0</ele><time>2026-04-09T07:28:52.965Z</time></trkpt><trkpt lat="44.1539245" lon="10.4271737"><ele>718.0</ele><time>2026-04-09T07:28:57.974Z</time></trkpt><trkpt lat="44.153975" lon="10.4272366"><ele>718.0</ele><time>2026-04-09T07:29:02.984Z</time></trkpt><trkpt lat="44.1540302" lon="10.4272869"><ele>718.0</ele><time>2026-04-09T07:29:06.963Z</time></trkpt><trkpt lat="44.154082" lon="10.4273371"><ele>718.0</ele><time>2026-04-09T07:29:10.985Z</time></trkpt><trkpt lat="44.1541104" lon="10.4274188"><ele>718.0</ele><time>2026-04-09T07:29:16.965Z</time></trkpt><trkpt lat="44.1540408" lon="10.4274206"><ele>718.0</ele><time>2026-04-09T07:29:24.975Z</time></trkpt><trkpt lat="44.1539774" lon="10.427377"><ele>718.0</ele><time>2026-04-09T07:29:30.976Z</time></trkpt><trkpt lat="44.1539242" lon="10.4273172"><ele>718.0</ele><time>2026-04-09T07:29:37.981Z</time></trkpt><trkpt lat="44.1538625" lon="10.4272578"><ele>718.0</ele><time>2026-04-09T07:29:43.971Z</time></trkpt><trkpt lat="44.1538066" lon="10.42719"><ele>718.0</ele><time>2026-04-09T07:29:48.978Z</time></trkpt><trkpt lat="44.1537529" lon="10.4271289"><ele>718.0</ele><time>2026-04-09T07:29:53.987Z</time></trkpt><trkpt lat="44.1537004" lon="10.4270727"><ele>718.0</ele><time>2026-04-09T07:29:59.978Z</time></trkpt><trkpt lat="44.1536442" lon="10.4270166"><ele>718.0</ele><time>2026-04-09T07:30:04.982Z</time></trkpt><trkpt lat="44.1535771" lon="10.4269443"><ele>718.0</ele><time>2026-04-09T07:30:09.975Z</time></trkpt><trkpt lat="44.1535317" lon="10.4268821"><ele>718.0</ele><time>2026-04-09T07:30:13.976Z</time></trkpt><trkpt lat="44.1534895" lon="10.426798"><ele>718.0</ele><time>2026-04-09T07:30:18.997Z</time></trkpt><trkpt lat="44.1534625" lon="10.426712"><ele>718.0</ele><time>2026-04-09T07:30:23.98Z</time></trkpt><trkpt lat="44.1534221" lon="10.4266322"><ele>718.0</ele><time>2026-04-09T07:30:28.986Z</time></trkpt><trkpt lat="44.1533814" lon="10.4265593"><ele>718.0</ele><time>2026-04-09T07:30:33.978Z</time></trkpt><trkpt lat="44.1533359" lon="10.4264833"><ele>718.0</ele><time>2026-04-09T07:30:38.98Z</time></trkpt><trkpt lat="44.1533118" lon="10.4265686"><ele>718.0</ele><time>2026-04-09T07:30:47.979Z</time></trkpt><trkpt lat="44.1533291" lon="10.4266544"><ele>718.0</ele><time>2026-04-09T07:30:52.966Z</time></trkpt><trkpt lat="44.1533508" lon="10.4267413"><ele>718.0</ele><time>2026-04-09T07:30:57.975Z</time></trkpt><trkpt lat="44.1533864" lon="10.4268329"><ele>718.0</ele><time>2026-04-09T07:31:02.984Z</time></trkpt><trkpt lat="44.1534282" lon="10.4269291"><ele>718.0</ele><time>2026-04-09T07:31:07.967Z</time></trkpt><trkpt lat="44.1534578" lon="10.427017"><ele>718.0</ele><time>2026-04-09T07:31:11.977Z</time></trkpt><trkpt lat="44.1534864" lon="10.4271192"><ele>718.0</ele><time>2026-04-09T07:31:17.968Z</time></trkpt><trkpt lat="44.1535162" lon="10.4272039"><ele>718.0</ele><time>2026-04-09T07:31:21.97Z</time></trkpt><trkpt lat="44.153559" lon="10.4272897"><ele>718.0</ele><time>2026-04-09T07:31:26.966Z</time></trkpt><trkpt lat="44.1535996" lon="10.4273742"><ele>718.0</ele><time>2026-04-09T07:31:31.962Z</time></trkpt><trkpt lat="44.1536337" lon="10.4274507"><ele>718.0</ele><time>2026-04-09T07:31:36.877Z</time></trkpt><trkpt lat="44.1536598" lon="10.4275504"><ele>718.0</ele><time>2026-04-09T07:31:41.98Z</time></trkpt><trkpt lat="44.1537049" lon="10.4276228"><ele>721.2857142857143</ele><time>2026-04-09T07:31:46.968Z</time></trkpt><trkpt lat="44.1537354" lon="10.4277063"><ele>724.5714285714287</ele><time>2026-04-09T07:31:51.981Z</time></trkpt><trkpt lat="44.1537763" lon="10.4277966"><ele>727.8571428571429</ele><time>2026-04-09T07:31:56.975Z</time></trkpt><trkpt lat="44.153825" lon="10.4278546"><ele>731.1428571428571</ele><time>2026-04-09T07:32:00.973Z</time></trkpt><trkpt lat="44.1538764" lon="10.427908"><ele>734.4285714285714</ele><time>2026-04-09T07:32:04.974Z</time></trkpt><trkpt lat="44.153924" lon="10.4279808"><ele>737.7142857142857</ele><time>2026-04-09T07:32:09.964Z</time></trkpt><trkpt lat="44.1538579" lon="10.4279414"><ele>741.0</ele><time>2026-04-09T07:32:24.964Z</time></trkpt><trkpt lat="44.1538035" lon="10.4278816"><ele>741.0</ele><time>2026-04-09T07:32:29.986Z</time></trkpt><trkpt lat="44.1537552" lon="10.4278021"><ele>741.0</ele><time>2026-04-09T07:32:34.974Z</time></trkpt><trkpt lat="44.1537029" lon="10.4277481"><ele>741.0</ele><time>2026-04-09T07:32:38.977Z</time></trkpt><trkpt lat="44.1536587" lon="10.4276712"><ele>741.0</ele><time>2026-04-09T07:32:43.988Z</time></trkpt><trkpt lat="44.1536031" lon="10.4276152"><ele>741.0</ele><time>2026-04-09T07:32:48.973Z</time></trkpt><trkpt lat="44.1535537" lon="10.4275464"><ele>741.0</ele><time>2026-04-09T07:32:52.984Z</time></trkpt><trkpt lat="44.1535073" lon="10.4274757"><ele>741.0</ele><time>2026-04-09T07:32:56.978Z</time></trkpt><trkpt lat="44.1534505" lon="10.4274044"><ele>741.0</ele><time>2026-04-09T07:33:00.99Z</time></trkpt><trkpt lat="44.1533859" lon="10.4273504"><ele>741.0</ele><time>2026-04-09T07:33:04.979Z</time></trkpt><trkpt lat="44.1533294" lon="10.4272851"><ele>741.0</ele><time>2026-04-09T07:33:08.974Z</time></trkpt><trkpt lat="44.1532788" lon="10.4272235"><ele>741.0</ele><time>2026-04-09T07:33:12.975Z</time></trkpt><trkpt lat="44.1532252" lon="10.4271713"><ele>741.0</ele><time>2026-04-09T07:33:16.979Z</time></trkpt><trkpt lat="44.1531654" lon="10.427138"><ele>741.0</ele><time>2026-04-09T07:33:20.969Z</time></trkpt><trkpt lat="44.1530949" lon="10.4271204"><ele>741.0</ele><time>2026-04-09T07:33:25.97Z</time></trkpt><trkpt lat="44.1530264" lon="10.4271208"><ele>742.2857142857142</ele><time>2026-04-09T07:33:29.975Z</time></trkpt><trkpt lat="44.1529606" lon="10.4271298"><ele>743.5714285714287</ele><time>2026-04-09T07:33:33.991Z</time></trkpt><trkpt lat="44.1529002" lon="10.4271553"><ele>744.8571428571429</ele><time>2026-04-09T07:33:37.977Z</time></trkpt><trkpt lat="44.1528383" lon="10.4271932"><ele>746.1428571428571</ele><time>2026-04-09T07:33:41.98Z</time></trkpt><trkpt lat="44.1527759" lon="10.4272311"><ele>747.4285714285713</ele><time>2026-04-09T07:33:45.965Z</time></trkpt><trkpt lat="44.1527095" lon="10.4272645"><ele>748.7142857142858</ele><time>2026-04-09T07:33:49.977Z</time></trkpt><trkpt lat="44.1526401" lon="10.4273003"><ele>750.0</ele><time>2026-04-09T07:33:54.965Z</time></trkpt><trkpt lat="44.1525751" lon="10.4273405"><ele>750.0</ele><time>2026-04-09T07:33:59.984Z</time></trkpt><trkpt lat="44.1525197" lon="10.4273849"><ele>750.0</ele><time>2026-04-09T07:34:03.976Z</time></trkpt><trkpt lat="44.152466" lon="10.4274348"><ele>750.0</ele><time>2026-04-09T07:34:08Z</time></trkpt><trkpt lat="44.1524004" lon="10.427492"><ele>750.0</ele><time>2026-04-09T07:34:12.969Z</time></trkpt><trkpt lat="44.1523432" lon="10.427571"><ele>750.0</ele><time>2026-04-09T07:34:17.979Z</time></trkpt><trkpt lat="44.1522934" lon="10.4276497"><ele>750.0</ele><time>2026-04-09T07:34:21.966Z</time></trkpt><trkpt lat="44.1522516" lon="10.4277236"><ele>750.0</ele><time>2026-04-09T07:34:25.987Z</time></trkpt><trkpt lat="44.1522188" lon="10.427813"><ele>748.5714285714286</ele><time>2026-04-09T07:34:30.977Z</time></trkpt><trkpt lat="44.1521738" lon="10.4278947"><ele>747.1428571428571</ele><time>2026-04-09T07:34:35.972Z</time></trkpt><trkpt lat="44.1521339" lon="10.427967"><ele>745.7142857142857</ele><time>2026-04-09T07:34:39.989Z</time></trkpt><trkpt lat="44.1521116" lon="10.42805"><ele>744.2857142857142</ele><time>2026-04-09T07:34:43.972Z</time></trkpt><trkpt lat="44.1521814" lon="10.428067"><ele>742.8571428571429</ele><time>2026-04-09T07:34:49.967Z</time></trkpt><trkpt lat="44.1522358" lon="10.4280122"><ele>741.4285714285713</ele><time>2026-04-09T07:34:54.978Z</time></trkpt><trkpt lat="44.1522951" lon="10.4279716"><ele>740.0</ele><time>2026-04-09T07:34:59.987Z</time></trkpt><trkpt lat="44.1523588" lon="10.4279045"><ele>739.9999999999999</ele><time>2026-04-09T07:35:04.975Z</time></trkpt><trkpt lat="44.152419" lon="10.4278564"><ele>740.0</ele><time>2026-04-09T07:35:08.985Z</time></trkpt><trkpt lat="44.1524794" lon="10.4278815"><ele>740.0</ele><time>2026-04-09T07:35:13.983Z</time></trkpt><trkpt lat="44.1524418" lon="10.4279725"><ele>740.0</ele><time>2026-04-09T07:35:18.978Z</time></trkpt><trkpt lat="44.1523823" lon="10.4280229"><ele>740.0</ele><time>2026-04-09T07:35:22.969Z</time></trkpt><trkpt lat="44.1523307" lon="10.4280801"><ele>739.9999999999999</ele><time>2026-04-09T07:35:26.978Z</time></trkpt><trkpt lat="44.1522931" lon="10.4281537"><ele>740.0</ele><time>2026-04-09T07:35:30.982Z</time></trkpt><trkpt lat="44.1522695" lon="10.428236"><ele>739.9999999999999</ele><time>2026-04-09T07:35:34.979Z</time></trkpt><trkpt lat="44.152269" lon="10.4283407"><ele>740.0</ele><time>2026-04-09T07:35:39.97Z</time></trkpt><trkpt lat="44.1523372" lon="10.4283921"><ele>740.0</ele><time>2026-04-09T07:35:43.984Z</time></trkpt><trkpt lat="44.1523394" lon="10.4284824"><ele>740.0</ele><time>2026-04-09T07:35:47.981Z</time></trkpt><trkpt lat="44.1523382" lon="10.428573"><ele>740.0</ele><time>2026-04-09T07:35:51.979Z</time></trkpt><trkpt lat="44.1523804" lon="10.4286636"><ele>739.9999999999999</ele><time>2026-04-09T07:35:56.979Z</time></trkpt><trkpt lat="44.1524214" lon="10.4287412"><ele>740.0</ele><time>2026-04-09T07:36:02.972Z</time></trkpt><trkpt lat="44.1524455" lon="10.4288459"><ele>745.2857142857142</ele><time>2026-04-09T07:36:07.975Z</time></trkpt><trkpt lat="44.152498" lon="10.4288978"><ele>750.5714285714286</ele><time>2026-04-09T07:36:11.985Z</time></trkpt><trkpt lat="44.152435" lon="10.428974"><ele>755.8571428571429</ele><time>2026-04-09T07:36:12.973Z</time></trkpt><trkpt lat="44.1524667" lon="10.4290612"><ele>761.1428571428571</ele><time>2026-04-09T07:36:17.984Z</time></trkpt><trkpt lat="44.1524878" lon="10.4291467"><ele>766.4285714285714</ele><time>2026-04-09T07:36:22.973Z</time></trkpt><trkpt lat="44.1525177" lon="10.4292291"><ele>771.7142857142857</ele><time>2026-04-09T07:36:27.971Z</time></trkpt><trkpt lat="44.1525451" lon="10.4293259"><ele>777.0</ele><time>2026-04-09T07:36:32.968Z</time></trkpt><trkpt lat="44.1525482" lon="10.4294186"><ele>777.0</ele><time>2026-04-09T07:36:36.985Z</time></trkpt><trkpt lat="44.1525599" lon="10.4295166"><ele>777.0</ele><time>2026-04-09T07:36:41.973Z</time></trkpt><trkpt lat="44.1525717" lon="10.4296176"><ele>777.0</ele><time>2026-04-09T07:36:46.975Z</time></trkpt><trkpt lat="44.1525823" lon="10.4297107"><ele>777.0</ele><time>2026-04-09T07:36:51.971Z</time></trkpt><trkpt lat="44.1526018" lon="10.429802"><ele>777.0</ele><time>2026-04-09T07:36:56.978Z</time></trkpt><trkpt lat="44.1526162" lon="10.4299032"><ele>777.0</ele><time>2026-04-09T07:37:01.967Z</time></trkpt><trkpt lat="44.1526133" lon="10.430002"><ele>777.0</ele><time>2026-04-09T07:37:06.969Z</time></trkpt><trkpt lat="44.1526127" lon="10.4300952"><ele>778.1428571428571</ele><time>2026-04-09T07:37:11.974Z</time></trkpt><trkpt lat="44.1526096" lon="10.4301928"><ele>779.2857142857142</ele><time>2026-04-09T07:37:17.973Z</time></trkpt><trkpt lat="44.152582" lon="10.4302835"><ele>780.4285714285714</ele><time>2026-04-09T07:37:22.982Z</time></trkpt><trkpt lat="44.1525563" lon="10.4303744"><ele>781.5714285714286</ele><time>2026-04-09T07:37:28.997Z</time></trkpt><trkpt lat="44.1525217" lon="10.4304596"><ele>782.7142857142857</ele><time>2026-04-09T07:37:35.975Z</time></trkpt><trkpt lat="44.1525236" lon="10.430549"><ele>783.8571428571429</ele><time>2026-04-09T07:37:41.975Z</time></trkpt><trkpt lat="44.1525612" lon="10.4306305"><ele>785.0</ele><time>2026-04-09T07:37:47.969Z</time></trkpt><trkpt lat="44.1526224" lon="10.4306657"><ele>785.2857142857143</ele><time>2026-04-09T07:37:52.974Z</time></trkpt><trkpt lat="44.1526834" lon="10.4307073"><ele>785.5714285714286</ele><time>2026-04-09T07:37:57.978Z</time></trkpt><trkpt lat="44.1527522" lon="10.430746"><ele>785.8571428571429</ele><time>2026-04-09T07:38:03.979Z</time></trkpt><trkpt lat="44.1528106" lon="10.4307835"><ele>786.1428571428571</ele><time>2026-04-09T07:38:08.976Z</time></trkpt><trkpt lat="44.1528705" lon="10.4308234"><ele>786.4285714285713</ele><time>2026-04-09T07:38:13.979Z</time></trkpt><trkpt lat="44.1529355" lon="10.4308619"><ele>786.7142857142857</ele><time>2026-04-09T07:38:18.999Z</time></trkpt><trkpt lat="44.1529955" lon="10.430902"><ele>787.0</ele><time>2026-04-09T07:38:23.979Z</time></trkpt><trkpt lat="44.1530388" lon="10.4309739"><ele>787.0</ele><time>2026-04-09T07:38:29.97Z</time></trkpt><trkpt lat="44.15307" lon="10.4310574"><ele>787.0</ele><time>2026-04-09T07:38:33.975Z</time></trkpt><trkpt lat="44.1531054" lon="10.4311527"><ele>787.0</ele><time>2026-04-09T07:38:38.967Z</time></trkpt><trkpt lat="44.1531447" lon="10.4312362"><ele>787.0</ele><time>2026-04-09T07:38:43.985Z</time></trkpt><trkpt lat="44.1531807" lon="10.4313205"><ele>787.0</ele><time>2026-04-09T07:38:48.978Z</time></trkpt><trkpt lat="44.1532271" lon="10.4313933"><ele>787.0</ele><time>2026-04-09T07:38:53.969Z</time></trkpt><trkpt lat="44.1532816" lon="10.4314564"><ele>787.0</ele><time>2026-04-09T07:38:58.976Z</time></trkpt><trkpt lat="44.1533353" lon="10.4315255"><ele>789.1428571428571</ele><time>2026-04-09T07:39:03.974Z</time></trkpt><trkpt lat="44.1533976" lon="10.4315796"><ele>791.2857142857142</ele><time>2026-04-09T07:39:08.997Z</time></trkpt><trkpt lat="44.1534642" lon="10.4316204"><ele>793.4285714285714</ele><time>2026-04-09T07:39:13.981Z</time></trkpt><trkpt lat="44.1535331" lon="10.4316712"><ele>795.5714285714286</ele><time>2026-04-09T07:39:18.975Z</time></trkpt><trkpt lat="44.1535961" lon="10.4317132"><ele>797.7142857142858</ele><time>2026-04-09T07:39:23.996Z</time></trkpt><trkpt lat="44.1536524" lon="10.4317572"><ele>799.8571428571429</ele><time>2026-04-09T07:39:28.975Z</time></trkpt><trkpt lat="44.1537134" lon="10.4318013"><ele>802.0</ele><time>2026-04-09T07:39:33.971Z</time></trkpt><trkpt lat="44.1537705" lon="10.4318613"><ele>802.0</ele><time>2026-04-09T07:39:38.977Z</time></trkpt><trkpt lat="44.1538327" lon="10.4319248"><ele>802.0</ele><time>2026-04-09T07:39:43.975Z</time></trkpt><trkpt lat="44.1538817" lon="10.4319989"><ele>802.0</ele><time>2026-04-09T07:39:48.976Z</time></trkpt><trkpt lat="44.15393" lon="10.4320826"><ele>802.0</ele><time>2026-04-09T07:39:53.987Z</time></trkpt><trkpt lat="44.1539838" lon="10.4321402"><ele>802.0</ele><time>2026-04-09T07:39:58.976Z</time></trkpt><trkpt lat="44.1540343" lon="10.4321948"><ele>802.0</ele><time>2026-04-09T07:40:02.976Z</time></trkpt><trkpt lat="44.1540965" lon="10.4322432"><ele>802.0</ele><time>2026-04-09T07:40:07.973Z</time></trkpt><trkpt lat="44.1541531" lon="10.4322986"><ele>805.7142857142858</ele><time>2026-04-09T07:40:12.974Z</time></trkpt><trkpt lat="44.154215" lon="10.4323576"><ele>809.4285714285714</ele><time>2026-04-09T07:40:17.993Z</time></trkpt><trkpt lat="44.1542715" lon="10.4324203"><ele>813.1428571428571</ele><time>2026-04-09T07:40:22.982Z</time></trkpt><trkpt lat="44.1543241" lon="10.4324949"><ele>816.8571428571429</ele><time>2026-04-09T07:40:27.97Z</time></trkpt><trkpt lat="44.1543692" lon="10.4325697"><ele>820.5714285714286</ele><time>2026-04-09T07:40:32.969Z</time></trkpt><trkpt lat="44.1543652" lon="10.4326681"><ele>824.2857142857143</ele><time>2026-04-09T07:40:38.986Z</time></trkpt><trkpt lat="44.1543101" lon="10.4327247"><ele>828.0</ele><time>2026-04-09T07:40:43.983Z</time></trkpt><trkpt lat="44.1542458" lon="10.4327619"><ele>828.0000000000001</ele><time>2026-04-09T07:40:48.966Z</time></trkpt><trkpt lat="44.1541825" lon="10.4328011"><ele>828.0</ele><time>2026-04-09T07:40:55.975Z</time></trkpt><trkpt lat="44.1541282" lon="10.4328496"><ele>828.0</ele><time>2026-04-09T07:41:02.987Z</time></trkpt><trkpt lat="44.1540604" lon="10.4328941"><ele>828.0</ele><time>2026-04-09T07:41:07.978Z</time></trkpt><trkpt lat="44.1539897" lon="10.432918"><ele>828.0</ele><time>2026-04-09T07:41:12.979Z</time></trkpt><trkpt lat="44.1539115" lon="10.4329389"><ele>828.0000000000001</ele><time>2026-04-09T07:41:17.973Z</time></trkpt><trkpt lat="44.1538324" lon="10.4329435"><ele>828.0</ele><time>2026-04-09T07:41:22.978Z</time></trkpt><trkpt lat="44.1537616" lon="10.4329596"><ele>829.7142857142858</ele><time>2026-04-09T07:41:26.975Z</time></trkpt><trkpt lat="44.1536909" lon="10.4329794"><ele>831.4285714285714</ele><time>2026-04-09T07:41:31.97Z</time></trkpt><trkpt lat="44.1536243" lon="10.43299"><ele>833.1428571428571</ele><time>2026-04-09T07:41:36.992Z</time></trkpt><trkpt lat="44.1535517" lon="10.4330033"><ele>834.8571428571429</ele><time>2026-04-09T07:41:41.98Z</time></trkpt><trkpt lat="44.153487" lon="10.4330267"><ele>836.5714285714286</ele><time>2026-04-09T07:41:46.982Z</time></trkpt><trkpt lat="44.153424" lon="10.4330512"><ele>838.2857142857143</ele><time>2026-04-09T07:41:50.967Z</time></trkpt><trkpt lat="44.1533502" lon="10.4330785"><ele>840.0</ele><time>2026-04-09T07:41:55.977Z</time></trkpt><trkpt lat="44.1532832" lon="10.4331175"><ele>840.0</ele><time>2026-04-09T07:42:00.979Z</time></trkpt><trkpt lat="44.1532145" lon="10.4331629"><ele>840.0</ele><time>2026-04-09T07:42:05.976Z</time></trkpt><trkpt lat="44.1531548" lon="10.4332148"><ele>840.0</ele><time>2026-04-09T07:42:11.001Z</time></trkpt><trkpt lat="44.1531005" lon="10.4332625"><ele>840.0</ele><time>2026-04-09T07:42:15.996Z</time></trkpt><trkpt lat="44.153047" lon="10.4333246"><ele>840.0</ele><time>2026-04-09T07:42:20.994Z</time></trkpt><trkpt lat="44.1529924" lon="10.4333892"><ele>840.0</ele><time>2026-04-09T07:42:26.975Z</time></trkpt><trkpt lat="44.1529708" lon="10.433472"><ele>840.0</ele><time>2026-04-09T07:42:31.982Z</time></trkpt><trkpt lat="44.1529701" lon="10.4335693"><ele>837.0</ele><time>2026-04-09T07:42:37.984Z</time></trkpt><trkpt lat="44.1529842" lon="10.4336693"><ele>834.0</ele><time>2026-04-09T07:42:43.979Z</time></trkpt><trkpt lat="44.1529978" lon="10.4337551"><ele>831.0</ele><time>2026-04-09T07:42:48.97Z</time></trkpt><trkpt lat="44.1530218" lon="10.4338542"><ele>828.0</ele><time>2026-04-09T07:42:54.983Z</time></trkpt><trkpt lat="44.1530555" lon="10.4339364"><ele>825.0</ele><time>2026-04-09T07:42:59.981Z</time></trkpt><trkpt lat="44.153089" lon="10.4340168"><ele>822.0</ele><time>2026-04-09T07:43:04.976Z</time></trkpt><trkpt lat="44.1531234" lon="10.4340955"><ele>819.0</ele><time>2026-04-09T07:43:09.981Z</time></trkpt><trkpt lat="44.1531625" lon="10.4341668"><ele>823.1428571428571</ele><time>2026-04-09T07:43:14.968Z</time></trkpt><trkpt lat="44.1532085" lon="10.43423"><ele>827.2857142857142</ele><time>2026-04-09T07:43:19.997Z</time></trkpt><trkpt lat="44.1532534" lon="10.4342931"><ele>831.4285714285714</ele><time>2026-04-09T07:43:24.977Z</time></trkpt><trkpt lat="44.1533025" lon="10.4343511"><ele>835.5714285714286</ele><time>2026-04-09T07:43:29.978Z</time></trkpt><trkpt lat="44.1533523" lon="10.4344183"><ele>839.7142857142857</ele><time>2026-04-09T07:43:34.984Z</time></trkpt><trkpt lat="44.1533885" lon="10.4344955"><ele>843.8571428571429</ele><time>2026-04-09T07:43:39.972Z</time></trkpt><trkpt lat="44.1534369" lon="10.4345523"><ele>848.0</ele><time>2026-04-09T07:43:44.978Z</time></trkpt><trkpt lat="44.1534851" lon="10.4346097"><ele>846.4285714285714</ele><time>2026-04-09T07:43:49.974Z</time></trkpt><trkpt lat="44.1535391" lon="10.4346798"><ele>844.8571428571428</ele><time>2026-04-09T07:43:55.982Z</time></trkpt><trkpt lat="44.1535961" lon="10.4347178"><ele>843.2857142857142</ele><time>2026-04-09T07:44:00.985Z</time></trkpt><trkpt lat="44.1536588" lon="10.4347712"><ele>841.7142857142858</ele><time>2026-04-09T07:44:06.977Z</time></trkpt><trkpt lat="44.1537186" lon="10.4348234"><ele>840.1428571428571</ele><time>2026-04-09T07:44:11.981Z</time></trkpt><trkpt lat="44.1537857" lon="10.4348551"><ele>838.5714285714286</ele><time>2026-04-09T07:44:16.97Z</time></trkpt><trkpt lat="44.153848" lon="10.4348927"><ele>837.0</ele><time>2026-04-09T07:44:21.974Z</time></trkpt><trkpt lat="44.1539123" lon="10.4349226"><ele>837.0</ele><time>2026-04-09T07:44:27.965Z</time></trkpt><trkpt lat="44.15398" lon="10.4349469"><ele>837.0</ele><time>2026-04-09T07:44:32.982Z</time></trkpt><trkpt lat="44.1540376" lon="10.4349853"><ele>837.0</ele><time>2026-04-09T07:44:37.987Z</time></trkpt><trkpt lat="44.1541077" lon="10.4349921"><ele>837.0</ele><time>2026-04-09T07:44:42.986Z</time></trkpt><trkpt lat="44.154169" lon="10.4350194"><ele>837.0</ele><time>2026-04-09T07:44:47.978Z</time></trkpt><trkpt lat="44.1542425" lon="10.4350472"><ele>837.0</ele><time>2026-04-09T07:44:53.979Z</time></trkpt><trkpt lat="44.1543041" lon="10.4350697"><ele>837.0</ele><time>2026-04-09T07:44:57.977Z</time></trkpt><trkpt lat="44.1543744" lon="10.4350894"><ele>840.5714285714286</ele><time>2026-04-09T07:45:03.977Z</time></trkpt><trkpt lat="44.1544482" lon="10.4351155"><ele>844.1428571428571</ele><time>2026-04-09T07:45:09.982Z</time></trkpt><trkpt lat="44.1545135" lon="10.4351498"><ele>847.7142857142858</ele><time>2026-04-09T07:45:14.982Z</time></trkpt><trkpt lat="44.1545819" lon="10.4351414"><ele>851.2857142857142</ele><time>2026-04-09T07:45:19.969Z</time></trkpt><trkpt lat="44.1545843" lon="10.4350401"><ele>854.8571428571428</ele><time>2026-04-09T07:45:24.978Z</time></trkpt><trkpt lat="44.1545233" lon="10.4349827"><ele>858.4285714285714</ele><time>2026-04-09T07:45:29.985Z</time></trkpt><trkpt lat="44.154506" lon="10.4348895"><ele>862.0</ele><time>2026-04-09T07:45:34.978Z</time></trkpt><trkpt lat="44.1545723" lon="10.4348705"><ele>862.0</ele><time>2026-04-09T07:45:39.973Z</time></trkpt><trkpt lat="44.1546237" lon="10.4349249"><ele>862.0</ele><time>2026-04-09T07:45:43.983Z</time></trkpt><trkpt lat="44.1546733" lon="10.4349827"><ele>862.0</ele><time>2026-04-09T07:45:47.991Z</time></trkpt><trkpt lat="44.1547276" lon="10.4350511"><ele>862.0</ele><time>2026-04-09T07:45:52.977Z</time></trkpt><trkpt lat="44.1547824" lon="10.4351183"><ele>862.0</ele><time>2026-04-09T07:45:57.98Z</time></trkpt><trkpt lat="44.1548371" lon="10.435164"><ele>862.0</ele><time>2026-04-09T07:46:02.983Z</time></trkpt><trkpt lat="44.1549035" lon="10.4352146"><ele>862.0</ele><time>2026-04-09T07:46:07.983Z</time></trkpt><trkpt lat="44.1549734" lon="10.4352631"><ele>864.2857142857143</ele><time>2026-04-09T07:46:12.975Z</time></trkpt><trkpt lat="44.155044" lon="10.4352856"><ele>866.5714285714286</ele><time>2026-04-09T07:46:17.979Z</time></trkpt><trkpt lat="44.1551063" lon="10.4353204"><ele>868.8571428571429</ele><time>2026-04-09T07:46:22.979Z</time></trkpt><trkpt lat="44.1551741" lon="10.4353687"><ele>871.1428571428571</ele><time>2026-04-09T07:46:28.968Z</time></trkpt><trkpt lat="44.1552459" lon="10.4353965"><ele>873.4285714285713</ele><time>2026-04-09T07:46:33.97Z</time></trkpt><trkpt lat="44.1553091" lon="10.4354454"><ele>875.7142857142857</ele><time>2026-04-09T07:46:38.97Z</time></trkpt><trkpt lat="44.1553817" lon="10.4354677"><ele>878.0</ele><time>2026-04-09T07:46:43.985Z</time></trkpt><trkpt lat="44.155459" lon="10.4355032"><ele>878.0</ele><time>2026-04-09T07:46:48.983Z</time></trkpt><trkpt lat="44.1555208" lon="10.4355314"><ele>878.0</ele><time>2026-04-09T07:46:53.977Z</time></trkpt><trkpt lat="44.1555817" lon="10.4355933"><ele>878.0</ele><time>2026-04-09T07:46:59.992Z</time></trkpt><trkpt lat="44.1556375" lon="10.4356522"><ele>878.0</ele><time>2026-04-09T07:47:05.976Z</time></trkpt><trkpt lat="44.1556534" lon="10.4357514"><ele>878.0</ele><time>2026-04-09T07:47:11.979Z</time></trkpt><trkpt lat="44.1556481" lon="10.4358581"><ele>878.0</ele><time>2026-04-09T07:47:17.981Z</time></trkpt><trkpt lat="44.1556174" lon="10.4359484"><ele>878.0</ele><time>2026-04-09T07:47:23.975Z</time></trkpt><trkpt lat="44.1555913" lon="10.4360444"><ele>878.0</ele><time>2026-04-09T07:47:29.993Z</time></trkpt><trkpt lat="44.1555563" lon="10.4361199"><ele>878.0</ele><time>2026-04-09T07:47:34.978Z</time></trkpt><trkpt lat="44.1555191" lon="10.4362034"><ele>878.0</ele><time>2026-04-09T07:47:39.978Z</time></trkpt><trkpt lat="44.1554769" lon="10.4362849"><ele>878.0</ele><time>2026-04-09T07:47:44.967Z</time></trkpt><trkpt lat="44.1554348" lon="10.4363538"><ele>878.0</ele><time>2026-04-09T07:47:49.999Z</time></trkpt><trkpt lat="44.1554008" lon="10.4364484"><ele>878.0</ele><time>2026-04-09T07:47:54.978Z</time></trkpt><trkpt lat="44.1553605" lon="10.4365183"><ele>878.0</ele><time>2026-04-09T07:47:58.996Z</time></trkpt><trkpt lat="44.1553081" lon="10.4365883"><ele>880.1428571428571</ele><time>2026-04-09T07:48:03.973Z</time></trkpt><trkpt lat="44.1552565" lon="10.4366615"><ele>882.2857142857142</ele><time>2026-04-09T07:48:08.978Z</time></trkpt><trkpt lat="44.1552201" lon="10.4367334"><ele>884.4285714285714</ele><time>2026-04-09T07:48:12.979Z</time></trkpt><trkpt lat="44.1551738" lon="10.4368177"><ele>886.5714285714286</ele><time>2026-04-09T07:48:17.984Z</time></trkpt><trkpt lat="44.155146" lon="10.4369129"><ele>888.7142857142858</ele><time>2026-04-09T07:48:22.973Z</time></trkpt><trkpt lat="44.1551311" lon="10.4370052"><ele>890.8571428571429</ele><time>2026-04-09T07:48:27.979Z</time></trkpt><trkpt lat="44.1551219" lon="10.4371059"><ele>893.0</ele><time>2026-04-09T07:48:32.986Z</time></trkpt><trkpt lat="44.1551052" lon="10.4372036"><ele>895.2857142857143</ele><time>2026-04-09T07:48:37.98Z</time></trkpt><trkpt lat="44.1551022" lon="10.4372992"><ele>897.5714285714287</ele><time>2026-04-09T07:48:42.989Z</time></trkpt><trkpt lat="44.1551085" lon="10.4373915"><ele>899.8571428571429</ele><time>2026-04-09T07:48:47.992Z</time></trkpt><trkpt lat="44.1551261" lon="10.4374901"><ele>902.1428571428571</ele><time>2026-04-09T07:48:52.976Z</time></trkpt><trkpt lat="44.1551849" lon="10.4375478"><ele>904.4285714285714</ele><time>2026-04-09T07:48:58Z</time></trkpt><trkpt lat="44.155259" lon="10.4375641"><ele>906.7142857142857</ele><time>2026-04-09T07:49:02.981Z</time></trkpt><trkpt lat="44.155302" lon="10.4376394"><ele>909.0</ele><time>2026-04-09T07:49:05.977Z</time></trkpt><trkpt lat="44.1553436" lon="10.4375552"><ele>909.0</ele><time>2026-04-09T07:49:09.965Z</time></trkpt><trkpt lat="44.1553965" lon="10.4376191"><ele>909.0</ele><time>2026-04-09T07:49:15.968Z</time></trkpt><trkpt lat="44.1554449" lon="10.4376942"><ele>909.0</ele><time>2026-04-09T07:49:21.976Z</time></trkpt><trkpt lat="44.1554933" lon="10.4377653"><ele>909.0</ele><time>2026-04-09T07:49:28.974Z</time></trkpt><trkpt lat="44.1555465" lon="10.437817"><ele>909.0</ele><time>2026-04-09T07:49:37.971Z</time></trkpt><trkpt lat="44.1556113" lon="10.4378448"><ele>909.0</ele><time>2026-04-09T07:49:42.966Z</time></trkpt><trkpt lat="44.1556748" lon="10.4378677"><ele>909.0</ele><time>2026-04-09T07:49:47.982Z</time></trkpt><trkpt lat="44.1557389" lon="10.4378953"><ele>911.1428571428571</ele><time>2026-04-09T07:49:52.975Z</time></trkpt><trkpt lat="44.1557992" lon="10.4379333"><ele>913.2857142857143</ele><time>2026-04-09T07:49:56.978Z</time></trkpt><trkpt lat="44.1558629" lon="10.437983"><ele>915.4285714285714</ele><time>2026-04-09T07:50:01.972Z</time></trkpt><trkpt lat="44.1559219" lon="10.4380302"><ele>917.5714285714286</ele><time>2026-04-09T07:50:06.974Z</time></trkpt><trkpt lat="44.1559871" lon="10.4380723"><ele>919.7142857142858</ele><time>2026-04-09T07:50:11.969Z</time></trkpt><trkpt lat="44.1560425" lon="10.4381251"><ele>921.8571428571429</ele><time>2026-04-09T07:50:15.977Z</time></trkpt><trkpt lat="44.1561013" lon="10.4381731"><ele>924.0</ele><time>2026-04-09T07:50:19.985Z</time></trkpt><trkpt lat="44.1561628" lon="10.4382414"><ele>924.0</ele><time>2026-04-09T07:50:24.98Z</time></trkpt><trkpt lat="44.1562065" lon="10.4383053"><ele>924.0</ele><time>2026-04-09T07:50:29Z</time></trkpt><trkpt lat="44.156255" lon="10.4383867"><ele>924.0</ele><time>2026-04-09T07:50:33.977Z</time></trkpt><trkpt lat="44.1562951" lon="10.4384787"><ele>924.0</ele><time>2026-04-09T07:50:38.976Z</time></trkpt><trkpt lat="44.1563349" lon="10.4385673"><ele>924.0</ele><time>2026-04-09T07:50:43.965Z</time></trkpt><trkpt lat="44.1563704" lon="10.4386549"><ele>924.0</ele><time>2026-04-09T07:50:48.985Z</time></trkpt><trkpt lat="44.1564093" lon="10.4387354"><ele>924.0</ele><time>2026-04-09T07:50:53.977Z</time></trkpt><trkpt lat="44.1564667" lon="10.4387899"><ele>923.8571428571429</ele><time>2026-04-09T07:50:58.98Z</time></trkpt><trkpt lat="44.1565308" lon="10.4388223"><ele>923.7142857142858</ele><time>2026-04-09T07:51:03.969Z</time></trkpt><trkpt lat="44.1565975" lon="10.438829"><ele>923.5714285714286</ele><time>2026-04-09T07:51:08.976Z</time></trkpt><trkpt lat="44.1566661" lon="10.4388398"><ele>923.4285714285714</ele><time>2026-04-09T07:51:13.987Z</time></trkpt><trkpt lat="44.1567356" lon="10.4388567"><ele>923.2857142857143</ele><time>2026-04-09T07:51:18.99Z</time></trkpt><trkpt lat="44.1568057" lon="10.4388761"><ele>923.1428571428571</ele><time>2026-04-09T07:51:23.987Z</time></trkpt><trkpt lat="44.1568766" lon="10.4388819"><ele>923.0</ele><time>2026-04-09T07:51:28.972Z</time></trkpt><trkpt lat="44.15695" lon="10.4388949"><ele>923.0</ele><time>2026-04-09T07:51:33.981Z</time></trkpt><trkpt lat="44.1570193" lon="10.438921"><ele>923.0</ele><time>2026-04-09T07:51:38.98Z</time></trkpt><trkpt lat="44.1570901" lon="10.4389321"><ele>923.0</ele><time>2026-04-09T07:51:43.977Z</time></trkpt><trkpt lat="44.1571611" lon="10.438946"><ele>923.0</ele><time>2026-04-09T07:51:48.984Z</time></trkpt><trkpt lat="44.1572297" lon="10.4389775"><ele>923.0</ele><time>2026-04-09T07:51:53.991Z</time></trkpt><trkpt lat="44.1572944" lon="10.4390074"><ele>923.0</ele><time>2026-04-09T07:51:58.978Z</time></trkpt><trkpt lat="44.157363" lon="10.439032"><ele>923.0</ele><time>2026-04-09T07:52:03.976Z</time></trkpt><trkpt lat="44.1574261" lon="10.4390612"><ele>925.7142857142857</ele><time>2026-04-09T07:52:08.966Z</time></trkpt><trkpt lat="44.1574939" lon="10.4390874"><ele>928.4285714285716</ele><time>2026-04-09T07:52:13.976Z</time></trkpt><trkpt lat="44.1575595" lon="10.4391125"><ele>931.1428571428572</ele><time>2026-04-09T07:52:18.987Z</time></trkpt><trkpt lat="44.1576283" lon="10.4391398"><ele>933.8571428571429</ele><time>2026-04-09T07:52:23.988Z</time></trkpt><trkpt lat="44.1576941" lon="10.4391641"><ele>936.5714285714287</ele><time>2026-04-09T07:52:28.993Z</time></trkpt><trkpt lat="44.1577601" lon="10.4391932"><ele>939.2857142857144</ele><time>2026-04-09T07:52:33.985Z</time></trkpt><trkpt lat="44.157829" lon="10.4391978"><ele>942.0000000000001</ele><time>2026-04-09T07:52:38.974Z</time></trkpt><trkpt lat="44.157893" lon="10.4391875"><ele>942.0000000000001</ele><time>2026-04-09T07:52:43.971Z</time></trkpt><trkpt lat="44.1579582" lon="10.4391618"><ele>942.0</ele><time>2026-04-09T07:52:48.989Z</time></trkpt><trkpt lat="44.1580313" lon="10.4391599"><ele>942.0000000000001</ele><time>2026-04-09T07:52:53.982Z</time></trkpt><trkpt lat="44.1580991" lon="10.4391761"><ele>942.0000000000001</ele><time>2026-04-09T07:52:58.969Z</time></trkpt><trkpt lat="44.1581723" lon="10.4391828"><ele>942.0</ele><time>2026-04-09T07:53:03.982Z</time></trkpt><trkpt lat="44.1582486" lon="10.439187"><ele>942.0000000000001</ele><time>2026-04-09T07:53:08.985Z</time></trkpt><trkpt lat="44.1583175" lon="10.4391966"><ele>942.0000000000001</ele><time>2026-04-09T07:53:13.985Z</time></trkpt><trkpt lat="44.1583896" lon="10.4392081"><ele>943.7142857142858</ele><time>2026-04-09T07:53:18.984Z</time></trkpt><trkpt lat="44.1584581" lon="10.4392336"><ele>945.4285714285714</ele><time>2026-04-09T07:53:23.989Z</time></trkpt><trkpt lat="44.1585328" lon="10.4392511"><ele>947.1428571428571</ele><time>2026-04-09T07:53:28.993Z</time></trkpt><trkpt lat="44.1586097" lon="10.4392625"><ele>948.8571428571429</ele><time>2026-04-09T07:53:33.988Z</time></trkpt><trkpt lat="44.1586794" lon="10.4392982"><ele>950.5714285714284</ele><time>2026-04-09T07:53:38.973Z</time></trkpt><trkpt lat="44.158746" lon="10.4393244"><ele>952.2857142857142</ele><time>2026-04-09T07:53:43.979Z</time></trkpt><trkpt lat="44.158814" lon="10.4393512"><ele>954.0</ele><time>2026-04-09T07:53:48.979Z</time></trkpt><trkpt lat="44.1588819" lon="10.4393845"><ele>954.0</ele><time>2026-04-09T07:53:53.997Z</time></trkpt><trkpt lat="44.1589533" lon="10.4394195"><ele>953.9999999999999</ele><time>2026-04-09T07:53:58.982Z</time></trkpt><trkpt lat="44.1590151" lon="10.4394801"><ele>954.0</ele><time>2026-04-09T07:54:03.973Z</time></trkpt><trkpt lat="44.1590755" lon="10.4395421"><ele>954.0</ele><time>2026-04-09T07:54:08.977Z</time></trkpt><trkpt lat="44.1591314" lon="10.4396"><ele>953.9999999999999</ele><time>2026-04-09T07:54:13.994Z</time></trkpt><trkpt lat="44.1591941" lon="10.4396606"><ele>954.0</ele><time>2026-04-09T07:54:18.981Z</time></trkpt><trkpt lat="44.1592578" lon="10.4397122"><ele>954.0</ele><time>2026-04-09T07:54:23.983Z</time></trkpt><trkpt lat="44.1593192" lon="10.4397618"><ele>955.0</ele><time>2026-04-09T07:54:28.992Z</time></trkpt><trkpt lat="44.1593885" lon="10.43981"><ele>955.9999999999999</ele><time>2026-04-09T07:54:33.981Z</time></trkpt><trkpt lat="44.1594505" lon="10.4398556"><ele>957.0</ele><time>2026-04-09T07:54:37.984Z</time></trkpt><trkpt lat="44.1595223" lon="10.4398809"><ele>958.0</ele><time>2026-04-09T07:54:41.976Z</time></trkpt><trkpt lat="44.1595905" lon="10.4399005"><ele>958.9999999999999</ele><time>2026-04-09T07:54:45.99Z</time></trkpt><trkpt lat="44.1596571" lon="10.4399378"><ele>960.0</ele><time>2026-04-09T07:54:49.98Z</time></trkpt><trkpt lat="44.1597263" lon="10.4399701"><ele>961.0</ele><time>2026-04-09T07:54:53.976Z</time></trkpt><trkpt lat="44.1597947" lon="10.4399975"><ele>961.0</ele><time>2026-04-09T07:54:57.997Z</time></trkpt><trkpt lat="44.1598544" lon="10.4400451"><ele>960.9999999999999</ele><time>2026-04-09T07:55:01.982Z</time></trkpt><trkpt lat="44.1599187" lon="10.4400912"><ele>961.0</ele><time>2026-04-09T07:55:05.985Z</time></trkpt><trkpt lat="44.1599737" lon="10.4401516"><ele>961.0</ele><time>2026-04-09T07:55:09.986Z</time></trkpt><trkpt lat="44.1600182" lon="10.4402212"><ele>960.9999999999999</ele><time>2026-04-09T07:55:13.975Z</time></trkpt><trkpt lat="44.1600652" lon="10.4402927"><ele>961.0</ele><time>2026-04-09T07:55:17.986Z</time></trkpt><trkpt lat="44.1601107" lon="10.4403774"><ele>961.0</ele><time>2026-04-09T07:55:21.975Z</time></trkpt><trkpt lat="44.1601601" lon="10.4404595"><ele>962.0</ele><time>2026-04-09T07:55:25.978Z</time></trkpt><trkpt lat="44.1602063" lon="10.4405363"><ele>962.9999999999999</ele><time>2026-04-09T07:55:29.981Z</time></trkpt><trkpt lat="44.1602477" lon="10.4406199"><ele>964.0</ele><time>2026-04-09T07:55:33.978Z</time></trkpt><trkpt lat="44.1603022" lon="10.4406888"><ele>965.0</ele><time>2026-04-09T07:55:37.978Z</time></trkpt><trkpt lat="44.1603654" lon="10.4407465"><ele>965.9999999999999</ele><time>2026-04-09T07:55:41.986Z</time></trkpt><trkpt lat="44.1604336" lon="10.4407984"><ele>967.0</ele><time>2026-04-09T07:55:45.977Z</time></trkpt><trkpt lat="44.1604965" lon="10.440855"><ele>968.0</ele><time>2026-04-09T07:55:49.975Z</time></trkpt><trkpt lat="44.160552" lon="10.4408971"><ele>968.0</ele><time>2026-04-09T07:55:53.976Z</time></trkpt><trkpt lat="44.1606143" lon="10.4409334"><ele>967.9999999999999</ele><time>2026-04-09T07:55:57.989Z</time></trkpt><trkpt lat="44.1606855" lon="10.4409721"><ele>968.0</ele><time>2026-04-09T07:56:01.985Z</time></trkpt><trkpt lat="44.1607468" lon="10.4410106"><ele>968.0</ele><time>2026-04-09T07:56:04.982Z</time></trkpt><trkpt lat="44.1608111" lon="10.4410463"><ele>967.9999999999999</ele><time>2026-04-09T07:56:07.98Z</time></trkpt><trkpt lat="44.1608872" lon="10.4410716"><ele>968.0</ele><time>2026-04-09T07:56:10.983Z</time></trkpt><trkpt lat="44.1609746" lon="10.4411043"><ele>968.0</ele><time>2026-04-09T07:56:13.993Z</time></trkpt><trkpt lat="44.1610421" lon="10.4411421"><ele>966.0000000000001</ele><time>2026-04-09T07:56:15.977Z</time></trkpt><trkpt lat="44.1611097" lon="10.4411791"><ele>964.0</ele><time>2026-04-09T07:56:17.997Z</time></trkpt><trkpt lat="44.1611783" lon="10.4412075"><ele>962.0</ele><time>2026-04-09T07:56:19.977Z</time></trkpt><trkpt lat="44.1612425" lon="10.4412385"><ele>960.0</ele><time>2026-04-09T07:56:21.978Z</time></trkpt><trkpt lat="44.1613225" lon="10.4412714"><ele>958.0000000000001</ele><time>2026-04-09T07:56:24.992Z</time></trkpt><trkpt lat="44.1613927" lon="10.4413062"><ele>956.0</ele><time>2026-04-09T07:56:28.978Z</time></trkpt><trkpt lat="44.1614676" lon="10.4413454"><ele>958.2857142857144</ele><time>2026-04-09T07:56:33.978Z</time></trkpt><trkpt lat="44.1615334" lon="10.441378"><ele>960.5714285714287</ele><time>2026-04-09T07:56:37.976Z</time></trkpt><trkpt lat="44.1615974" lon="10.4414063"><ele>962.8571428571429</ele><time>2026-04-09T07:56:41.982Z</time></trkpt><trkpt lat="44.1616608" lon="10.4414227"><ele>965.1428571428572</ele><time>2026-04-09T07:56:45.978Z</time></trkpt><trkpt lat="44.161737" lon="10.4414424"><ele>967.4285714285716</ele><time>2026-04-09T07:56:50.978Z</time></trkpt><trkpt lat="44.1618046" lon="10.4414595"><ele>969.7142857142857</ele><time>2026-04-09T07:56:55.991Z</time></trkpt><trkpt lat="44.1618709" lon="10.4414689"><ele>972.0</ele><time>2026-04-09T07:56:59.978Z</time></trkpt><trkpt lat="44.1619394" lon="10.4414826"><ele>972.0</ele><time>2026-04-09T07:57:03.978Z</time></trkpt><trkpt lat="44.1620095" lon="10.4414964"><ele>972.0</ele><time>2026-04-09T07:57:07.969Z</time></trkpt><trkpt lat="44.1620791" lon="10.4415256"><ele>972.0</ele><time>2026-04-09T07:57:11.982Z</time></trkpt><trkpt lat="44.1621457" lon="10.4415442"><ele>972.0</ele><time>2026-04-09T07:57:15.991Z</time></trkpt><trkpt lat="44.162216" lon="10.4415611"><ele>972.0</ele><time>2026-04-09T07:57:20.98Z</time></trkpt><trkpt lat="44.1622796" lon="10.4415885"><ele>972.0</ele><time>2026-04-09T07:57:25.98Z</time></trkpt><trkpt lat="44.1623438" lon="10.441619"><ele>972.0</ele><time>2026-04-09T07:57:30.971Z</time></trkpt><trkpt lat="44.162404" lon="10.4416495"><ele>973.8571428571429</ele><time>2026-04-09T07:57:34.995Z</time></trkpt><trkpt lat="44.162461" lon="10.4416913"><ele>975.7142857142858</ele><time>2026-04-09T07:57:38.99Z</time></trkpt><trkpt lat="44.1625265" lon="10.4417411"><ele>977.5714285714287</ele><time>2026-04-09T07:57:43.973Z</time></trkpt><trkpt lat="44.1625895" lon="10.4417894"><ele>979.4285714285714</ele><time>2026-04-09T07:57:48.979Z</time></trkpt><trkpt lat="44.1626482" lon="10.4418405"><ele>981.2857142857144</ele><time>2026-04-09T07:57:53.978Z</time></trkpt><trkpt lat="44.1627052" lon="10.4418947"><ele>983.1428571428572</ele><time>2026-04-09T07:57:58.985Z</time></trkpt><trkpt lat="44.162778" lon="10.4419329"><ele>985.0</ele><time>2026-04-09T07:58:03.986Z</time></trkpt><trkpt lat="44.1628412" lon="10.441983"><ele>985.0</ele><time>2026-04-09T07:58:08.976Z</time></trkpt><trkpt lat="44.162904" lon="10.4420135"><ele>985.0000000000001</ele><time>2026-04-09T07:58:13.98Z</time></trkpt><trkpt lat="44.1629793" lon="10.4420111"><ele>985.0</ele><time>2026-04-09T07:58:18.981Z</time></trkpt><trkpt lat="44.1630512" lon="10.4420285"><ele>985.0</ele><time>2026-04-09T07:58:24.97Z</time></trkpt><trkpt lat="44.1631219" lon="10.4420366"><ele>985.0000000000001</ele><time>2026-04-09T07:58:29.978Z</time></trkpt><trkpt lat="44.1631878" lon="10.4420456"><ele>985.0</ele><time>2026-04-09T07:58:34.974Z</time></trkpt><trkpt lat="44.1632532" lon="10.442043"><ele>985.0</ele><time>2026-04-09T07:58:39.981Z</time></trkpt><trkpt lat="44.163325" lon="10.4420339"><ele>985.4285714285714</ele><time>2026-04-09T07:58:44.975Z</time></trkpt><trkpt lat="44.1633992" lon="10.4420211"><ele>985.8571428571429</ele><time>2026-04-09T07:58:49.98Z</time></trkpt><trkpt lat="44.1634653" lon="10.4420281"><ele>986.2857142857143</ele><time>2026-04-09T07:58:54.972Z</time></trkpt><trkpt lat="44.1635307" lon="10.4420357"><ele>986.7142857142858</ele><time>2026-04-09T07:58:58.981Z</time></trkpt><trkpt lat="44.1635947" lon="10.4420416"><ele>987.1428571428571</ele><time>2026-04-09T07:59:02.981Z</time></trkpt><trkpt lat="44.1636692" lon="10.4420369"><ele>987.5714285714287</ele><time>2026-04-09T07:59:07.992Z</time></trkpt><trkpt lat="44.1637406" lon="10.4420279"><ele>988.0</ele><time>2026-04-09T07:59:12.977Z</time></trkpt><trkpt lat="44.1638086" lon="10.4419996"><ele>988.0</ele><time>2026-04-09T07:59:17.99Z</time></trkpt><trkpt lat="44.1638837" lon="10.441982"><ele>988.0</ele><time>2026-04-09T07:59:22.984Z</time></trkpt><trkpt lat="44.1639519" lon="10.4419576"><ele>988.0</ele><time>2026-04-09T07:59:27.991Z</time></trkpt><trkpt lat="44.1640234" lon="10.4419553"><ele>988.0</ele><time>2026-04-09T07:59:32.992Z</time></trkpt><trkpt lat="44.164086" lon="10.4419756"><ele>988.0</ele><time>2026-04-09T07:59:37.977Z</time></trkpt><trkpt lat="44.1641529" lon="10.4420101"><ele>988.0</ele><time>2026-04-09T07:59:42.999Z</time></trkpt><trkpt lat="44.1642115" lon="10.4420545"><ele>988.0</ele><time>2026-04-09T07:59:47.985Z</time></trkpt><trkpt lat="44.1642793" lon="10.4421078"><ele>995.8571428571429</ele><time>2026-04-09T07:59:52.978Z</time></trkpt><trkpt lat="44.1643416" lon="10.442162"><ele>1003.7142857142857</ele><time>2026-04-09T07:59:57.976Z</time></trkpt><trkpt lat="44.1644009" lon="10.442217"><ele>1011.5714285714286</ele><time>2026-04-09T08:00:03.981Z</time></trkpt><trkpt lat="44.1644608" lon="10.4422628"><ele>1019.4285714285714</ele><time>2026-04-09T08:00:08.971Z</time></trkpt><trkpt lat="44.164522" lon="10.4422969"><ele>1027.2857142857142</ele><time>2026-04-09T08:00:13.981Z</time></trkpt><trkpt lat="44.1645892" lon="10.4423275"><ele>1035.142857142857</ele><time>2026-04-09T08:00:18.984Z</time></trkpt><trkpt lat="44.1646536" lon="10.4423233"><ele>1043.0</ele><time>2026-04-09T08:00:22.966Z</time></trkpt><trkpt lat="44.1647217" lon="10.4423015"><ele>1043.0</ele><time>2026-04-09T08:00:26.986Z</time></trkpt><trkpt lat="44.164796" lon="10.4422685"><ele>1043.0</ele><time>2026-04-09T08:00:31.999Z</time></trkpt><trkpt lat="44.1648609" lon="10.442238"><ele>1043.0</ele><time>2026-04-09T08:00:36.984Z</time></trkpt><trkpt lat="44.1649322" lon="10.4421963"><ele>1043.0</ele><time>2026-04-09T08:00:41.979Z</time></trkpt><trkpt lat="44.1650066" lon="10.4421858"><ele>1043.0</ele><time>2026-04-09T08:00:46.972Z</time></trkpt><trkpt lat="44.1650752" lon="10.4421907"><ele>1043.0</ele><time>2026-04-09T08:00:51.972Z</time></trkpt><trkpt lat="44.1651438" lon="10.442212"><ele>1043.0</ele><time>2026-04-09T08:00:56.977Z</time></trkpt><trkpt lat="44.1652172" lon="10.4422105"><ele>1042.5714285714287</ele><time>2026-04-09T08:01:01.975Z</time></trkpt><trkpt lat="44.1652975" lon="10.4422042"><ele>1042.142857142857</ele><time>2026-04-09T08:01:06.989Z</time></trkpt><trkpt lat="44.1653723" lon="10.4421896"><ele>1041.7142857142858</ele><time>2026-04-09T08:01:11.975Z</time></trkpt><trkpt lat="44.1654484" lon="10.4421796"><ele>1041.2857142857142</ele><time>2026-04-09T08:01:16.978Z</time></trkpt><trkpt lat="44.1655142" lon="10.4421739"><ele>1040.857142857143</ele><time>2026-04-09T08:01:20.976Z</time></trkpt><trkpt lat="44.1655849" lon="10.4421911"><ele>1040.4285714285716</ele><time>2026-04-09T08:01:25.989Z</time></trkpt><trkpt lat="44.1656446" lon="10.4422398"><ele>1040.0</ele><time>2026-04-09T08:01:29.975Z</time></trkpt><trkpt lat="44.1656876" lon="10.4423085"><ele>1040.0000000000002</ele><time>2026-04-09T08:01:33.968Z</time></trkpt><trkpt lat="44.1657228" lon="10.4423997"><ele>1040.0</ele><time>2026-04-09T08:01:38.976Z</time></trkpt><trkpt lat="44.1657073" lon="10.4425021"><ele>1040.0</ele><time>2026-04-09T08:01:43.975Z</time></trkpt><trkpt lat="44.1656695" lon="10.4425877"><ele>1040.0</ele><time>2026-04-09T08:01:48.977Z</time></trkpt><trkpt lat="44.1656297" lon="10.4426809"><ele>1040.0</ele><time>2026-04-09T08:01:53.978Z</time></trkpt><trkpt lat="44.1655971" lon="10.4427657"><ele>1040.0000000000002</ele><time>2026-04-09T08:01:57.973Z</time></trkpt><trkpt lat="44.165566" lon="10.4428483"><ele>1040.0</ele><time>2026-04-09T08:02:01.985Z</time></trkpt><trkpt lat="44.1655369" lon="10.4429428"><ele>1044.0000000000002</ele><time>2026-04-09T08:02:05.978Z</time></trkpt><trkpt lat="44.1655001" lon="10.4430375"><ele>1048.0</ele><time>2026-04-09T08:02:09.994Z</time></trkpt><trkpt lat="44.1654652" lon="10.4431286"><ele>1052.0</ele><time>2026-04-09T08:02:13.996Z</time></trkpt><trkpt lat="44.1654208" lon="10.443215"><ele>1056.0</ele><time>2026-04-09T08:02:17.98Z</time></trkpt><trkpt lat="44.1653796" lon="10.4433117"><ele>1060.0</ele><time>2026-04-09T08:02:21.974Z</time></trkpt><trkpt lat="44.1653488" lon="10.4433927"><ele>1064.0000000000002</ele><time>2026-04-09T08:02:25.988Z</time></trkpt><trkpt lat="44.1653274" lon="10.4434834"><ele>1068.0</ele><time>2026-04-09T08:02:29.979Z</time></trkpt><trkpt lat="44.1653401" lon="10.4435835"><ele>1068.0000000000002</ele><time>2026-04-09T08:02:33.989Z</time></trkpt><trkpt lat="44.165345" lon="10.4436909"><ele>1068.0</ele><time>2026-04-09T08:02:37.965Z</time></trkpt><trkpt lat="44.1653471" lon="10.4437811"><ele>1068.0</ele><time>2026-04-09T08:02:40.993Z</time></trkpt><trkpt lat="44.1653476" lon="10.4438862"><ele>1068.0</ele><time>2026-04-09T08:02:44.984Z</time></trkpt><trkpt lat="44.1653434" lon="10.443997"><ele>1068.0</ele><time>2026-04-09T08:02:48.97Z</time></trkpt><trkpt lat="44.1653418" lon="10.4440951"><ele>1068.0000000000002</ele><time>2026-04-09T08:02:52.971Z</time></trkpt><trkpt lat="44.1653464" lon="10.4441978"><ele>1068.0</ele><time>2026-04-09T08:02:56.979Z</time></trkpt><trkpt lat="44.1653559" lon="10.4442943"><ele>1069.1428571428573</ele><time>2026-04-09T08:03:00.986Z</time></trkpt><trkpt lat="44.165364" lon="10.4443969"><ele>1070.2857142857142</ele><time>2026-04-09T08:03:04.983Z</time></trkpt><trkpt lat="44.1653733" lon="10.4444999"><ele>1071.4285714285716</ele><time>2026-04-09T08:03:08.98Z</time></trkpt><trkpt lat="44.1653712" lon="10.4445901"><ele>1072.5714285714287</ele><time>2026-04-09T08:03:12.993Z</time></trkpt><trkpt lat="44.1653591" lon="10.4446876"><ele>1073.7142857142858</ele><time>2026-04-09T08:03:16.99Z</time></trkpt><trkpt lat="44.1653632" lon="10.444788"><ele>1074.857142857143</ele><time>2026-04-09T08:03:20.978Z</time></trkpt><trkpt lat="44.1653637" lon="10.4448768"><ele>1076.0</ele><time>2026-04-09T08:03:24.975Z</time></trkpt><trkpt lat="44.1653747" lon="10.4449689"><ele>1076.142857142857</ele><time>2026-04-09T08:03:28.995Z</time></trkpt><trkpt lat="44.1653784" lon="10.4450593"><ele>1076.2857142857144</ele><time>2026-04-09T08:03:32.981Z</time></trkpt><trkpt lat="44.1653755" lon="10.4451714"><ele>1076.4285714285716</ele><time>2026-04-09T08:03:37.978Z</time></trkpt><trkpt lat="44.1653865" lon="10.4452615"><ele>1076.5714285714287</ele><time>2026-04-09T08:03:41.981Z</time></trkpt><trkpt lat="44.1653828" lon="10.445352"><ele>1076.7142857142858</ele><time>2026-04-09T08:03:45.988Z</time></trkpt><trkpt lat="44.1653806" lon="10.4454469"><ele>1076.857142857143</ele><time>2026-04-09T08:03:49.983Z</time></trkpt><trkpt lat="44.1653815" lon="10.4455524"><ele>1077.0</ele><time>2026-04-09T08:03:53.977Z</time></trkpt><trkpt lat="44.1653732" lon="10.4456482"><ele>1077.4285714285713</ele><time>2026-04-09T08:03:57.983Z</time></trkpt><trkpt lat="44.1653657" lon="10.4457496"><ele>1077.857142857143</ele><time>2026-04-09T08:04:01.998Z</time></trkpt><trkpt lat="44.1653617" lon="10.4458499"><ele>1078.2857142857142</ele><time>2026-04-09T08:04:05.993Z</time></trkpt><trkpt lat="44.1653538" lon="10.445937"><ele>1078.7142857142858</ele><time>2026-04-09T08:04:09.987Z</time></trkpt><trkpt lat="44.1653509" lon="10.4460332"><ele>1079.142857142857</ele><time>2026-04-09T08:04:13.986Z</time></trkpt><trkpt lat="44.1653555" lon="10.4461348"><ele>1079.5714285714284</ele><time>2026-04-09T08:04:17.986Z</time></trkpt><trkpt lat="44.1653552" lon="10.4462275"><ele>1080.0</ele><time>2026-04-09T08:04:21.998Z</time></trkpt><trkpt lat="44.1653383" lon="10.4463233"><ele>1080.0</ele><time>2026-04-09T08:04:25.979Z</time></trkpt><trkpt lat="44.1653085" lon="10.4464194"><ele>1080.0</ele><time>2026-04-09T08:04:29.995Z</time></trkpt><trkpt lat="44.1652942" lon="10.4465174"><ele>1080.0</ele><time>2026-04-09T08:04:33.983Z</time></trkpt><trkpt lat="44.1652686" lon="10.4466109"><ele>1080.0</ele><time>2026-04-09T08:04:37.986Z</time></trkpt><trkpt lat="44.1652538" lon="10.4467039"><ele>1080.0</ele><time>2026-04-09T08:04:41.982Z</time></trkpt><trkpt lat="44.1652445" lon="10.4468057"><ele>1080.0</ele><time>2026-04-09T08:04:45.986Z</time></trkpt><trkpt lat="44.1652314" lon="10.4469007"><ele>1080.0</ele><time>2026-04-09T08:04:49.979Z</time></trkpt><trkpt lat="44.165227" lon="10.4469966"><ele>1080.0</ele><time>2026-04-09T08:04:53.981Z</time></trkpt><trkpt lat="44.1652198" lon="10.4470947"><ele>1080.0</ele><time>2026-04-09T08:04:57.98Z</time></trkpt><trkpt lat="44.1651983" lon="10.4471907"><ele>1080.0</ele><time>2026-04-09T08:05:01.98Z</time></trkpt><trkpt lat="44.1651812" lon="10.447285"><ele>1080.0</ele><time>2026-04-09T08:05:05.974Z</time></trkpt><trkpt lat="44.1651757" lon="10.447392"><ele>1080.0</ele><time>2026-04-09T08:05:09.992Z</time></trkpt><trkpt lat="44.1651692" lon="10.4474884"><ele>1080.0</ele><time>2026-04-09T08:05:13.985Z</time></trkpt><trkpt lat="44.1651548" lon="10.4475782"><ele>1080.0</ele><time>2026-04-09T08:05:17.981Z</time></trkpt><trkpt lat="44.1651587" lon="10.4476769"><ele>1080.2857142857142</ele><time>2026-04-09T08:05:21.974Z</time></trkpt><trkpt lat="44.1651602" lon="10.4477715"><ele>1080.5714285714284</ele><time>2026-04-09T08:05:25.974Z</time></trkpt><trkpt lat="44.1651666" lon="10.4478711"><ele>1080.857142857143</ele><time>2026-04-09T08:05:29.99Z</time></trkpt><trkpt lat="44.165169" lon="10.4479687"><ele>1081.142857142857</ele><time>2026-04-09T08:05:33.968Z</time></trkpt><trkpt lat="44.1651694" lon="10.44808"><ele>1081.4285714285716</ele><time>2026-04-09T08:05:38.981Z</time></trkpt><trkpt lat="44.1651716" lon="10.4481827"><ele>1081.7142857142858</ele><time>2026-04-09T08:05:42.99Z</time></trkpt><trkpt lat="44.1651765" lon="10.4482855"><ele>1082.0</ele><time>2026-04-09T08:05:46.975Z</time></trkpt><trkpt lat="44.1651797" lon="10.4483842"><ele>1081.857142857143</ele><time>2026-04-09T08:05:50.984Z</time></trkpt><trkpt lat="44.1651869" lon="10.4484766"><ele>1081.7142857142858</ele><time>2026-04-09T08:05:54.993Z</time></trkpt><trkpt lat="44.1651956" lon="10.4485762"><ele>1081.5714285714284</ele><time>2026-04-09T08:05:58.974Z</time></trkpt><trkpt lat="44.1651988" lon="10.4486835"><ele>1081.4285714285716</ele><time>2026-04-09T08:06:02.986Z</time></trkpt><trkpt lat="44.1651971" lon="10.4487793"><ele>1081.2857142857142</ele><time>2026-04-09T08:06:06.98Z</time></trkpt><trkpt lat="44.1651985" lon="10.448879"><ele>1081.142857142857</ele><time>2026-04-09T08:06:10.984Z</time></trkpt><trkpt lat="44.1652052" lon="10.4489821"><ele>1081.0</ele><time>2026-04-09T08:06:14.99Z</time></trkpt><trkpt lat="44.1652196" lon="10.449078"><ele>1080.9999999999998</ele><time>2026-04-09T08:06:18.969Z</time></trkpt><trkpt lat="44.1652221" lon="10.449175"><ele>1081.0</ele><time>2026-04-09T08:06:22.979Z</time></trkpt><trkpt lat="44.1652344" lon="10.4492689"><ele>1081.0</ele><time>2026-04-09T08:06:26.978Z</time></trkpt><trkpt lat="44.1652354" lon="10.4493634"><ele>1081.0</ele><time>2026-04-09T08:06:30.98Z</time></trkpt><trkpt lat="44.1652441" lon="10.4494637"><ele>1081.0</ele><time>2026-04-09T08:06:34.971Z</time></trkpt><trkpt lat="44.1652574" lon="10.4495679"><ele>1080.9999999999998</ele><time>2026-04-09T08:06:38.97Z</time></trkpt><trkpt lat="44.1652777" lon="10.4496634"><ele>1081.0</ele><time>2026-04-09T08:06:42.974Z</time></trkpt><trkpt lat="44.1652977" lon="10.4497611"><ele>1081.4285714285713</ele><time>2026-04-09T08:06:46.981Z</time></trkpt><trkpt lat="44.1653274" lon="10.4498478"><ele>1081.857142857143</ele><time>2026-04-09T08:06:50.974Z</time></trkpt><trkpt lat="44.1653602" lon="10.4499308"><ele>1082.2857142857142</ele><time>2026-04-09T08:06:54.967Z</time></trkpt><trkpt lat="44.1653886" lon="10.4500153"><ele>1082.7142857142858</ele><time>2026-04-09T08:06:58.978Z</time></trkpt><trkpt lat="44.1654029" lon="10.45011"><ele>1083.142857142857</ele><time>2026-04-09T08:07:02.982Z</time></trkpt><trkpt lat="44.1654202" lon="10.4502088"><ele>1083.5714285714284</ele><time>2026-04-09T08:07:06.971Z</time></trkpt><trkpt lat="44.1654382" lon="10.4503042"><ele>1084.0</ele><time>2026-04-09T08:07:10.996Z</time></trkpt><trkpt lat="44.1654559" lon="10.4503959"><ele>1084.7142857142858</ele><time>2026-04-09T08:07:14.977Z</time></trkpt><trkpt lat="44.165475" lon="10.4504892"><ele>1085.4285714285716</ele><time>2026-04-09T08:07:18.972Z</time></trkpt><trkpt lat="44.1654867" lon="10.4505808"><ele>1086.1428571428573</ele><time>2026-04-09T08:07:22.976Z</time></trkpt><trkpt lat="44.16551" lon="10.4506706"><ele>1086.857142857143</ele><time>2026-04-09T08:07:26.981Z</time></trkpt><trkpt lat="44.1655219" lon="10.4507666"><ele>1087.5714285714287</ele><time>2026-04-09T08:07:30.983Z</time></trkpt><trkpt lat="44.1655419" lon="10.4508634"><ele>1088.2857142857144</ele><time>2026-04-09T08:07:34.981Z</time></trkpt><trkpt lat="44.1655494" lon="10.4509562"><ele>1089.0</ele><time>2026-04-09T08:07:38.971Z</time></trkpt><trkpt lat="44.1655737" lon="10.4510594"><ele>1089.0000000000002</ele><time>2026-04-09T08:07:43.998Z</time></trkpt><trkpt lat="44.1655919" lon="10.4511521"><ele>1089.0</ele><time>2026-04-09T08:07:47.981Z</time></trkpt><trkpt lat="44.1656121" lon="10.4512504"><ele>1089.0</ele><time>2026-04-09T08:07:51.986Z</time></trkpt><trkpt lat="44.1656279" lon="10.4513525"><ele>1089.0</ele><time>2026-04-09T08:07:56.982Z</time></trkpt><trkpt lat="44.1656498" lon="10.4514483"><ele>1089.0</ele><time>2026-04-09T08:08:00.993Z</time></trkpt><trkpt lat="44.1656681" lon="10.4515477"><ele>1089.0000000000002</ele><time>2026-04-09T08:08:04.991Z</time></trkpt><trkpt lat="44.1656834" lon="10.4516412"><ele>1089.0</ele><time>2026-04-09T08:08:08.98Z</time></trkpt><trkpt lat="44.165697" lon="10.4517356"><ele>1090.1428571428573</ele><time>2026-04-09T08:08:12.969Z</time></trkpt><trkpt lat="44.1657026" lon="10.4518333"><ele>1091.2857142857142</ele><time>2026-04-09T08:08:16.978Z</time></trkpt><trkpt lat="44.16571" lon="10.4519278"><ele>1092.4285714285716</ele><time>2026-04-09T08:08:20.999Z</time></trkpt><trkpt lat="44.165731" lon="10.4520208"><ele>1093.5714285714287</ele><time>2026-04-09T08:08:24.972Z</time></trkpt><trkpt lat="44.1657515" lon="10.4521111"><ele>1094.7142857142858</ele><time>2026-04-09T08:08:28.992Z</time></trkpt><trkpt lat="44.1657782" lon="10.4522084"><ele>1095.857142857143</ele><time>2026-04-09T08:08:32.97Z</time></trkpt><trkpt lat="44.1658195" lon="10.4522989"><ele>1097.0</ele><time>2026-04-09T08:08:36.982Z</time></trkpt><trkpt lat="44.1658609" lon="10.4523874"><ele>1097.2857142857142</ele><time>2026-04-09T08:08:40.986Z</time></trkpt><trkpt lat="44.1658894" lon="10.4524764"><ele>1097.5714285714287</ele><time>2026-04-09T08:08:44.978Z</time></trkpt><trkpt lat="44.1659099" lon="10.4525652"><ele>1097.857142857143</ele><time>2026-04-09T08:08:48.987Z</time></trkpt><trkpt lat="44.1659357" lon="10.4526461"><ele>1098.142857142857</ele><time>2026-04-09T08:08:52.983Z</time></trkpt><trkpt lat="44.1659704" lon="10.4527327"><ele>1098.4285714285716</ele><time>2026-04-09T08:08:56.975Z</time></trkpt><trkpt lat="44.1660023" lon="10.4528209"><ele>1098.7142857142858</ele><time>2026-04-09T08:09:00.969Z</time></trkpt><trkpt lat="44.1660402" lon="10.4529024"><ele>1099.0</ele><time>2026-04-09T08:09:04.978Z</time></trkpt><trkpt lat="44.1660922" lon="10.4529681"><ele>1099.0</ele><time>2026-04-09T08:09:08.98Z</time></trkpt><trkpt lat="44.1661492" lon="10.4530157"><ele>1099.0</ele><time>2026-04-09T08:09:12.977Z</time></trkpt><trkpt lat="44.1662213" lon="10.4530329"><ele>1099.0</ele><time>2026-04-09T08:09:17.977Z</time></trkpt><trkpt lat="44.1662963" lon="10.4530405"><ele>1099.0</ele><time>2026-04-09T08:09:22.995Z</time></trkpt><trkpt lat="44.1663723" lon="10.4530275"><ele>1099.0</ele><time>2026-04-09T08:09:27.987Z</time></trkpt><trkpt lat="44.1664491" lon="10.4529993"><ele>1099.0</ele><time>2026-04-09T08:09:32.979Z</time></trkpt><trkpt lat="44.1665152" lon="10.4529803"><ele>1099.0</ele><time>2026-04-09T08:09:36.983Z</time></trkpt><trkpt lat="44.1665822" lon="10.452955"><ele>1101.7142857142858</ele><time>2026-04-09T08:09:40.979Z</time></trkpt><trkpt lat="44.1666525" lon="10.4529368"><ele>1104.4285714285716</ele><time>2026-04-09T08:09:44.979Z</time></trkpt><trkpt lat="44.1667184" lon="10.4529111"><ele>1107.142857142857</ele><time>2026-04-09T08:09:48.976Z</time></trkpt><trkpt lat="44.1667814" lon="10.4528879"><ele>1109.857142857143</ele><time>2026-04-09T08:09:52.979Z</time></trkpt><trkpt lat="44.1668424" lon="10.4528601"><ele>1112.5714285714287</ele><time>2026-04-09T08:09:56.992Z</time></trkpt><trkpt lat="44.1669186" lon="10.4528534"><ele>1115.2857142857142</ele><time>2026-04-09T08:10:01.975Z</time></trkpt><trkpt lat="44.16699" lon="10.4528557"><ele>1118.0</ele><time>2026-04-09T08:10:05.99Z</time></trkpt><trkpt lat="44.1670693" lon="10.4528523"><ele>1118.0</ele><time>2026-04-09T08:10:10.988Z</time></trkpt><trkpt lat="44.167134" lon="10.4528668"><ele>1118.0</ele><time>2026-04-09T08:10:14.977Z</time></trkpt><trkpt lat="44.1671974" lon="10.4528746"><ele>1118.0</ele><time>2026-04-09T08:10:18.988Z</time></trkpt><trkpt lat="44.1672732" lon="10.4528874"><ele>1118.0</ele><time>2026-04-09T08:10:23.987Z</time></trkpt><trkpt lat="44.1673458" lon="10.452893"><ele>1118.0</ele><time>2026-04-09T08:10:27.984Z</time></trkpt><trkpt lat="44.167415" lon="10.4529086"><ele>1118.0</ele><time>2026-04-09T08:10:31.99Z</time></trkpt><trkpt lat="44.1674829" lon="10.452927"><ele>1118.0</ele><time>2026-04-09T08:10:35.984Z</time></trkpt><trkpt lat="44.167557" lon="10.4529499"><ele>1116.142857142857</ele><time>2026-04-09T08:10:39.984Z</time></trkpt><trkpt lat="44.1676283" lon="10.4529624"><ele>1114.2857142857144</ele><time>2026-04-09T08:10:43.988Z</time></trkpt><trkpt lat="44.1676981" lon="10.4529908"><ele>1112.4285714285716</ele><time>2026-04-09T08:10:47.978Z</time></trkpt><trkpt lat="44.1677629" lon="10.4530249"><ele>1110.5714285714287</ele><time>2026-04-09T08:10:51.986Z</time></trkpt><trkpt lat="44.1678272" lon="10.4530564"><ele>1108.7142857142858</ele><time>2026-04-09T08:10:55.977Z</time></trkpt><trkpt lat="44.1678945" lon="10.4531025"><ele>1106.857142857143</ele><time>2026-04-09T08:11:00.974Z</time></trkpt><trkpt lat="44.1679572" lon="10.4531369"><ele>1105.0</ele><time>2026-04-09T08:11:04.972Z</time></trkpt><trkpt lat="44.1680231" lon="10.4531753"><ele>1105.0</ele><time>2026-04-09T08:11:08.985Z</time></trkpt><trkpt lat="44.1680897" lon="10.453214"><ele>1105.0</ele><time>2026-04-09T08:11:12.989Z</time></trkpt><trkpt lat="44.1681505" lon="10.4532516"><ele>1105.0</ele><time>2026-04-09T08:11:16.99Z</time></trkpt><trkpt lat="44.1682107" lon="10.4532847"><ele>1105.0</ele><time>2026-04-09T08:11:20.981Z</time></trkpt><trkpt lat="44.1682734" lon="10.4533204"><ele>1105.0</ele><time>2026-04-09T08:11:24.986Z</time></trkpt><trkpt lat="44.1683342" lon="10.4533545"><ele>1105.0</ele><time>2026-04-09T08:11:28.98Z</time></trkpt><trkpt lat="44.1683892" lon="10.4533998"><ele>1105.0</ele><time>2026-04-09T08:11:32.979Z</time></trkpt><trkpt lat="44.1684537" lon="10.4534412"><ele>1105.142857142857</ele><time>2026-04-09T08:11:36.983Z</time></trkpt><trkpt lat="44.1685089" lon="10.4534861"><ele>1105.2857142857142</ele><time>2026-04-09T08:11:40.994Z</time></trkpt><trkpt lat="44.1685744" lon="10.4535212"><ele>1105.4285714285716</ele><time>2026-04-09T08:11:44.995Z</time></trkpt><trkpt lat="44.168629" lon="10.4535791"><ele>1105.5714285714284</ele><time>2026-04-09T08:11:49Z</time></trkpt><trkpt lat="44.1686895" lon="10.4536229"><ele>1105.7142857142858</ele><time>2026-04-09T08:11:52.994Z</time></trkpt><trkpt lat="44.1687446" lon="10.4536709"><ele>1105.857142857143</ele><time>2026-04-09T08:11:56.983Z</time></trkpt><trkpt lat="44.1687992" lon="10.4537299"><ele>1106.0</ele><time>2026-04-09T08:12:00.986Z</time></trkpt><trkpt lat="44.1688493" lon="10.4537933"><ele>1106.0</ele><time>2026-04-09T08:12:04.98Z</time></trkpt><trkpt lat="44.1689004" lon="10.4538544"><ele>1106.0</ele><time>2026-04-09T08:12:08.975Z</time></trkpt><trkpt lat="44.1689521" lon="10.4539084"><ele>1106.0</ele><time>2026-04-09T08:12:12.982Z</time></trkpt><trkpt lat="44.1690064" lon="10.4539609"><ele>1106.0</ele><time>2026-04-09T08:12:16.978Z</time></trkpt><trkpt lat="44.1690691" lon="10.4540061"><ele>1106.0</ele><time>2026-04-09T08:12:20.978Z</time></trkpt><trkpt lat="44.1691235" lon="10.4540769"><ele>1106.0</ele><time>2026-04-09T08:12:24.977Z</time></trkpt><trkpt lat="44.1691892" lon="10.4541381"><ele>1106.0</ele><time>2026-04-09T08:12:29.977Z</time></trkpt><trkpt lat="44.1692512" lon="10.4541838"><ele>1110.857142857143</ele><time>2026-04-09T08:12:33.985Z</time></trkpt><trkpt lat="44.1693095" lon="10.4542287"><ele>1115.7142857142858</ele><time>2026-04-09T08:12:37.967Z</time></trkpt><trkpt lat="44.1693748" lon="10.4542791"><ele>1120.5714285714284</ele><time>2026-04-09T08:12:41.99Z</time></trkpt><trkpt lat="44.1694329" lon="10.4543442"><ele>1125.4285714285716</ele><time>2026-04-09T08:12:45.973Z</time></trkpt><trkpt lat="44.1694994" lon="10.4543918"><ele>1130.2857142857142</ele><time>2026-04-09T08:12:50.976Z</time></trkpt><trkpt lat="44.1695618" lon="10.4544422"><ele>1135.142857142857</ele><time>2026-04-09T08:12:54.98Z</time></trkpt><trkpt lat="44.1696206" lon="10.454481"><ele>1140.0</ele><time>2026-04-09T08:12:58.985Z</time></trkpt><trkpt lat="44.1696815" lon="10.4545222"><ele>1140.0</ele><time>2026-04-09T08:13:02.977Z</time></trkpt><trkpt lat="44.1697438" lon="10.4545443"><ele>1140.0</ele><time>2026-04-09T08:13:06.989Z</time></trkpt><trkpt lat="44.1698131" lon="10.4545691"><ele>1140.0</ele><time>2026-04-09T08:13:11.974Z</time></trkpt><trkpt lat="44.1698835" lon="10.4545977"><ele>1140.0</ele><time>2026-04-09T08:13:15.976Z</time></trkpt><trkpt lat="44.1699515" lon="10.4546144"><ele>1140.0</ele><time>2026-04-09T08:13:19.986Z</time></trkpt><trkpt lat="44.1700282" lon="10.4546506"><ele>1140.0</ele><time>2026-04-09T08:13:23.988Z</time></trkpt><trkpt lat="44.1701007" lon="10.4546884"><ele>1140.0</ele><time>2026-04-09T08:13:27.976Z</time></trkpt><trkpt lat="44.1701735" lon="10.4547165"><ele>1139.4285714285713</ele><time>2026-04-09T08:13:31.98Z</time></trkpt><trkpt lat="44.170238" lon="10.4547532"><ele>1138.857142857143</ele><time>2026-04-09T08:13:35.981Z</time></trkpt><trkpt lat="44.1703031" lon="10.4547966"><ele>1138.2857142857142</ele><time>2026-04-09T08:13:39.979Z</time></trkpt><trkpt lat="44.1703608" lon="10.4548398"><ele>1137.7142857142858</ele><time>2026-04-09T08:13:43.985Z</time></trkpt><trkpt lat="44.1704233" lon="10.4548631"><ele>1137.142857142857</ele><time>2026-04-09T08:13:49.982Z</time></trkpt><trkpt lat="44.1704897" lon="10.4548818"><ele>1136.5714285714284</ele><time>2026-04-09T08:13:53.987Z</time></trkpt><trkpt lat="44.1705654" lon="10.4548837"><ele>1136.0</ele><time>2026-04-09T08:13:58.977Z</time></trkpt><trkpt lat="44.1706295" lon="10.4548806"><ele>1139.142857142857</ele><time>2026-04-09T08:14:02.977Z</time></trkpt><trkpt lat="44.1707082" lon="10.4548907"><ele>1142.2857142857142</ele><time>2026-04-09T08:14:07.989Z</time></trkpt><trkpt lat="44.1707712" lon="10.4549053"><ele>1145.4285714285713</ele><time>2026-04-09T08:14:11.988Z</time></trkpt><trkpt lat="44.170835" lon="10.4549079"><ele>1148.5714285714284</ele><time>2026-04-09T08:14:15.973Z</time></trkpt><trkpt lat="44.1708992" lon="10.4549135"><ele>1151.7142857142858</ele><time>2026-04-09T08:14:19.97Z</time></trkpt><trkpt lat="44.1709667" lon="10.4549263"><ele>1154.8571428571427</ele><time>2026-04-09T08:14:23.969Z</time></trkpt><trkpt lat="44.1710387" lon="10.4549431"><ele>1158.0</ele><time>2026-04-09T08:14:27.973Z</time></trkpt><trkpt lat="44.1711128" lon="10.4549508"><ele>1157.9999999999998</ele><time>2026-04-09T08:14:31.969Z</time></trkpt><trkpt lat="44.1711865" lon="10.454938"><ele>1158.0</ele><time>2026-04-09T08:14:35.98Z</time></trkpt><trkpt lat="44.1712538" lon="10.4549096"><ele>1158.0</ele><time>2026-04-09T08:14:39.978Z</time></trkpt><trkpt lat="44.17133" lon="10.4548958"><ele>1158.0</ele><time>2026-04-09T08:14:45.975Z</time></trkpt><trkpt lat="44.1714008" lon="10.4548747"><ele>1158.0</ele><time>2026-04-09T08:14:50.979Z</time></trkpt><trkpt lat="44.1714649" lon="10.4548804"><ele>1157.9999999999998</ele><time>2026-04-09T08:14:54.983Z</time></trkpt><trkpt lat="44.1715386" lon="10.4548906"><ele>1158.0</ele><time>2026-04-09T08:14:58.972Z</time></trkpt><trkpt lat="44.1716065" lon="10.4549257"><ele>1160.5714285714284</ele><time>2026-04-09T08:15:02.979Z</time></trkpt><trkpt lat="44.1716645" lon="10.4549664"><ele>1163.142857142857</ele><time>2026-04-09T08:15:06.973Z</time></trkpt><trkpt lat="44.1717279" lon="10.4550176"><ele>1165.7142857142858</ele><time>2026-04-09T08:15:10.979Z</time></trkpt><trkpt lat="44.1717914" lon="10.4550642"><ele>1168.2857142857142</ele><time>2026-04-09T08:15:14.98Z</time></trkpt><trkpt lat="44.1718526" lon="10.4551123"><ele>1170.857142857143</ele><time>2026-04-09T08:15:18.981Z</time></trkpt><trkpt lat="44.1719191" lon="10.4551607"><ele>1173.4285714285713</ele><time>2026-04-09T08:15:22.978Z</time></trkpt><trkpt lat="44.17198" lon="10.4552017"><ele>1176.0</ele><time>2026-04-09T08:15:26.985Z</time></trkpt><trkpt lat="44.1720365" lon="10.4552469"><ele>1176.0</ele><time>2026-04-09T08:15:30.985Z</time></trkpt><trkpt lat="44.1720899" lon="10.4552951"><ele>1176.0</ele><time>2026-04-09T08:15:34.989Z</time></trkpt><trkpt lat="44.1721557" lon="10.4553507"><ele>1176.0</ele><time>2026-04-09T08:15:39.976Z</time></trkpt><trkpt lat="44.172217" lon="10.4554044"><ele>1176.0</ele><time>2026-04-09T08:15:44.981Z</time></trkpt><trkpt lat="44.1722842" lon="10.455443"><ele>1176.0</ele><time>2026-04-09T08:15:48.982Z</time></trkpt><trkpt lat="44.1723446" lon="10.4554873"><ele>1176.0</ele><time>2026-04-09T08:15:52.985Z</time></trkpt><trkpt lat="44.1724054" lon="10.4555349"><ele>1176.0</ele><time>2026-04-09T08:15:56.979Z</time></trkpt><trkpt lat="44.1724666" lon="10.4555861"><ele>1175.4285714285713</ele><time>2026-04-09T08:16:00.974Z</time></trkpt><trkpt lat="44.1725302" lon="10.4556248"><ele>1174.857142857143</ele><time>2026-04-09T08:16:04.979Z</time></trkpt><trkpt lat="44.1725869" lon="10.4556698"><ele>1174.2857142857142</ele><time>2026-04-09T08:16:08.983Z</time></trkpt><trkpt lat="44.1726488" lon="10.4556999"><ele>1173.7142857142858</ele><time>2026-04-09T08:16:12.986Z</time></trkpt><trkpt lat="44.1727178" lon="10.4557274"><ele>1173.142857142857</ele><time>2026-04-09T08:16:16.976Z</time></trkpt><trkpt lat="44.1727787" lon="10.4557526"><ele>1172.5714285714284</ele><time>2026-04-09T08:16:20.992Z</time></trkpt><trkpt lat="44.1728401" lon="10.4557863"><ele>1172.0</ele><time>2026-04-09T08:16:24.975Z</time></trkpt><trkpt lat="44.1729166" lon="10.4558171"><ele>1171.9999999999998</ele><time>2026-04-09T08:16:29.975Z</time></trkpt><trkpt lat="44.1729806" lon="10.4558409"><ele>1172.0</ele><time>2026-04-09T08:16:33.972Z</time></trkpt><trkpt lat="44.1730514" lon="10.4558765"><ele>1172.0</ele><time>2026-04-09T08:16:37.976Z</time></trkpt><trkpt lat="44.1731229" lon="10.45592"><ele>1172.0</ele><time>2026-04-09T08:16:41.978Z</time></trkpt><trkpt lat="44.1731961" lon="10.4559821"><ele>1172.0</ele><time>2026-04-09T08:16:45.975Z</time></trkpt><trkpt lat="44.1732564" lon="10.4560299"><ele>1171.9999999999998</ele><time>2026-04-09T08:16:48.985Z</time></trkpt><trkpt lat="44.173313" lon="10.4560779"><ele>1172.0</ele><time>2026-04-09T08:16:51.981Z</time></trkpt><trkpt lat="44.1733697" lon="10.4561167"><ele>1171.4285714285713</ele><time>2026-04-09T08:16:54.978Z</time></trkpt><trkpt lat="44.1734263" lon="10.456165"><ele>1170.857142857143</ele><time>2026-04-09T08:16:57.98Z</time></trkpt><trkpt lat="44.1734893" lon="10.4562265"><ele>1170.2857142857142</ele><time>2026-04-09T08:17:01.974Z</time></trkpt><trkpt lat="44.173556" lon="10.4562808"><ele>1169.7142857142858</ele><time>2026-04-09T08:17:05.967Z</time></trkpt><trkpt lat="44.1736206" lon="10.4563508"><ele>1169.142857142857</ele><time>2026-04-09T08:17:09.965Z</time></trkpt><trkpt lat="44.1736867" lon="10.4564087"><ele>1168.5714285714284</ele><time>2026-04-09T08:17:13.977Z</time></trkpt><trkpt lat="44.1737442" lon="10.4564561"><ele>1168.0</ele><time>2026-04-09T08:17:16.972Z</time></trkpt><trkpt lat="44.173799" lon="10.4565007"><ele>1168.0</ele><time>2026-04-09T08:17:19.971Z</time></trkpt><trkpt lat="44.1738542" lon="10.4565592"><ele>1168.0</ele><time>2026-04-09T08:17:22.968Z</time></trkpt><trkpt lat="44.1739075" lon="10.456608"><ele>1168.0</ele><time>2026-04-09T08:17:25.97Z</time></trkpt><trkpt lat="44.1739666" lon="10.4566841"><ele>1168.0</ele><time>2026-04-09T08:17:29.977Z</time></trkpt><trkpt lat="44.174018" lon="10.4567449"><ele>1168.0</ele><time>2026-04-09T08:17:32.976Z</time></trkpt><trkpt lat="44.1740861" lon="10.4568131"><ele>1168.0</ele><time>2026-04-09T08:17:36.98Z</time></trkpt><trkpt lat="44.1741364" lon="10.4568712"><ele>1168.0</ele><time>2026-04-09T08:17:39.974Z</time></trkpt><trkpt lat="44.1741844" lon="10.4569281"><ele>1170.8333333333333</ele><time>2026-04-09T08:17:42.983Z</time></trkpt><trkpt lat="44.1742451" lon="10.4569986"><ele>1173.6666666666665</ele><time>2026-04-09T08:17:46.979Z</time></trkpt><trkpt lat="44.174304" lon="10.4570714"><ele>1176.5</ele><time>2026-04-09T08:17:50.968Z</time></trkpt><trkpt lat="44.1743592" lon="10.4571497"><ele>1179.3333333333333</ele><time>2026-04-09T08:17:54.985Z</time></trkpt><trkpt lat="44.1744131" lon="10.4572275"><ele>1182.1666666666667</ele><time>2026-04-09T08:17:58.981Z</time></trkpt><trkpt lat="44.1744648" lon="10.4573015"><ele>1185.0</ele><time>2026-04-09T08:18:02.98Z</time></trkpt><trkpt lat="44.1745126" lon="10.4573928"><ele>1185.0</ele><time>2026-04-09T08:18:06.997Z</time></trkpt><trkpt lat="44.1745523" lon="10.4574899"><ele>1185.0</ele><time>2026-04-09T08:18:10.967Z</time></trkpt><trkpt lat="44.1745961" lon="10.4575797"><ele>1185.0</ele><time>2026-04-09T08:18:14.976Z</time></trkpt><trkpt lat="44.1746402" lon="10.4576723"><ele>1185.0</ele><time>2026-04-09T08:18:18.981Z</time></trkpt><trkpt lat="44.1746895" lon="10.457758"><ele>1185.0</ele><time>2026-04-09T08:18:22.981Z</time></trkpt><trkpt lat="44.1747279" lon="10.4578575"><ele>1185.0</ele><time>2026-04-09T08:18:26.978Z</time></trkpt><trkpt lat="44.1747522" lon="10.4579401"><ele>1182.3333333333333</ele><time>2026-04-09T08:18:29.974Z</time></trkpt><trkpt lat="44.1747927" lon="10.4580427"><ele>1179.6666666666667</ele><time>2026-04-09T08:18:33.989Z</time></trkpt><trkpt lat="44.1748138" lon="10.4581459"><ele>1177.0</ele><time>2026-04-09T08:18:37.977Z</time></trkpt><trkpt lat="44.1748337" lon="10.4582487"><ele>1174.3333333333335</ele><time>2026-04-09T08:18:41.976Z</time></trkpt><trkpt lat="44.174854" lon="10.4583333"><ele>1171.6666666666667</ele><time>2026-04-09T08:18:44.97Z</time></trkpt><trkpt lat="44.1748839" lon="10.4584312"><ele>1169.0</ele><time>2026-04-09T08:18:48.977Z</time></trkpt><trkpt lat="44.1749216" lon="10.4585245"><ele>1174.7142857142858</ele><time>2026-04-09T08:18:52.971Z</time></trkpt><trkpt lat="44.174946" lon="10.4586063"><ele>1180.4285714285716</ele><time>2026-04-09T08:18:55.984Z</time></trkpt><trkpt lat="44.1749561" lon="10.458693"><ele>1186.142857142857</ele><time>2026-04-09T08:18:58.99Z</time></trkpt><trkpt lat="44.1749773" lon="10.4587798"><ele>1191.857142857143</ele><time>2026-04-09T08:19:01.986Z</time></trkpt><trkpt lat="44.1750088" lon="10.4588844"><ele>1197.5714285714287</ele><time>2026-04-09T08:19:05.974Z</time></trkpt><trkpt lat="44.1750471" lon="10.458978"><ele>1203.2857142857142</ele><time>2026-04-09T08:19:09.979Z</time></trkpt><trkpt lat="44.1750963" lon="10.4590697"><ele>1209.0</ele><time>2026-04-09T08:19:13.98Z</time></trkpt><trkpt lat="44.1751359" lon="10.4591392"><ele>1209.0</ele><time>2026-04-09T08:19:16.972Z</time></trkpt><trkpt lat="44.1751744" lon="10.4592132"><ele>1209.0</ele><time>2026-04-09T08:19:19.988Z</time></trkpt><trkpt lat="44.1752237" lon="10.4593016"><ele>1209.0</ele><time>2026-04-09T08:19:23.973Z</time></trkpt><trkpt lat="44.1752511" lon="10.4593916"><ele>1209.0</ele><time>2026-04-09T08:19:26.997Z</time></trkpt><trkpt lat="44.1752761" lon="10.4595094"><ele>1209.0</ele><time>2026-04-09T08:19:30Z</time></trkpt><trkpt lat="44.1752979" lon="10.4595971"><ele>1209.0</ele><time>2026-04-09T08:19:31.975Z</time></trkpt><trkpt lat="44.1753251" lon="10.4596823"><ele>1209.0</ele><time>2026-04-09T08:19:33.977Z</time></trkpt><trkpt lat="44.1753576" lon="10.4597776"><ele>1205.6666666666667</ele><time>2026-04-09T08:19:35.978Z</time></trkpt><trkpt lat="44.175391" lon="10.4598831"><ele>1202.3333333333333</ele><time>2026-04-09T08:19:37.972Z</time></trkpt><trkpt lat="44.1754203" lon="10.4599973"><ele>1199.0</ele><time>2026-04-09T08:19:39.983Z</time></trkpt><trkpt lat="44.1754504" lon="10.4601152"><ele>1195.6666666666665</ele><time>2026-04-09T08:19:41.966Z</time></trkpt><trkpt lat="44.1754699" lon="10.4602358"><ele>1192.3333333333333</ele><time>2026-04-09T08:19:43.976Z</time></trkpt><trkpt lat="44.1754644" lon="10.4603537"><ele>1189.0</ele><time>2026-04-09T08:19:45.981Z</time></trkpt><trkpt lat="44.1754412" lon="10.4604673"><ele>1188.1666666666665</ele><time>2026-04-09T08:19:47.976Z</time></trkpt><trkpt lat="44.175412" lon="10.4605751"><ele>1187.3333333333333</ele><time>2026-04-09T08:19:49.98Z</time></trkpt><trkpt lat="44.1753811" lon="10.4606785"><ele>1186.5</ele><time>2026-04-09T08:19:51.987Z</time></trkpt><trkpt lat="44.1753535" lon="10.4607828"><ele>1185.6666666666667</ele><time>2026-04-09T08:19:53.978Z</time></trkpt><trkpt lat="44.1753322" lon="10.4608809"><ele>1184.8333333333335</ele><time>2026-04-09T08:19:55.981Z</time></trkpt><trkpt lat="44.1753282" lon="10.4609803"><ele>1184.0</ele><time>2026-04-09T08:19:57.975Z</time></trkpt><trkpt lat="44.1753318" lon="10.4610813"><ele>1184.0</ele><time>2026-04-09T08:19:59.994Z</time></trkpt><trkpt lat="44.1753418" lon="10.4611848"><ele>1184.0</ele><time>2026-04-09T08:20:01.987Z</time></trkpt><trkpt lat="44.1753526" lon="10.4612896"><ele>1184.0</ele><time>2026-04-09T08:20:03.978Z</time></trkpt><trkpt lat="44.175362" lon="10.4613992"><ele>1184.0</ele><time>2026-04-09T08:20:05.978Z</time></trkpt><trkpt lat="44.1754121" lon="10.4614903"><ele>1184.0</ele><time>2026-04-09T08:20:07.976Z</time></trkpt><trkpt lat="44.1755004" lon="10.4615158"><ele>1184.0</ele><time>2026-04-09T08:20:09.976Z</time></trkpt><trkpt lat="44.1755969" lon="10.4615247"><ele>1186.8333333333335</ele><time>2026-04-09T08:20:11.974Z</time></trkpt><trkpt lat="44.1757066" lon="10.4615335"><ele>1189.6666666666667</ele><time>2026-04-09T08:20:13.968Z</time></trkpt><trkpt lat="44.1758209" lon="10.4615469"><ele>1192.5</ele><time>2026-04-09T08:20:15.978Z</time></trkpt><trkpt lat="44.1758948" lon="10.4615491"><ele>1195.3333333333333</ele><time>2026-04-09T08:20:16.986Z</time></trkpt><trkpt lat="44.1759608" lon="10.4615518"><ele>1198.1666666666665</ele><time>2026-04-09T08:20:17.985Z</time></trkpt><trkpt lat="44.1760285" lon="10.4615528"><ele>1201.0</ele><time>2026-04-09T08:20:18.982Z</time></trkpt><trkpt lat="44.1760987" lon="10.4615539"><ele>1201.0</ele><time>2026-04-09T08:20:19.993Z</time></trkpt><trkpt lat="44.1761719" lon="10.4615443"><ele>1201.0</ele><time>2026-04-09T08:20:20.983Z</time></trkpt><trkpt lat="44.1762528" lon="10.4615346"><ele>1201.0</ele><time>2026-04-09T08:20:21.981Z</time></trkpt><trkpt lat="44.1763326" lon="10.4615139"><ele>1201.0</ele><time>2026-04-09T08:20:22.985Z</time></trkpt><trkpt lat="44.1764233" lon="10.4615052"><ele>1201.0</ele><time>2026-04-09T08:20:23.982Z</time></trkpt><trkpt lat="44.1765199" lon="10.461494"><ele>1201.0</ele><time>2026-04-09T08:20:24.978Z</time></trkpt><trkpt lat="44.176616" lon="10.4614841"><ele>1200.8</ele><time>2026-04-09T08:20:25.977Z</time></trkpt><trkpt lat="44.1767135" lon="10.4614752"><ele>1200.6</ele><time>2026-04-09T08:20:26.973Z</time></trkpt><trkpt lat="44.1768133" lon="10.4614651"><ele>1200.4</ele><time>2026-04-09T08:20:27.967Z</time></trkpt><trkpt lat="44.1769136" lon="10.4614604"><ele>1200.2</ele><time>2026-04-09T08:20:28.984Z</time></trkpt><trkpt lat="44.1770072" lon="10.4614536"><ele>1200.0</ele><time>2026-04-09T08:20:29.976Z</time></trkpt><trkpt lat="44.1770997" lon="10.4614507"><ele>1200.0</ele><time>2026-04-09T08:20:30.975Z</time></trkpt><trkpt lat="44.1771912" lon="10.4614549"><ele>1200.0</ele><time>2026-04-09T08:20:31.977Z</time></trkpt><trkpt lat="44.177279" lon="10.4614717"><ele>1200.0</ele><time>2026-04-09T08:20:32.977Z</time></trkpt><trkpt lat="44.1773736" lon="10.4615068"><ele>1200.0</ele><time>2026-04-09T08:20:33.982Z</time></trkpt><trkpt lat="44.1774666" lon="10.4615458"><ele>1200.0</ele><time>2026-04-09T08:20:34.985Z</time></trkpt><trkpt lat="44.177555" lon="10.4615862"><ele>1197.8333333333333</ele><time>2026-04-09T08:20:35.981Z</time></trkpt><trkpt lat="44.1776395" lon="10.4616208"><ele>1195.6666666666667</ele><time>2026-04-09T08:20:36.976Z</time></trkpt><trkpt lat="44.177713" lon="10.461654"><ele>1193.5</ele><time>2026-04-09T08:20:37.972Z</time></trkpt><trkpt lat="44.177775" lon="10.4616819"><ele>1191.3333333333335</ele><time>2026-04-09T08:20:38.982Z</time></trkpt><trkpt lat="44.1778697" lon="10.4617303"><ele>1189.1666666666667</ele><time>2026-04-09T08:20:40.981Z</time></trkpt><trkpt lat="44.1779365" lon="10.4617696"><ele>1187.0</ele><time>2026-04-09T08:20:42.971Z</time></trkpt><trkpt lat="44.1780083" lon="10.4618207"><ele>1187.0</ele><time>2026-04-09T08:20:45.983Z</time></trkpt><trkpt lat="44.1780842" lon="10.4618564"><ele>1187.0</ele><time>2026-04-09T08:20:48.977Z</time></trkpt><trkpt lat="44.17815" lon="10.4618703"><ele>1187.0</ele><time>2026-04-09T08:20:51.98Z</time></trkpt><trkpt lat="44.1782297" lon="10.4618766"><ele>1187.0</ele><time>2026-04-09T08:20:54.979Z</time></trkpt><trkpt lat="44.1782921" lon="10.4618644"><ele>1187.0</ele><time>2026-04-09T08:20:56.966Z</time></trkpt><trkpt lat="44.178393" lon="10.4618378"><ele>1187.0</ele><time>2026-04-09T08:20:58.975Z</time></trkpt><trkpt lat="44.1785118" lon="10.4618668"><ele>1186.8333333333335</ele><time>2026-04-09T08:21:00.982Z</time></trkpt><trkpt lat="44.1786296" lon="10.4619865"><ele>1186.6666666666667</ele><time>2026-04-09T08:21:02.989Z</time></trkpt><trkpt lat="44.1786975" lon="10.4620376"><ele>1186.5</ele><time>2026-04-09T08:21:03.977Z</time></trkpt><trkpt lat="44.1787636" lon="10.462041"><ele>1186.3333333333333</ele><time>2026-04-09T08:21:04.981Z</time></trkpt><trkpt lat="44.1788419" lon="10.462028"><ele>1186.1666666666665</ele><time>2026-04-09T08:21:05.979Z</time></trkpt><trkpt lat="44.1789176" lon="10.4619892"><ele>1186.0</ele><time>2026-04-09T08:21:06.972Z</time></trkpt><trkpt lat="44.1789969" lon="10.4619387"><ele>1184.8333333333333</ele><time>2026-04-09T08:21:07.971Z</time></trkpt><trkpt lat="44.1790714" lon="10.4618869"><ele>1183.6666666666665</ele><time>2026-04-09T08:21:08.967Z</time></trkpt><trkpt lat="44.179148" lon="10.4618358"><ele>1182.5</ele><time>2026-04-09T08:21:09.98Z</time></trkpt><trkpt lat="44.179224" lon="10.4617959"><ele>1181.3333333333333</ele><time>2026-04-09T08:21:10.967Z</time></trkpt><trkpt lat="44.1792931" lon="10.4617761"><ele>1180.1666666666667</ele><time>2026-04-09T08:21:11.971Z</time></trkpt><trkpt lat="44.1793645" lon="10.4617768"><ele>1179.0</ele><time>2026-04-09T08:21:12.968Z</time></trkpt><trkpt lat="44.1794455" lon="10.4618029"><ele>1179.0</ele><time>2026-04-09T08:21:13.969Z</time></trkpt><trkpt lat="44.1795273" lon="10.4618455"><ele>1179.0</ele><time>2026-04-09T08:21:14.966Z</time></trkpt><trkpt lat="44.1796092" lon="10.461881"><ele>1179.0</ele><time>2026-04-09T08:21:15.972Z</time></trkpt><trkpt lat="44.1796806" lon="10.4619169"><ele>1179.0</ele><time>2026-04-09T08:21:16.97Z</time></trkpt><trkpt lat="44.1797354" lon="10.4619734"><ele>1179.0</ele><time>2026-04-09T08:21:17.971Z</time></trkpt><trkpt lat="44.1797938" lon="10.4620843"><ele>1179.0</ele><time>2026-04-09T08:21:19.97Z</time></trkpt><trkpt lat="44.1798047" lon="10.4621772"><ele>1179.8571428571427</ele><time>2026-04-09T08:21:21.976Z</time></trkpt><trkpt lat="44.1798225" lon="10.4622764"><ele>1180.7142857142858</ele><time>2026-04-09T08:21:26.972Z</time></trkpt><trkpt lat="44.1798466" lon="10.4623635"><ele>1181.5714285714284</ele><time>2026-04-09T08:21:31.969Z</time></trkpt><trkpt lat="44.1798687" lon="10.4624616"><ele>1182.4285714285713</ele><time>2026-04-09T08:21:36.971Z</time></trkpt><trkpt lat="44.1798638" lon="10.4625603"><ele>1183.2857142857142</ele><time>2026-04-09T08:21:41.971Z</time></trkpt><trkpt lat="44.179858" lon="10.4626601"><ele>1184.142857142857</ele><time>2026-04-09T08:21:45.971Z</time></trkpt><trkpt lat="44.1798554" lon="10.4627575"><ele>1185.0</ele><time>2026-04-09T08:21:50.974Z</time></trkpt><trkpt lat="44.1798636" lon="10.4628525"><ele>1185.5714285714284</ele><time>2026-04-09T08:21:55.985Z</time></trkpt><trkpt lat="44.1798556" lon="10.4629544"><ele>1186.142857142857</ele><time>2026-04-09T08:22:01.967Z</time></trkpt><trkpt lat="44.1798551" lon="10.4630589"><ele>1186.7142857142858</ele><time>2026-04-09T08:22:06.969Z</time></trkpt><trkpt lat="44.1798604" lon="10.4631542"><ele>1187.2857142857142</ele><time>2026-04-09T08:22:10.975Z</time></trkpt><trkpt lat="44.1798435" lon="10.4632449"><ele>1187.857142857143</ele><time>2026-04-09T08:22:13.98Z</time></trkpt><trkpt lat="44.1798398" lon="10.4633434"><ele>1188.4285714285713</ele><time>2026-04-09T08:22:17.977Z</time></trkpt><trkpt lat="44.1798238" lon="10.4634316"><ele>1189.0</ele><time>2026-04-09T08:22:21.975Z</time></trkpt><trkpt lat="44.1797894" lon="10.4635237"><ele>1188.5714285714284</ele><time>2026-04-09T08:22:26.978Z</time></trkpt><trkpt lat="44.1797631" lon="10.4636171"><ele>1188.142857142857</ele><time>2026-04-09T08:22:30.992Z</time></trkpt><trkpt lat="44.1797534" lon="10.4637241"><ele>1187.7142857142858</ele><time>2026-04-09T08:22:34.982Z</time></trkpt><trkpt lat="44.179776" lon="10.4638185"><ele>1187.2857142857142</ele><time>2026-04-09T08:22:38.967Z</time></trkpt><trkpt lat="44.1798054" lon="10.4639157"><ele>1186.857142857143</ele><time>2026-04-09T08:22:42.985Z</time></trkpt><trkpt lat="44.1798521" lon="10.4640042"><ele>1186.4285714285713</ele><time>2026-04-09T08:22:46.981Z</time></trkpt><trkpt lat="44.1798969" lon="10.46407"><ele>1186.0</ele><time>2026-04-09T08:22:50.977Z</time></trkpt><trkpt lat="44.1799497" lon="10.4641394"><ele>1187.5714285714284</ele><time>2026-04-09T08:22:55.969Z</time></trkpt><trkpt lat="44.1799996" lon="10.4642123"><ele>1189.142857142857</ele><time>2026-04-09T08:23:00.976Z</time></trkpt><trkpt lat="44.1800491" lon="10.4642854"><ele>1190.7142857142858</ele><time>2026-04-09T08:23:05.968Z</time></trkpt><trkpt lat="44.1801028" lon="10.464344"><ele>1192.2857142857142</ele><time>2026-04-09T08:23:09.987Z</time></trkpt><trkpt lat="44.1801502" lon="10.4644048"><ele>1193.857142857143</ele><time>2026-04-09T08:23:14.976Z</time></trkpt><trkpt lat="44.1801954" lon="10.4644768"><ele>1195.4285714285713</ele><time>2026-04-09T08:23:19.981Z</time></trkpt><trkpt lat="44.1802581" lon="10.4645424"><ele>1197.0</ele><time>2026-04-09T08:23:24.97Z</time></trkpt><trkpt lat="44.1803139" lon="10.4646117"><ele>1197.142857142857</ele><time>2026-04-09T08:23:29.98Z</time></trkpt><trkpt lat="44.1803673" lon="10.4646638"><ele>1197.2857142857142</ele><time>2026-04-09T08:23:33.972Z</time></trkpt><trkpt lat="44.1804285" lon="10.4647212"><ele>1197.4285714285716</ele><time>2026-04-09T08:23:38.97Z</time></trkpt><trkpt lat="44.1804939" lon="10.4647575"><ele>1197.5714285714284</ele><time>2026-04-09T08:23:43.971Z</time></trkpt><trkpt lat="44.1805461" lon="10.4648155"><ele>1197.7142857142858</ele><time>2026-04-09T08:23:47.977Z</time></trkpt><trkpt lat="44.1806083" lon="10.46487"><ele>1197.857142857143</ele><time>2026-04-09T08:23:52.982Z</time></trkpt><trkpt lat="44.1806685" lon="10.4649027"><ele>1198.0</ele><time>2026-04-09T08:23:56.972Z</time></trkpt><trkpt lat="44.1807161" lon="10.46497"><ele>1198.0</ele><time>2026-04-09T08:24:00.984Z</time></trkpt><trkpt lat="44.1807697" lon="10.4650445"><ele>1198.0</ele><time>2026-04-09T08:24:05.972Z</time></trkpt><trkpt lat="44.1808143" lon="10.465114"><ele>1198.0</ele><time>2026-04-09T08:24:09.978Z</time></trkpt><trkpt lat="44.1808656" lon="10.4651845"><ele>1198.0</ele><time>2026-04-09T08:24:13.987Z</time></trkpt><trkpt lat="44.1809011" lon="10.465258"><ele>1198.0</ele><time>2026-04-09T08:24:17.998Z</time></trkpt><trkpt lat="44.1809462" lon="10.465325"><ele>1198.0</ele><time>2026-04-09T08:24:21.975Z</time></trkpt><trkpt lat="44.1809884" lon="10.4653917"><ele>1198.0</ele><time>2026-04-09T08:24:25.996Z</time></trkpt><trkpt lat="44.1810173" lon="10.4654799"><ele>1200.857142857143</ele><time>2026-04-09T08:24:29.989Z</time></trkpt><trkpt lat="44.1810563" lon="10.4655572"><ele>1203.7142857142858</ele><time>2026-04-09T08:24:33.984Z</time></trkpt><trkpt lat="44.1811123" lon="10.4656327"><ele>1206.5714285714284</ele><time>2026-04-09T08:24:38.984Z</time></trkpt><trkpt lat="44.1811388" lon="10.4657141"><ele>1209.4285714285716</ele><time>2026-04-09T08:24:42.988Z</time></trkpt><trkpt lat="44.1811332" lon="10.4658335"><ele>1212.2857142857142</ele><time>2026-04-09T08:24:46.993Z</time></trkpt><trkpt lat="44.1811151" lon="10.4659245"><ele>1215.142857142857</ele><time>2026-04-09T08:24:49.972Z</time></trkpt><trkpt lat="44.1811027" lon="10.4660199"><ele>1218.0</ele><time>2026-04-09T08:24:52.999Z</time></trkpt><trkpt lat="44.1810931" lon="10.4661384"><ele>1218.0</ele><time>2026-04-09T08:24:55.984Z</time></trkpt><trkpt lat="44.1810857" lon="10.4662642"><ele>1218.0</ele><time>2026-04-09T08:24:58.98Z</time></trkpt><trkpt lat="44.1810826" lon="10.466358"><ele>1218.0</ele><time>2026-04-09T08:25:01.985Z</time></trkpt><trkpt lat="44.1810786" lon="10.4664547"><ele>1218.0</ele><time>2026-04-09T08:25:04.988Z</time></trkpt><trkpt lat="44.1810665" lon="10.4665519"><ele>1218.0</ele><time>2026-04-09T08:25:07.988Z</time></trkpt><trkpt lat="44.1810595" lon="10.4666677"><ele>1218.0</ele><time>2026-04-09T08:25:10.988Z</time></trkpt><trkpt lat="44.1810869" lon="10.4667705"><ele>1219.1666666666667</ele><time>2026-04-09T08:25:13.988Z</time></trkpt><trkpt lat="44.1811211" lon="10.4668826"><ele>1220.3333333333333</ele><time>2026-04-09T08:25:16.988Z</time></trkpt><trkpt lat="44.1811587" lon="10.4669914"><ele>1221.5</ele><time>2026-04-09T08:25:19.987Z</time></trkpt><trkpt lat="44.1811946" lon="10.4670946"><ele>1222.6666666666665</ele><time>2026-04-09T08:25:22.979Z</time></trkpt><trkpt lat="44.1812235" lon="10.4671848"><ele>1223.8333333333333</ele><time>2026-04-09T08:25:25.979Z</time></trkpt><trkpt lat="44.1812538" lon="10.4672917"><ele>1225.0</ele><time>2026-04-09T08:25:28.983Z</time></trkpt><trkpt lat="44.1812825" lon="10.467406"><ele>1226.8333333333333</ele><time>2026-04-09T08:25:31.982Z</time></trkpt><trkpt lat="44.1813142" lon="10.4675025"><ele>1228.6666666666665</ele><time>2026-04-09T08:25:34.981Z</time></trkpt><trkpt lat="44.181354" lon="10.4676206"><ele>1230.5</ele><time>2026-04-09T08:25:37.972Z</time></trkpt><trkpt lat="44.1813923" lon="10.4677358"><ele>1232.3333333333333</ele><time>2026-04-09T08:25:40.949Z</time></trkpt><trkpt lat="44.1814246" lon="10.4678459"><ele>1234.1666666666667</ele><time>2026-04-09T08:25:43.932Z</time></trkpt><trkpt lat="44.1814625" lon="10.467932"><ele>1236.0</ele><time>2026-04-09T08:25:46.983Z</time></trkpt><trkpt lat="44.181499" lon="10.4680079"><ele>1230.0</ele><time>2026-04-09T08:25:49.982Z</time></trkpt><trkpt lat="44.1815594" lon="10.468077"><ele>1224.0</ele><time>2026-04-09T08:25:52.984Z</time></trkpt><trkpt lat="44.1815855" lon="10.4681878"><ele>1218.0</ele><time>2026-04-09T08:25:55.972Z</time></trkpt><trkpt lat="44.1815891" lon="10.4683016"><ele>1212.0</ele><time>2026-04-09T08:25:58.97Z</time></trkpt><trkpt lat="44.1816014" lon="10.4683962"><ele>1206.0</ele><time>2026-04-09T08:26:01.975Z</time></trkpt><trkpt lat="44.1816077" lon="10.4685049"><ele>1200.0</ele><time>2026-04-09T08:26:04.979Z</time></trkpt><trkpt lat="44.1816191" lon="10.4686221"><ele>1200.0</ele><time>2026-04-09T08:26:07.982Z</time></trkpt><trkpt lat="44.181634" lon="10.4687483"><ele>1200.0</ele><time>2026-04-09T08:26:10.982Z</time></trkpt><trkpt lat="44.1816647" lon="10.4688622"><ele>1200.0</ele><time>2026-04-09T08:26:13.986Z</time></trkpt><trkpt lat="44.1817018" lon="10.4689633"><ele>1200.0</ele><time>2026-04-09T08:26:16.972Z</time></trkpt><trkpt lat="44.1817321" lon="10.4690596"><ele>1200.0</ele><time>2026-04-09T08:26:19.989Z</time></trkpt><trkpt lat="44.1817697" lon="10.4691415"><ele>1200.0</ele><time>2026-04-09T08:26:22.982Z</time></trkpt><trkpt lat="44.1818182" lon="10.4692015"><ele>1203.9999999999998</ele><time>2026-04-09T08:26:25.976Z</time></trkpt><trkpt lat="44.1818832" lon="10.4692212"><ele>1208.0</ele><time>2026-04-09T08:26:29.995Z</time></trkpt><trkpt lat="44.1819538" lon="10.4692062"><ele>1212.0</ele><time>2026-04-09T08:26:33.981Z</time></trkpt><trkpt lat="44.1820238" lon="10.469176"><ele>1216.0</ele><time>2026-04-09T08:26:37.98Z</time></trkpt><trkpt lat="44.1820801" lon="10.4691311"><ele>1220.0</ele><time>2026-04-09T08:26:40.994Z</time></trkpt><trkpt lat="44.1821529" lon="10.4690821"><ele>1223.9999999999998</ele><time>2026-04-09T08:26:44.992Z</time></trkpt><trkpt lat="44.1822222" lon="10.4690762"><ele>1228.0</ele><time>2026-04-09T08:26:47.969Z</time></trkpt><trkpt lat="44.1823183" lon="10.4690816"><ele>1224.6666666666665</ele><time>2026-04-09T08:26:50.977Z</time></trkpt><trkpt lat="44.1823937" lon="10.4691033"><ele>1221.3333333333333</ele><time>2026-04-09T08:26:52.987Z</time></trkpt><trkpt lat="44.1824552" lon="10.4691404"><ele>1218.0</ele><time>2026-04-09T08:26:54.977Z</time></trkpt><trkpt lat="44.1825241" lon="10.4692108"><ele>1214.6666666666667</ele><time>2026-04-09T08:26:56.981Z</time></trkpt><trkpt lat="44.1826221" lon="10.4693035"><ele>1211.3333333333335</ele><time>2026-04-09T08:26:58.977Z</time></trkpt><trkpt lat="44.1827135" lon="10.4693636"><ele>1208.0</ele><time>2026-04-09T08:27:00.996Z</time></trkpt><trkpt lat="44.1828032" lon="10.4694374"><ele>1208.0</ele><time>2026-04-09T08:27:02.995Z</time></trkpt><trkpt lat="44.1828885" lon="10.4695301"><ele>1208.0</ele><time>2026-04-09T08:27:04.986Z</time></trkpt><trkpt lat="44.1829378" lon="10.4695877"><ele>1208.0</ele><time>2026-04-09T08:27:05.993Z</time></trkpt><trkpt lat="44.183026" lon="10.4696867"><ele>1208.0</ele><time>2026-04-09T08:27:07.981Z</time></trkpt><trkpt lat="44.1831107" lon="10.4697788"><ele>1208.0</ele><time>2026-04-09T08:27:09.999Z</time></trkpt><trkpt lat="44.1831565" lon="10.4698898"><ele>1213.6</ele><time>2026-04-09T08:27:11.986Z</time></trkpt><trkpt lat="44.1831559" lon="10.47001"><ele>1219.1999999999998</ele><time>2026-04-09T08:27:13.973Z</time></trkpt><trkpt lat="44.18312" lon="10.470123"><ele>1224.8</ele><time>2026-04-09T08:27:15.982Z</time></trkpt><trkpt lat="44.1830848" lon="10.4702585"><ele>1230.3999999999999</ele><time>2026-04-09T08:27:17.969Z</time></trkpt><trkpt lat="44.1830609" lon="10.4703894"><ele>1236.0</ele><time>2026-04-09T08:27:19.978Z</time></trkpt><trkpt lat="44.1830266" lon="10.4705147"><ele>1238.3333333333333</ele><time>2026-04-09T08:27:21.977Z</time></trkpt><trkpt lat="44.1830385" lon="10.470616"><ele>1240.6666666666667</ele><time>2026-04-09T08:27:25.984Z</time></trkpt><trkpt lat="44.1831105" lon="10.4706547"><ele>1243.0</ele><time>2026-04-09T08:27:32Z</time></trkpt><trkpt lat="44.1831801" lon="10.4706482"><ele>1245.3333333333335</ele><time>2026-04-09T08:27:33.978Z</time></trkpt><trkpt lat="44.1832678" lon="10.4706707"><ele>1247.6666666666667</ele><time>2026-04-09T08:27:36.982Z</time></trkpt><trkpt lat="44.1833725" lon="10.4707252"><ele>1250.0</ele><time>2026-04-09T08:27:39.978Z</time></trkpt><trkpt lat="44.1834634" lon="10.470766"><ele>1244.2</ele><time>2026-04-09T08:27:41.992Z</time></trkpt><trkpt lat="44.1835453" lon="10.4707947"><ele>1238.4</ele><time>2026-04-09T08:27:43.977Z</time></trkpt><trkpt lat="44.1836565" lon="10.4708038"><ele>1232.6</ele><time>2026-04-09T08:27:45.986Z</time></trkpt><trkpt lat="44.1837638" lon="10.4708138"><ele>1226.8</ele><time>2026-04-09T08:27:48.985Z</time></trkpt><trkpt lat="44.183883" lon="10.4708254"><ele>1221.0</ele><time>2026-04-09T08:27:50.97Z</time></trkpt><trkpt lat="44.1839467" lon="10.4708431"><ele>1220.2</ele><time>2026-04-09T08:27:51.985Z</time></trkpt><trkpt lat="44.184057" lon="10.470863"><ele>1219.3999999999999</ele><time>2026-04-09T08:27:53.977Z</time></trkpt><trkpt lat="44.1841303" lon="10.470912"><ele>1218.6</ele><time>2026-04-09T08:27:54.974Z</time></trkpt><trkpt lat="44.1842005" lon="10.4710185"><ele>1217.8</ele><time>2026-04-09T08:27:56.991Z</time></trkpt><trkpt lat="44.1842263" lon="10.4711511"><ele>1217.0</ele><time>2026-04-09T08:27:58.987Z</time></trkpt><trkpt lat="44.1842377" lon="10.4712827"><ele>1217.0</ele><time>2026-04-09T08:28:00.981Z</time></trkpt><trkpt lat="44.1842457" lon="10.4713828"><ele>1217.0</ele><time>2026-04-09T08:28:02.972Z</time></trkpt><trkpt lat="44.1842769" lon="10.4714895"><ele>1217.0</ele><time>2026-04-09T08:28:04.979Z</time></trkpt><trkpt lat="44.1843102" lon="10.4715859"><ele>1217.0</ele><time>2026-04-09T08:28:06.987Z</time></trkpt><trkpt lat="44.1843458" lon="10.4716584"><ele>1217.0</ele><time>2026-04-09T08:28:08.968Z</time></trkpt><trkpt lat="44.1843934" lon="10.4717283"><ele>1217.0</ele><time>2026-04-09T08:28:10.983Z</time></trkpt><trkpt lat="44.1844335" lon="10.4718399"><ele>1217.0</ele><time>2026-04-09T08:28:13.985Z</time></trkpt><trkpt lat="44.1844635" lon="10.4719475"><ele>1217.0</ele><time>2026-04-09T08:28:16.985Z</time></trkpt><trkpt lat="44.1845014" lon="10.472042"><ele>1217.0</ele><time>2026-04-09T08:28:19.98Z</time></trkpt><trkpt lat="44.1845304" lon="10.4721394"><ele>1217.0</ele><time>2026-04-09T08:28:22.988Z</time></trkpt><trkpt lat="44.1845562" lon="10.4722256"><ele>1217.0</ele><time>2026-04-09T08:28:25.975Z</time></trkpt><trkpt lat="44.1845734" lon="10.4723152"><ele>1217.0</ele><time>2026-04-09T08:28:28.991Z</time></trkpt><trkpt lat="44.1845842" lon="10.4724074"><ele>1217.0</ele><time>2026-04-09T08:28:31.978Z</time></trkpt><trkpt lat="44.1845867" lon="10.4725066"><ele>1218.5</ele><time>2026-04-09T08:28:34.99Z</time></trkpt><trkpt lat="44.1846098" lon="10.4726132"><ele>1220.0</ele><time>2026-04-09T08:28:37.976Z</time></trkpt><trkpt lat="44.184682" lon="10.4726638"><ele>1221.5</ele><time>2026-04-09T08:28:41.977Z</time></trkpt><trkpt lat="44.1847439" lon="10.472713"><ele>1223.0</ele><time>2026-04-09T08:28:44.977Z</time></trkpt><trkpt lat="44.1847948" lon="10.4727692"><ele>1224.5</ele><time>2026-04-09T08:28:46.978Z</time></trkpt><trkpt lat="44.184843" lon="10.4728404"><ele>1226.0</ele><time>2026-04-09T08:28:48.98Z</time></trkpt><trkpt lat="44.1848944" lon="10.4729419"><ele>1226.0</ele><time>2026-04-09T08:28:51.967Z</time></trkpt><trkpt lat="44.1849737" lon="10.4729992"><ele>1226.0</ele><time>2026-04-09T08:28:54.977Z</time></trkpt><trkpt lat="44.1850342" lon="10.4729186"><ele>1226.0</ele><time>2026-04-09T08:28:57.984Z</time></trkpt><trkpt lat="44.1850355" lon="10.4728148"><ele>1226.0</ele><time>2026-04-09T08:29:00.975Z</time></trkpt><trkpt lat="44.1850533" lon="10.4727051"><ele>1226.0</ele><time>2026-04-09T08:29:04Z</time></trkpt><trkpt lat="44.1850749" lon="10.4725915"><ele>1226.0</ele><time>2026-04-09T08:29:06.985Z</time></trkpt><trkpt lat="44.1851111" lon="10.472486"><ele>1222.1666666666667</ele><time>2026-04-09T08:29:09.98Z</time></trkpt><trkpt lat="44.1851491" lon="10.4723673"><ele>1218.3333333333335</ele><time>2026-04-09T08:29:12.976Z</time></trkpt><trkpt lat="44.1851839" lon="10.4722472"><ele>1214.5</ele><time>2026-04-09T08:29:15.98Z</time></trkpt><trkpt lat="44.1852193" lon="10.4721675"><ele>1210.6666666666667</ele><time>2026-04-09T08:29:17.981Z</time></trkpt><trkpt lat="44.1852716" lon="10.4720657"><ele>1206.8333333333333</ele><time>2026-04-09T08:29:20.976Z</time></trkpt><trkpt lat="44.1853276" lon="10.471967"><ele>1203.0</ele><time>2026-04-09T08:29:23.982Z</time></trkpt><trkpt lat="44.1853873" lon="10.4718689"><ele>1202.5</ele><time>2026-04-09T08:29:26.97Z</time></trkpt><trkpt lat="44.1854509" lon="10.4717756"><ele>1202.0</ele><time>2026-04-09T08:29:29.99Z</time></trkpt><trkpt lat="44.185501" lon="10.4717188"><ele>1201.5</ele><time>2026-04-09T08:29:31.977Z</time></trkpt><trkpt lat="44.1855721" lon="10.4716468"><ele>1201.0</ele><time>2026-04-09T08:29:34.985Z</time></trkpt><trkpt lat="44.1856352" lon="10.471601"><ele>1200.5</ele><time>2026-04-09T08:29:37.984Z</time></trkpt><trkpt lat="44.1857144" lon="10.4715766"><ele>1200.0</ele><time>2026-04-09T08:29:41.993Z</time></trkpt><trkpt lat="44.185802" lon="10.4715884"><ele>1199.9999999999998</ele><time>2026-04-09T08:29:44.986Z</time></trkpt><trkpt lat="44.1858723" lon="10.4716081"><ele>1200.0</ele><time>2026-04-09T08:29:46.981Z</time></trkpt><trkpt lat="44.1859406" lon="10.4716245"><ele>1200.0</ele><time>2026-04-09T08:29:48.984Z</time></trkpt><trkpt lat="44.1860093" lon="10.4716082"><ele>1200.0</ele><time>2026-04-09T08:29:50.978Z</time></trkpt><trkpt lat="44.186059" lon="10.4715357"><ele>1200.0</ele><time>2026-04-09T08:29:52.974Z</time></trkpt><trkpt lat="44.1860933" lon="10.4714237"><ele>1199.9999999999998</ele><time>2026-04-09T08:29:55.977Z</time></trkpt><trkpt lat="44.1861045" lon="10.4713151"><ele>1200.0</ele><time>2026-04-09T08:29:58.968Z</time></trkpt><trkpt lat="44.1861342" lon="10.4712058"><ele>1201.3333333333333</ele><time>2026-04-09T08:30:01.979Z</time></trkpt><trkpt lat="44.1861841" lon="10.4711251"><ele>1202.6666666666667</ele><time>2026-04-09T08:30:04.988Z</time></trkpt><trkpt lat="44.186261" lon="10.471068"><ele>1204.0</ele><time>2026-04-09T08:30:07.983Z</time></trkpt><trkpt lat="44.1863393" lon="10.4710026"><ele>1205.3333333333335</ele><time>2026-04-09T08:30:10.971Z</time></trkpt><trkpt lat="44.1864132" lon="10.4709331"><ele>1206.6666666666667</ele><time>2026-04-09T08:30:13.968Z</time></trkpt><trkpt lat="44.1864719" lon="10.4708423"><ele>1208.0</ele><time>2026-04-09T08:30:16.987Z</time></trkpt><trkpt lat="44.1865126" lon="10.4707371"><ele>1208.0000000000002</ele><time>2026-04-09T08:30:19.991Z</time></trkpt><trkpt lat="44.1865378" lon="10.4706369"><ele>1208.0</ele><time>2026-04-09T08:30:22.972Z</time></trkpt><trkpt lat="44.1865614" lon="10.4705415"><ele>1208.0</ele><time>2026-04-09T08:30:25.977Z</time></trkpt><trkpt lat="44.1866" lon="10.4704488"><ele>1208.0</ele><time>2026-04-09T08:30:28.976Z</time></trkpt><trkpt lat="44.1866522" lon="10.4703792"><ele>1208.0</ele><time>2026-04-09T08:30:31.992Z</time></trkpt><trkpt lat="44.1867108" lon="10.4703192"><ele>1208.0000000000002</ele><time>2026-04-09T08:30:35.972Z</time></trkpt><trkpt lat="44.1867623" lon="10.4702525"><ele>1208.0</ele><time>2026-04-09T08:30:38.975Z</time></trkpt><trkpt lat="44.1867968" lon="10.4701488"><ele>1205.1666666666667</ele><time>2026-04-09T08:30:41.971Z</time></trkpt><trkpt lat="44.1868328" lon="10.470032"><ele>1202.3333333333335</ele><time>2026-04-09T08:30:44.973Z</time></trkpt><trkpt lat="44.1868769" lon="10.4699294"><ele>1199.5</ele><time>2026-04-09T08:30:47.982Z</time></trkpt><trkpt lat="44.1869269" lon="10.4698281"><ele>1196.6666666666667</ele><time>2026-04-09T08:30:50.986Z</time></trkpt><trkpt lat="44.1869791" lon="10.4697452"><ele>1193.8333333333333</ele><time>2026-04-09T08:30:53.974Z</time></trkpt><trkpt lat="44.1870219" lon="10.4696668"><ele>1191.0</ele><time>2026-04-09T08:30:56.983Z</time></trkpt><trkpt lat="44.1870712" lon="10.4695913"><ele>1189.1666666666667</ele><time>2026-04-09T08:30:59.975Z</time></trkpt><trkpt lat="44.1871115" lon="10.4695212"><ele>1187.3333333333333</ele><time>2026-04-09T08:31:03.98Z</time></trkpt><trkpt lat="44.1871394" lon="10.4694291"><ele>1185.5</ele><time>2026-04-09T08:31:08.988Z</time></trkpt><trkpt lat="44.187162" lon="10.4693464"><ele>1183.6666666666665</ele><time>2026-04-09T08:31:10.979Z</time></trkpt><trkpt lat="44.1872061" lon="10.4692056"><ele>1181.8333333333333</ele><time>2026-04-09T08:31:12.973Z</time></trkpt><trkpt lat="44.1872383" lon="10.4691264"><ele>1180.0</ele><time>2026-04-09T08:31:13.976Z</time></trkpt><trkpt lat="44.1873118" lon="10.4690218"><ele>1179.0</ele><time>2026-04-09T08:31:15.969Z</time></trkpt><trkpt lat="44.1873602" lon="10.4689496"><ele>1178.0</ele><time>2026-04-09T08:31:19.976Z</time></trkpt><trkpt lat="44.1874192" lon="10.4688837"><ele>1177.0</ele><time>2026-04-09T08:32:19.972Z</time></trkpt><trkpt lat="44.1875057" lon="10.4688317"><ele>1176.0</ele><time>2026-04-09T08:32:21.972Z</time></trkpt><trkpt lat="44.1876258" lon="10.4687694"><ele>1175.0</ele><time>2026-04-09T08:32:23.975Z</time></trkpt><trkpt lat="44.1876924" lon="10.4687317"><ele>1174.0</ele><time>2026-04-09T08:32:24.98Z</time></trkpt><trkpt lat="44.1877628" lon="10.468692"><ele>1174.0</ele><time>2026-04-09T08:32:25.978Z</time></trkpt><trkpt lat="44.1878357" lon="10.4686547"><ele>1174.0</ele><time>2026-04-09T08:32:26.968Z</time></trkpt><trkpt lat="44.1879037" lon="10.4686146"><ele>1174.0</ele><time>2026-04-09T08:32:27.98Z</time></trkpt><trkpt lat="44.1879682" lon="10.4685628"><ele>1174.0</ele><time>2026-04-09T08:32:28.989Z</time></trkpt><trkpt lat="44.1880286" lon="10.4684895"><ele>1174.0</ele><time>2026-04-09T08:32:29.975Z</time></trkpt><trkpt lat="44.1880756" lon="10.4684052"><ele>1174.0</ele><time>2026-04-09T08:32:30.984Z</time></trkpt><trkpt lat="44.1881293" lon="10.4683224"><ele>1175.8333333333333</ele><time>2026-04-09T08:32:31.977Z</time></trkpt><trkpt lat="44.1881834" lon="10.4682323"><ele>1177.6666666666665</ele><time>2026-04-09T08:32:32.984Z</time></trkpt><trkpt lat="44.1882366" lon="10.4681468"><ele>1179.5</ele><time>2026-04-09T08:32:33.986Z</time></trkpt><trkpt lat="44.1882821" lon="10.4680734"><ele>1181.3333333333333</ele><time>2026-04-09T08:32:34.985Z</time></trkpt><trkpt lat="44.1883254" lon="10.468007"><ele>1183.1666666666667</ele><time>2026-04-09T08:32:35.978Z</time></trkpt><trkpt lat="44.1883979" lon="10.4679075"><ele>1185.0</ele><time>2026-04-09T08:32:37.989Z</time></trkpt><trkpt lat="44.1884607" lon="10.4678444"><ele>1181.0</ele><time>2026-04-09T08:32:39.975Z</time></trkpt><trkpt lat="44.188529" lon="10.4678647"><ele>1177.0</ele><time>2026-04-09T08:32:41.976Z</time></trkpt><trkpt lat="44.1885844" lon="10.4679128"><ele>1173.0</ele><time>2026-04-09T08:32:43.973Z</time></trkpt><trkpt lat="44.1886572" lon="10.4678899"><ele>1169.0</ele><time>2026-04-09T08:32:46.999Z</time></trkpt><trkpt lat="44.1886815" lon="10.4677807"><ele>1165.0</ele><time>2026-04-09T08:32:48.972Z</time></trkpt><trkpt lat="44.1886692" lon="10.4676605"><ele>1161.0</ele><time>2026-04-09T08:32:50.981Z</time></trkpt><trkpt lat="44.1886739" lon="10.4675615"><ele>1161.0</ele><time>2026-04-09T08:32:52.984Z</time></trkpt><trkpt lat="44.1887521" lon="10.4675582"><ele>1161.0</ele><time>2026-04-09T08:32:55.985Z</time></trkpt><trkpt lat="44.1887927" lon="10.4676404"><ele>1161.0</ele><time>2026-04-09T08:32:57.972Z</time></trkpt><trkpt lat="44.1888003" lon="10.4677927"><ele>1161.0</ele><time>2026-04-09T08:32:59.97Z</time></trkpt><trkpt lat="44.1887966" lon="10.4678952"><ele>1161.0</ele><time>2026-04-09T08:33:00.983Z</time></trkpt><trkpt lat="44.1887915" lon="10.4679929"><ele>1161.0</ele><time>2026-04-09T08:33:01.976Z</time></trkpt><trkpt lat="44.1887867" lon="10.4681446"><ele>1161.0</ele><time>2026-04-09T08:33:03.989Z</time></trkpt><trkpt lat="44.1888081" lon="10.4682449"><ele>1161.0</ele><time>2026-04-09T08:33:05.977Z</time></trkpt><trkpt lat="44.1888729" lon="10.4681518"><ele>1161.0</ele><time>2026-04-09T08:33:09.972Z</time></trkpt><trkpt lat="44.1889165" lon="10.4680394"><ele>1161.0</ele><time>2026-04-09T08:33:11.977Z</time></trkpt><trkpt lat="44.1889449" lon="10.4679552"><ele>1161.0</ele><time>2026-04-09T08:33:12.991Z</time></trkpt><trkpt lat="44.1889909" lon="10.4678484"><ele>1161.0</ele><time>2026-04-09T08:33:13.978Z</time></trkpt><trkpt lat="44.1890194" lon="10.4677643"><ele>1161.0</ele><time>2026-04-09T08:33:14.966Z</time></trkpt><trkpt lat="44.1890254" lon="10.4676171"><ele>1161.0</ele><time>2026-04-09T08:33:16.975Z</time></trkpt><trkpt lat="44.1890178" lon="10.4675237"><ele>1161.0</ele><time>2026-04-09T08:33:17.979Z</time></trkpt><trkpt lat="44.188983" lon="10.4674297"><ele>1161.0</ele><time>2026-04-09T08:33:18.975Z</time></trkpt><trkpt lat="44.1889728" lon="10.4673412"><ele>1161.0</ele><time>2026-04-09T08:33:19.976Z</time></trkpt><trkpt lat="44.1889515" lon="10.4672548"><ele>1161.0</ele><time>2026-04-09T08:33:20.965Z</time></trkpt><trkpt lat="44.1889011" lon="10.4671085"><ele>1155.3999999999999</ele><time>2026-04-09T08:33:22.974Z</time></trkpt><trkpt lat="44.1888104" lon="10.4669785"><ele>1149.8</ele><time>2026-04-09T08:33:24.969Z</time></trkpt><trkpt lat="44.1887142" lon="10.4668868"><ele>1144.1999999999998</ele><time>2026-04-09T08:33:26.968Z</time></trkpt><trkpt lat="44.1886542" lon="10.4667657"><ele>1138.6</ele><time>2026-04-09T08:33:28.977Z</time></trkpt><trkpt lat="44.1886413" lon="10.4666432"><ele>1133.0</ele><time>2026-04-09T08:33:31.974Z</time></trkpt><trkpt lat="44.1887026" lon="10.4665763"><ele>1133.0</ele><time>2026-04-09T08:33:33.968Z</time></trkpt><trkpt lat="44.1887437" lon="10.4664825"><ele>1133.0</ele><time>2026-04-09T08:33:35.97Z</time></trkpt><trkpt lat="44.1886986" lon="10.4664143"><ele>1133.0</ele><time>2026-04-09T08:33:37.978Z</time></trkpt><trkpt lat="44.1886045" lon="10.466383"><ele>1133.0</ele><time>2026-04-09T08:33:39.972Z</time></trkpt><trkpt lat="44.1885354" lon="10.4663823"><ele>1133.0</ele><time>2026-04-09T08:33:41.974Z</time></trkpt><trkpt lat="44.188487" lon="10.4662864"><ele>1133.0</ele><time>2026-04-09T08:33:44.977Z</time></trkpt><trkpt lat="44.1884901" lon="10.466188"><ele>1129.5</ele><time>2026-04-09T08:33:46.981Z</time></trkpt><trkpt lat="44.1884912" lon="10.4660615"><ele>1126.0</ele><time>2026-04-09T08:33:48.979Z</time></trkpt><trkpt lat="44.1884752" lon="10.4659578"><ele>1122.5</ele><time>2026-04-09T08:33:50.984Z</time></trkpt><trkpt lat="44.1884531" lon="10.4658534"><ele>1119.0</ele><time>2026-04-09T08:33:53.99Z</time></trkpt><trkpt lat="44.1884161" lon="10.4657392"><ele>1115.5</ele><time>2026-04-09T08:33:56.984Z</time></trkpt><trkpt lat="44.188437" lon="10.4656475"><ele>1112.0</ele><time>2026-04-09T08:33:59.969Z</time></trkpt><trkpt lat="44.1885037" lon="10.4656946"><ele>1112.0</ele><time>2026-04-09T08:34:03.998Z</time></trkpt><trkpt lat="44.1885416" lon="10.4658201"><ele>1112.0</ele><time>2026-04-09T08:34:06.977Z</time></trkpt><trkpt lat="44.1885957" lon="10.4658982"><ele>1112.0</ele><time>2026-04-09T08:34:10.987Z</time></trkpt><trkpt lat="44.1886635" lon="10.4659382"><ele>1112.0</ele><time>2026-04-09T08:34:15.981Z</time></trkpt><trkpt lat="44.1887225" lon="10.4660024"><ele>1112.0</ele><time>2026-04-09T08:34:19.972Z</time></trkpt><trkpt lat="44.18879" lon="10.4660647"><ele>1112.0</ele><time>2026-04-09T08:34:21.978Z</time></trkpt><trkpt lat="44.1888731" lon="10.4661068"><ele>1112.0</ele><time>2026-04-09T08:34:24.98Z</time></trkpt><trkpt lat="44.1889254" lon="10.4661657"><ele>1112.0</ele><time>2026-04-09T08:34:28.977Z</time></trkpt><trkpt lat="44.1890012" lon="10.4662103"><ele>1112.0</ele><time>2026-04-09T08:34:32.974Z</time></trkpt><trkpt lat="44.1890731" lon="10.4662385"><ele>1112.0</ele><time>2026-04-09T08:34:35.973Z</time></trkpt><trkpt lat="44.1891468" lon="10.4662898"><ele>1112.0</ele><time>2026-04-09T08:34:38.969Z</time></trkpt><trkpt lat="44.1892275" lon="10.4663577"><ele>1112.0</ele><time>2026-04-09T08:34:41.976Z</time></trkpt><trkpt lat="44.1893212" lon="10.4663778"><ele>1109.857142857143</ele><time>2026-04-09T08:34:43.977Z</time></trkpt><trkpt lat="44.1894082" lon="10.4664193"><ele>1107.7142857142858</ele><time>2026-04-09T08:34:45.988Z</time></trkpt><trkpt lat="44.18949" lon="10.4664283"><ele>1105.5714285714287</ele><time>2026-04-09T08:34:48.992Z</time></trkpt><trkpt lat="44.1895476" lon="10.4663765"><ele>1103.4285714285716</ele><time>2026-04-09T08:34:52.967Z</time></trkpt><trkpt lat="44.1895607" lon="10.4662835"><ele>1101.2857142857144</ele><time>2026-04-09T08:34:58.982Z</time></trkpt><trkpt lat="44.1895332" lon="10.4661976"><ele>1099.142857142857</ele><time>2026-04-09T08:35:03.989Z</time></trkpt><trkpt lat="44.1895039" lon="10.4661084"><ele>1097.0</ele><time>2026-04-09T08:35:08.975Z</time></trkpt><trkpt lat="44.189483" lon="10.466016"><ele>1097.0</ele><time>2026-04-09T08:35:13.987Z</time></trkpt><trkpt lat="44.1895007" lon="10.4659249"><ele>1097.0</ele><time>2026-04-09T08:35:17.973Z</time></trkpt><trkpt lat="44.1895404" lon="10.4658421"><ele>1097.0</ele><time>2026-04-09T08:35:22.978Z</time></trkpt><trkpt lat="44.189597" lon="10.4657913"><ele>1097.0</ele><time>2026-04-09T08:35:28.981Z</time></trkpt><trkpt lat="44.189654" lon="10.4658307"><ele>1097.0</ele><time>2026-04-09T08:35:31.979Z</time></trkpt><trkpt lat="44.1897179" lon="10.4658948"><ele>1097.0</ele><time>2026-04-09T08:35:34.978Z</time></trkpt><trkpt lat="44.1897854" lon="10.4659595"><ele>1097.0</ele><time>2026-04-09T08:35:37.977Z</time></trkpt><trkpt lat="44.1898412" lon="10.4660183"><ele>1095.0</ele><time>2026-04-09T08:35:39.98Z</time></trkpt><trkpt lat="44.1899132" lon="10.4660841"><ele>1093.0</ele><time>2026-04-09T08:35:42.977Z</time></trkpt><trkpt lat="44.1899655" lon="10.466143"><ele>1091.0</ele><time>2026-04-09T08:35:46.973Z</time></trkpt><trkpt lat="44.1900318" lon="10.4662006"><ele>1089.0</ele><time>2026-04-09T08:35:50.98Z</time></trkpt><trkpt lat="44.1901041" lon="10.4662635"><ele>1087.0</ele><time>2026-04-09T08:35:54.978Z</time></trkpt><trkpt lat="44.1901823" lon="10.4663091"><ele>1085.0</ele><time>2026-04-09T08:35:58.972Z</time></trkpt><trkpt lat="44.1902455" lon="10.4663058"><ele>1085.0</ele><time>2026-04-09T08:36:02Z</time></trkpt><trkpt lat="44.1903304" lon="10.4662719"><ele>1085.0</ele><time>2026-04-09T08:36:05.977Z</time></trkpt><trkpt lat="44.1903965" lon="10.466233"><ele>1085.0</ele><time>2026-04-09T08:36:08.972Z</time></trkpt><trkpt lat="44.1904694" lon="10.4661953"><ele>1085.0</ele><time>2026-04-09T08:36:11.983Z</time></trkpt><trkpt lat="44.1905263" lon="10.4661503"><ele>1085.0</ele><time>2026-04-09T08:36:13.973Z</time></trkpt><trkpt lat="44.190595" lon="10.4660755"><ele>1085.0</ele><time>2026-04-09T08:36:16.972Z</time></trkpt><trkpt lat="44.1906572" lon="10.4659997"><ele>1085.8333333333335</ele><time>2026-04-09T08:36:20.973Z</time></trkpt><trkpt lat="44.190717" lon="10.4659265"><ele>1086.6666666666667</ele><time>2026-04-09T08:36:24.974Z</time></trkpt><trkpt lat="44.1907862" lon="10.4658616"><ele>1087.5</ele><time>2026-04-09T08:36:28.991Z</time></trkpt><trkpt lat="44.1908571" lon="10.4658223"><ele>1088.3333333333333</ele><time>2026-04-09T08:36:32.981Z</time></trkpt><trkpt lat="44.1909275" lon="10.4657842"><ele>1089.1666666666665</ele><time>2026-04-09T08:36:36.989Z</time></trkpt><trkpt lat="44.190993" lon="10.4657466"><ele>1090.0</ele><time>2026-04-09T08:36:41.984Z</time></trkpt><trkpt lat="44.1910576" lon="10.4656954"><ele>1090.0</ele><time>2026-04-09T08:36:45.993Z</time></trkpt><trkpt lat="44.1911206" lon="10.4656411"><ele>1090.0</ele><time>2026-04-09T08:36:49.982Z</time></trkpt><trkpt lat="44.1911853" lon="10.465575"><ele>1090.0</ele><time>2026-04-09T08:36:53.982Z</time></trkpt><trkpt lat="44.1912464" lon="10.4655343"><ele>1090.0</ele><time>2026-04-09T08:36:57.982Z</time></trkpt><trkpt lat="44.1913127" lon="10.4655391"><ele>1090.0</ele><time>2026-04-09T08:37:01.968Z</time></trkpt><trkpt lat="44.1913759" lon="10.4655679"><ele>1090.0</ele><time>2026-04-09T08:37:04.986Z</time></trkpt><trkpt lat="44.1914551" lon="10.465605"><ele>1090.0</ele><time>2026-04-09T08:37:07.982Z</time></trkpt><trkpt lat="44.1915429" lon="10.465639"><ele>1090.8333333333333</ele><time>2026-04-09T08:37:10.983Z</time></trkpt><trkpt lat="44.1916181" lon="10.465668"><ele>1091.6666666666665</ele><time>2026-04-09T08:37:12.988Z</time></trkpt><trkpt lat="44.1917055" lon="10.4656634"><ele>1092.5</ele><time>2026-04-09T08:37:14.988Z</time></trkpt><trkpt lat="44.1917777" lon="10.4656263"><ele>1093.3333333333333</ele><time>2026-04-09T08:37:17.977Z</time></trkpt><trkpt lat="44.191852" lon="10.4655899"><ele>1094.1666666666667</ele><time>2026-04-09T08:37:22.971Z</time></trkpt><trkpt lat="44.1918951" lon="10.4655044"><ele>1095.0</ele><time>2026-04-09T08:37:26.978Z</time></trkpt><trkpt lat="44.1919548" lon="10.4654067"><ele>1093.3333333333333</ele><time>2026-04-09T08:37:29.973Z</time></trkpt><trkpt lat="44.1920005" lon="10.4653367"><ele>1091.6666666666667</ele><time>2026-04-09T08:37:31.988Z</time></trkpt><trkpt lat="44.1920551" lon="10.4652657"><ele>1090.0</ele><time>2026-04-09T08:37:33.985Z</time></trkpt><trkpt lat="44.1921103" lon="10.465189"><ele>1088.3333333333335</ele><time>2026-04-09T08:37:35.988Z</time></trkpt><trkpt lat="44.1921686" lon="10.4651063"><ele>1086.6666666666667</ele><time>2026-04-09T08:37:37.981Z</time></trkpt><trkpt lat="44.1922475" lon="10.4650292"><ele>1085.0</ele><time>2026-04-09T08:37:39.986Z</time></trkpt><trkpt lat="44.1923475" lon="10.4649577"><ele>1085.0</ele><time>2026-04-09T08:37:41.984Z</time></trkpt><trkpt lat="44.1924611" lon="10.4648958"><ele>1085.0</ele><time>2026-04-09T08:37:43.97Z</time></trkpt><trkpt lat="44.1925175" lon="10.4648561"><ele>1085.0</ele><time>2026-04-09T08:37:44.986Z</time></trkpt><trkpt lat="44.1925723" lon="10.464802"><ele>1085.0</ele><time>2026-04-09T08:37:45.982Z</time></trkpt><trkpt lat="44.192645" lon="10.4646859"><ele>1085.0</ele><time>2026-04-09T08:37:47.98Z</time></trkpt><trkpt lat="44.1927152" lon="10.4646099"><ele>1081.6666666666667</ele><time>2026-04-09T08:37:49.973Z</time></trkpt><trkpt lat="44.1927736" lon="10.4645389"><ele>1078.3333333333335</ele><time>2026-04-09T08:37:51.981Z</time></trkpt><trkpt lat="44.1928295" lon="10.4644758"><ele>1075.0</ele><time>2026-04-09T08:37:53.978Z</time></trkpt><trkpt lat="44.1928107" lon="10.4643573"><ele>1071.6666666666667</ele><time>2026-04-09T08:37:56.996Z</time></trkpt><trkpt lat="44.1927413" lon="10.4643571"><ele>1068.3333333333333</ele><time>2026-04-09T08:37:58.975Z</time></trkpt><trkpt lat="44.1926637" lon="10.4643943"><ele>1065.0</ele><time>2026-04-09T08:38:00.967Z</time></trkpt><trkpt lat="44.1926037" lon="10.4644216"><ele>1065.0</ele><time>2026-04-09T08:38:02.973Z</time></trkpt><trkpt lat="44.1925303" lon="10.4644639"><ele>1065.0</ele><time>2026-04-09T08:38:05.987Z</time></trkpt><trkpt lat="44.1924458" lon="10.4644883"><ele>1065.0</ele><time>2026-04-09T08:38:08.99Z</time></trkpt><trkpt lat="44.1923638" lon="10.4645214"><ele>1065.0</ele><time>2026-04-09T08:38:11.984Z</time></trkpt><trkpt lat="44.1922999" lon="10.4645416"><ele>1065.0</ele><time>2026-04-09T08:38:14.998Z</time></trkpt><trkpt lat="44.1922286" lon="10.4645996"><ele>1065.0</ele><time>2026-04-09T08:38:17.976Z</time></trkpt><trkpt lat="44.1921508" lon="10.4646609"><ele>1066.1666666666667</ele><time>2026-04-09T08:38:20.994Z</time></trkpt><trkpt lat="44.1920626" lon="10.4647"><ele>1067.3333333333333</ele><time>2026-04-09T08:38:23.975Z</time></trkpt><trkpt lat="44.1919722" lon="10.4647301"><ele>1068.5</ele><time>2026-04-09T08:38:25.998Z</time></trkpt><trkpt lat="44.1918981" lon="10.4647464"><ele>1069.6666666666665</ele><time>2026-04-09T08:38:27.975Z</time></trkpt><trkpt lat="44.1918384" lon="10.4647743"><ele>1070.8333333333333</ele><time>2026-04-09T08:38:29.99Z</time></trkpt><trkpt lat="44.1917703" lon="10.4647988"><ele>1072.0</ele><time>2026-04-09T08:38:31.98Z</time></trkpt><trkpt lat="44.1917043" lon="10.464826"><ele>1072.0</ele><time>2026-04-09T08:38:34.972Z</time></trkpt><trkpt lat="44.1916296" lon="10.464847"><ele>1072.0</ele><time>2026-04-09T08:38:37.968Z</time></trkpt><trkpt lat="44.1915458" lon="10.4648826"><ele>1072.0</ele><time>2026-04-09T08:38:40.984Z</time></trkpt><trkpt lat="44.191464" lon="10.4648709"><ele>1072.0</ele><time>2026-04-09T08:38:42.975Z</time></trkpt><trkpt lat="44.1913807" lon="10.4648173"><ele>1072.0</ele><time>2026-04-09T08:38:45.973Z</time></trkpt><trkpt lat="44.1914071" lon="10.4647236"><ele>1072.0</ele><time>2026-04-09T08:38:48.985Z</time></trkpt><trkpt lat="44.1914841" lon="10.4647551"><ele>1072.0</ele><time>2026-04-09T08:38:51.989Z</time></trkpt><trkpt lat="44.1915494" lon="10.4647341"><ele>1072.0</ele><time>2026-04-09T08:38:53.971Z</time></trkpt><trkpt lat="44.191645" lon="10.4646803"><ele>1072.0</ele><time>2026-04-09T08:38:55.983Z</time></trkpt><trkpt lat="44.1917067" lon="10.4646412"><ele>1072.0</ele><time>2026-04-09T08:38:57.984Z</time></trkpt><trkpt lat="44.1917484" lon="10.464571"><ele>1072.0</ele><time>2026-04-09T08:39:00.977Z</time></trkpt><trkpt lat="44.1917965" lon="10.4644617"><ele>1072.0</ele><time>2026-04-09T08:39:03.973Z</time></trkpt><trkpt lat="44.1918182" lon="10.4643531"><ele>1068.5</ele><time>2026-04-09T08:39:05.97Z</time></trkpt><trkpt lat="44.1918272" lon="10.4642643"><ele>1065.0</ele><time>2026-04-09T08:39:07.995Z</time></trkpt><trkpt lat="44.1918475" lon="10.4641631"><ele>1061.5</ele><time>2026-04-09T08:39:09.979Z</time></trkpt><trkpt lat="44.1918962" lon="10.4640494"><ele>1058.0</ele><time>2026-04-09T08:39:12.978Z</time></trkpt><trkpt lat="44.1919406" lon="10.4639804"><ele>1054.5</ele><time>2026-04-09T08:39:13.989Z</time></trkpt><trkpt lat="44.1919867" lon="10.4638805"><ele>1051.0</ele><time>2026-04-09T08:39:15.98Z</time></trkpt><trkpt lat="44.1919862" lon="10.4637635"><ele>1051.0</ele><time>2026-04-09T08:39:18.985Z</time></trkpt><trkpt lat="44.1919" lon="10.4637158"><ele>1051.0</ele><time>2026-04-09T08:39:21.985Z</time></trkpt><trkpt lat="44.1918229" lon="10.4637111"><ele>1051.0</ele><time>2026-04-09T08:39:23.996Z</time></trkpt><trkpt lat="44.1917425" lon="10.4637175"><ele>1051.0</ele><time>2026-04-09T08:39:26Z</time></trkpt><trkpt lat="44.1916713" lon="10.463749"><ele>1051.0</ele><time>2026-04-09T08:39:27.992Z</time></trkpt><trkpt lat="44.1915741" lon="10.4637952"><ele>1051.0</ele><time>2026-04-09T08:39:29.984Z</time></trkpt><trkpt lat="44.1915073" lon="10.4637877"><ele>1047.1666666666665</ele><time>2026-04-09T08:39:31.986Z</time></trkpt><trkpt lat="44.1914536" lon="10.4636684"><ele>1043.3333333333333</ele><time>2026-04-09T08:39:34.984Z</time></trkpt><trkpt lat="44.1914028" lon="10.4635515"><ele>1039.5</ele><time>2026-04-09T08:39:36.978Z</time></trkpt><trkpt lat="44.1913711" lon="10.4634489"><ele>1035.6666666666667</ele><time>2026-04-09T08:39:38.978Z</time></trkpt><trkpt lat="44.1913551" lon="10.4633296"><ele>1031.8333333333335</ele><time>2026-04-09T08:39:40.982Z</time></trkpt><trkpt lat="44.1913508" lon="10.4632358"><ele>1028.0</ele><time>2026-04-09T08:39:42.977Z</time></trkpt><trkpt lat="44.1913784" lon="10.463143"><ele>1028.0</ele><time>2026-04-09T08:39:44.983Z</time></trkpt><trkpt lat="44.191351" lon="10.4630464"><ele>1028.0</ele><time>2026-04-09T08:39:46.982Z</time></trkpt><trkpt lat="44.1912823" lon="10.4630037"><ele>1028.0</ele><time>2026-04-09T08:39:48.996Z</time></trkpt><trkpt lat="44.191229" lon="10.4630683"><ele>1028.0</ele><time>2026-04-09T08:39:50.985Z</time></trkpt><trkpt lat="44.1911963" lon="10.4631693"><ele>1028.0</ele><time>2026-04-09T08:39:52.983Z</time></trkpt><trkpt lat="44.1911386" lon="10.4632473"><ele>1028.0</ele><time>2026-04-09T08:39:54.987Z</time></trkpt><trkpt lat="44.1910578" lon="10.4632799"><ele>1028.0</ele><time>2026-04-09T08:39:56.985Z</time></trkpt><trkpt lat="44.1909933" lon="10.4632365"><ele>1028.0</ele><time>2026-04-09T08:39:58.981Z</time></trkpt><trkpt lat="44.190934" lon="10.4631814"><ele>1028.0</ele><time>2026-04-09T08:40:00.98Z</time></trkpt><trkpt lat="44.1908662" lon="10.4631716"><ele>1028.0</ele><time>2026-04-09T08:40:02.974Z</time></trkpt><trkpt lat="44.1908352" lon="10.4632492"><ele>1028.0</ele><time>2026-04-09T08:40:04.984Z</time></trkpt><trkpt lat="44.1907709" lon="10.4633198"><ele>1028.0</ele><time>2026-04-09T08:40:06.993Z</time></trkpt><trkpt lat="44.1906867" lon="10.463295"><ele>1028.0</ele><time>2026-04-09T08:40:09.984Z</time></trkpt><trkpt lat="44.1906825" lon="10.4632053"><ele>1028.0</ele><time>2026-04-09T08:40:11.984Z</time></trkpt><trkpt lat="44.1907137" lon="10.4630835"><ele>1028.0</ele><time>2026-04-09T08:40:14.971Z</time></trkpt><trkpt lat="44.190728" lon="10.4629852"><ele>1028.0</ele><time>2026-04-09T08:40:16.992Z</time></trkpt><trkpt lat="44.1907323" lon="10.4628837"><ele>1028.0</ele><time>2026-04-09T08:40:17.992Z</time></trkpt><trkpt lat="44.1907742" lon="10.4627967"><ele>1028.0</ele><time>2026-04-09T08:40:19.985Z</time></trkpt><trkpt lat="44.1908121" lon="10.462725"><ele>1028.0</ele><time>2026-04-09T08:40:21.981Z</time></trkpt><trkpt lat="44.1908532" lon="10.4626409"><ele>1025.6666666666667</ele><time>2026-04-09T08:40:24.982Z</time></trkpt><trkpt lat="44.1908938" lon="10.462552"><ele>1023.3333333333334</ele><time>2026-04-09T08:40:27.973Z</time></trkpt><trkpt lat="44.1909059" lon="10.4624192"><ele>1021.0</ele><time>2026-04-09T08:40:30.992Z</time></trkpt><trkpt lat="44.1908822" lon="10.4623366"><ele>1018.6666666666667</ele><time>2026-04-09T08:40:31.979Z</time></trkpt><trkpt lat="44.1908533" lon="10.4622446"><ele>1016.3333333333334</ele><time>2026-04-09T08:40:32.982Z</time></trkpt><trkpt lat="44.1908285" lon="10.4621041"><ele>1014.0</ele><time>2026-04-09T08:40:34.997Z</time></trkpt><trkpt lat="44.1908022" lon="10.4619812"><ele>1011.8333333333334</ele><time>2026-04-09T08:40:36.986Z</time></trkpt><trkpt lat="44.1907465" lon="10.4619138"><ele>1009.6666666666667</ele><time>2026-04-09T08:40:38.98Z</time></trkpt><trkpt lat="44.1906532" lon="10.4619509"><ele>1007.5</ele><time>2026-04-09T08:40:40.977Z</time></trkpt><trkpt lat="44.1905888" lon="10.4619251"><ele>1005.3333333333334</ele><time>2026-04-09T08:40:42.989Z</time></trkpt><trkpt lat="44.1906076" lon="10.4618104"><ele>1003.1666666666667</ele><time>2026-04-09T08:40:45.981Z</time></trkpt><trkpt lat="44.1906809" lon="10.4617224"><ele>1001.0</ele><time>2026-04-09T08:40:47.976Z</time></trkpt><trkpt lat="44.1907252" lon="10.461617"><ele>1001.0000000000001</ele><time>2026-04-09T08:40:49.976Z</time></trkpt><trkpt lat="44.1907795" lon="10.4615333"><ele>1001.0</ele><time>2026-04-09T08:40:51.971Z</time></trkpt><trkpt lat="44.1908533" lon="10.4614966"><ele>1001.0</ele><time>2026-04-09T08:40:53.99Z</time></trkpt><trkpt lat="44.1909397" lon="10.4615243"><ele>1001.0</ele><time>2026-04-09T08:40:55.997Z</time></trkpt><trkpt lat="44.1910213" lon="10.4615722"><ele>1001.0000000000001</ele><time>2026-04-09T08:40:57.974Z</time></trkpt><trkpt lat="44.1910948" lon="10.4616409"><ele>1001.0</ele><time>2026-04-09T08:40:59.979Z</time></trkpt><trkpt lat="44.1911861" lon="10.4616848"><ele>1001.0000000000001</ele><time>2026-04-09T08:41:01.981Z</time></trkpt><trkpt lat="44.1912929" lon="10.4616667"><ele>1001.0</ele><time>2026-04-09T08:41:03.979Z</time></trkpt><trkpt lat="44.1913806" lon="10.4616485"><ele>1001.0</ele><time>2026-04-09T08:41:05.979Z</time></trkpt><trkpt lat="44.1914568" lon="10.4616325"><ele>1001.0</ele><time>2026-04-09T08:41:07.993Z</time></trkpt><trkpt lat="44.1915419" lon="10.4616203"><ele>1001.0000000000001</ele><time>2026-04-09T08:41:09.992Z</time></trkpt><trkpt lat="44.1916062" lon="10.4616264"><ele>1001.0</ele><time>2026-04-09T08:41:11.98Z</time></trkpt><trkpt lat="44.1916726" lon="10.4616327"><ele>1000.1666666666667</ele><time>2026-04-09T08:41:13.983Z</time></trkpt><trkpt lat="44.1917422" lon="10.4616282"><ele>999.3333333333334</ele><time>2026-04-09T08:41:15.975Z</time></trkpt><trkpt lat="44.1918158" lon="10.4616469"><ele>998.5</ele><time>2026-04-09T08:41:17.968Z</time></trkpt><trkpt lat="44.1918868" lon="10.4616715"><ele>997.6666666666667</ele><time>2026-04-09T08:41:18.982Z</time></trkpt><trkpt lat="44.1919912" lon="10.4616838"><ele>996.8333333333334</ele><time>2026-04-09T08:41:20.984Z</time></trkpt><trkpt lat="44.1920788" lon="10.4616756"><ele>996.0</ele><time>2026-04-09T08:41:22.978Z</time></trkpt><trkpt lat="44.1921747" lon="10.4616905"><ele>996.0</ele><time>2026-04-09T08:41:24.971Z</time></trkpt><trkpt lat="44.1922853" lon="10.4616926"><ele>995.9999999999999</ele><time>2026-04-09T08:41:26.983Z</time></trkpt><trkpt lat="44.1924235" lon="10.4617216"><ele>995.9999999999999</ele><time>2026-04-09T08:41:28.989Z</time></trkpt><trkpt lat="44.1924915" lon="10.4617064"><ele>996.0</ele><time>2026-04-09T08:41:30.982Z</time></trkpt><trkpt lat="44.1925826" lon="10.4617002"><ele>996.0</ele><time>2026-04-09T08:41:32.975Z</time></trkpt><trkpt lat="44.1926655" lon="10.4616899"><ele>992.8333333333334</ele><time>2026-04-09T08:41:34.979Z</time></trkpt><trkpt lat="44.1927407" lon="10.4616835"><ele>989.6666666666667</ele><time>2026-04-09T08:41:36.975Z</time></trkpt><trkpt lat="44.1928344" lon="10.4616945"><ele>986.5</ele><time>2026-04-09T08:41:38.976Z</time></trkpt><trkpt lat="44.1928988" lon="10.4616975"><ele>983.3333333333334</ele><time>2026-04-09T08:41:40.98Z</time></trkpt><trkpt lat="44.1929848" lon="10.4617057"><ele>980.1666666666667</ele><time>2026-04-09T08:41:42.976Z</time></trkpt><trkpt lat="44.1930577" lon="10.4617272"><ele>977.0</ele><time>2026-04-09T08:41:44.973Z</time></trkpt><trkpt lat="44.1931263" lon="10.4617513"><ele>977.0000000000001</ele><time>2026-04-09T08:41:46.975Z</time></trkpt><trkpt lat="44.1931908" lon="10.4617306"><ele>977.0</ele><time>2026-04-09T08:41:48.973Z</time></trkpt><trkpt lat="44.193194" lon="10.4616338"><ele>977.0000000000001</ele><time>2026-04-09T08:41:53.981Z</time></trkpt><trkpt lat="44.1931082" lon="10.4615819"><ele>977.0000000000001</ele><time>2026-04-09T08:41:57.971Z</time></trkpt><trkpt lat="44.1930444" lon="10.461538"><ele>977.0</ele><time>2026-04-09T08:41:59.985Z</time></trkpt><trkpt lat="44.192989" lon="10.4614681"><ele>977.0000000000001</ele><time>2026-04-09T08:42:01.978Z</time></trkpt><trkpt lat="44.192937" lon="10.4614118"><ele>977.0000000000001</ele><time>2026-04-09T08:42:03.975Z</time></trkpt><trkpt lat="44.1928792" lon="10.46132"><ele>972.0000000000001</ele><time>2026-04-09T08:42:06.978Z</time></trkpt><trkpt lat="44.1928432" lon="10.4612383"><ele>967.0</ele><time>2026-04-09T08:42:08.974Z</time></trkpt><trkpt lat="44.1927534" lon="10.4611107"><ele>962.0</ele><time>2026-04-09T08:42:11.97Z</time></trkpt><trkpt lat="44.1927053" lon="10.4610422"><ele>957.0</ele><time>2026-04-09T08:42:13.988Z</time></trkpt><trkpt lat="44.1926132" lon="10.4610313"><ele>952.0000000000001</ele><time>2026-04-09T08:42:16.976Z</time></trkpt><trkpt lat="44.1925302" lon="10.461036"><ele>947.0</ele><time>2026-04-09T08:42:18.983Z</time></trkpt><trkpt lat="44.1924646" lon="10.4610173"><ele>947.0000000000001</ele><time>2026-04-09T08:42:20.977Z</time></trkpt><trkpt lat="44.1925101" lon="10.4609525"><ele>947.0</ele><time>2026-04-09T08:42:26.975Z</time></trkpt><trkpt lat="44.1925929" lon="10.4609338"><ele>947.0</ele><time>2026-04-09T08:42:29.995Z</time></trkpt><trkpt lat="44.1926685" lon="10.4608697"><ele>947.0</ele><time>2026-04-09T08:42:31.982Z</time></trkpt><trkpt lat="44.1927387" lon="10.4608523"><ele>947.0000000000001</ele><time>2026-04-09T08:42:32.974Z</time></trkpt><trkpt lat="44.1928365" lon="10.4608307"><ele>947.0</ele><time>2026-04-09T08:42:34.993Z</time></trkpt><trkpt lat="44.1929123" lon="10.460845"><ele>947.0000000000001</ele><time>2026-04-09T08:42:35.985Z</time></trkpt><trkpt lat="44.1929785" lon="10.4608539"><ele>947.0</ele><time>2026-04-09T08:42:36.985Z</time></trkpt><trkpt lat="44.1930837" lon="10.4608776"><ele>947.0</ele><time>2026-04-09T08:42:38.988Z</time></trkpt><trkpt lat="44.1931969" lon="10.460884"><ele>947.0</ele><time>2026-04-09T08:42:40.978Z</time></trkpt><trkpt lat="44.1932673" lon="10.4608754"><ele>947.0000000000001</ele><time>2026-04-09T08:42:41.99Z</time></trkpt><trkpt lat="44.1933306" lon="10.4608872"><ele>947.0</ele><time>2026-04-09T08:42:42.981Z</time></trkpt><trkpt lat="44.1933927" lon="10.4609054"><ele>946.3333333333334</ele><time>2026-04-09T08:42:43.981Z</time></trkpt><trkpt lat="44.1934727" lon="10.4609426"><ele>945.6666666666667</ele><time>2026-04-09T08:42:44.981Z</time></trkpt><trkpt lat="44.193555" lon="10.4609472"><ele>945.0</ele><time>2026-04-09T08:42:45.977Z</time></trkpt><trkpt lat="44.1936478" lon="10.4609856"><ele>944.3333333333333</ele><time>2026-04-09T08:42:47.984Z</time></trkpt><trkpt lat="44.1937319" lon="10.4610111"><ele>943.6666666666666</ele><time>2026-04-09T08:42:48.978Z</time></trkpt><trkpt lat="44.1938124" lon="10.461026"><ele>943.0</ele><time>2026-04-09T08:42:49.987Z</time></trkpt><trkpt lat="44.1938778" lon="10.4610633"><ele>942.9999999999999</ele><time>2026-04-09T08:42:50.981Z</time></trkpt><trkpt lat="44.1939892" lon="10.4611029"><ele>943.0</ele><time>2026-04-09T08:42:52.975Z</time></trkpt><trkpt lat="44.1940616" lon="10.4611494"><ele>943.0</ele><time>2026-04-09T08:42:54.991Z</time></trkpt><trkpt lat="44.1941282" lon="10.4611907"><ele>943.0</ele><time>2026-04-09T08:42:57.984Z</time></trkpt><trkpt lat="44.1942022" lon="10.4612065"><ele>942.9999999999999</ele><time>2026-04-09T08:43:01.981Z</time></trkpt><trkpt lat="44.1942781" lon="10.4612254"><ele>943.0</ele><time>2026-04-09T08:43:03.988Z</time></trkpt><trkpt lat="44.1943898" lon="10.4612532"><ele>941.5714285714287</ele><time>2026-04-09T08:43:05.977Z</time></trkpt><trkpt lat="44.1944724" lon="10.4612764"><ele>940.1428571428572</ele><time>2026-04-09T08:43:07.981Z</time></trkpt><trkpt lat="44.1945438" lon="10.4612675"><ele>938.7142857142858</ele><time>2026-04-09T08:43:09.976Z</time></trkpt><trkpt lat="44.1946058" lon="10.4612514"><ele>937.2857142857142</ele><time>2026-04-09T08:43:11.979Z</time></trkpt><trkpt lat="44.194687" lon="10.4612231"><ele>935.8571428571428</ele><time>2026-04-09T08:43:13.976Z</time></trkpt><trkpt lat="44.1947551" lon="10.4612505"><ele>934.4285714285713</ele><time>2026-04-09T08:43:15.977Z</time></trkpt><trkpt lat="44.194819" lon="10.4612965"><ele>933.0</ele><time>2026-04-09T08:43:17.985Z</time></trkpt><trkpt lat="44.194883" lon="10.4613486"><ele>933.0</ele><time>2026-04-09T08:43:20.976Z</time></trkpt><trkpt lat="44.1949366" lon="10.4614002"><ele>933.0</ele><time>2026-04-09T08:43:22.986Z</time></trkpt><trkpt lat="44.1950029" lon="10.461458"><ele>933.0</ele><time>2026-04-09T08:43:24.991Z</time></trkpt><trkpt lat="44.1950474" lon="10.4615268"><ele>933.0</ele><time>2026-04-09T08:43:26.98Z</time></trkpt><trkpt lat="44.1950906" lon="10.4616278"><ele>933.0</ele><time>2026-04-09T08:43:29.983Z</time></trkpt><trkpt lat="44.1950959" lon="10.4617553"><ele>933.0</ele><time>2026-04-09T08:43:33.994Z</time></trkpt><trkpt lat="44.1951254" lon="10.4618367"><ele>933.0</ele><time>2026-04-09T08:43:35.978Z</time></trkpt><trkpt lat="44.19519" lon="10.4618422"><ele>933.0</ele><time>2026-04-09T08:43:38.974Z</time></trkpt><trkpt lat="44.1951942" lon="10.4617434"><ele>933.0</ele><time>2026-04-09T08:43:40.975Z</time></trkpt><trkpt lat="44.1951973" lon="10.4616517"><ele>933.0</ele><time>2026-04-09T08:43:41.968Z</time></trkpt><trkpt lat="44.1951969" lon="10.4615267"><ele>933.0</ele><time>2026-04-09T08:43:43.977Z</time></trkpt><trkpt lat="44.1951997" lon="10.4613996"><ele>933.0</ele><time>2026-04-09T08:43:45.967Z</time></trkpt><trkpt lat="44.1952107" lon="10.4612887"><ele>929.5999999999999</ele><time>2026-04-09T08:43:47.975Z</time></trkpt><trkpt lat="44.1951989" lon="10.4611774"><ele>926.1999999999999</ele><time>2026-04-09T08:43:49.977Z</time></trkpt><trkpt lat="44.1951555" lon="10.4610845"><ele>922.8</ele><time>2026-04-09T08:43:51.984Z</time></trkpt><trkpt lat="44.1950561" lon="10.4609967"><ele>919.4</ele><time>2026-04-09T08:43:53.996Z</time></trkpt><trkpt lat="44.1949814" lon="10.4608557"><ele>916.0</ele><time>2026-04-09T08:43:55.987Z</time></trkpt><trkpt lat="44.194931" lon="10.4607858"><ele>916.0</ele><time>2026-04-09T08:43:56.978Z</time></trkpt><trkpt lat="44.1948653" lon="10.4606477"><ele>915.9999999999999</ele><time>2026-04-09T08:43:58.986Z</time></trkpt><trkpt lat="44.1948144" lon="10.4605178"><ele>915.9999999999999</ele><time>2026-04-09T08:44:00.98Z</time></trkpt><trkpt lat="44.1947423" lon="10.4604205"><ele>916.0</ele><time>2026-04-09T08:44:02.972Z</time></trkpt><trkpt lat="44.1947288" lon="10.4603105"><ele>916.0</ele><time>2026-04-09T08:44:04.974Z</time></trkpt><trkpt lat="44.1947926" lon="10.4602626"><ele>915.9999999999999</ele><time>2026-04-09T08:44:07.982Z</time></trkpt><trkpt lat="44.1948414" lon="10.4603645"><ele>916.0</ele><time>2026-04-09T08:44:09.972Z</time></trkpt><trkpt lat="44.1948875" lon="10.460466"><ele>916.0</ele><time>2026-04-09T08:44:11.99Z</time></trkpt><trkpt lat="44.1949544" lon="10.4605516"><ele>916.0</ele><time>2026-04-09T08:44:13.989Z</time></trkpt><trkpt lat="44.1950213" lon="10.4605839"><ele>915.9999999999999</ele><time>2026-04-09T08:44:15.981Z</time></trkpt><trkpt lat="44.1950896" lon="10.4605702"><ele>916.0</ele><time>2026-04-09T08:44:17.974Z</time></trkpt><trkpt lat="44.195018" lon="10.4604365"><ele>912.1666666666666</ele><time>2026-04-09T08:44:21.986Z</time></trkpt><trkpt lat="44.1949626" lon="10.4603425"><ele>908.3333333333333</ele><time>2026-04-09T08:44:23.974Z</time></trkpt><trkpt lat="44.1949536" lon="10.4602362"><ele>904.5</ele><time>2026-04-09T08:44:25.982Z</time></trkpt><trkpt lat="44.1949449" lon="10.4601244"><ele>900.6666666666667</ele><time>2026-04-09T08:44:27.981Z</time></trkpt><trkpt lat="44.194931" lon="10.4600058"><ele>896.8333333333334</ele><time>2026-04-09T08:44:29.98Z</time></trkpt><trkpt lat="44.1949154" lon="10.4598951"><ele>893.0</ele><time>2026-04-09T08:44:31.999Z</time></trkpt><trkpt lat="44.1948647" lon="10.4597895"><ele>890.4</ele><time>2026-04-09T08:44:33.982Z</time></trkpt><trkpt lat="44.194801" lon="10.4596984"><ele>887.8</ele><time>2026-04-09T08:44:35.994Z</time></trkpt><trkpt lat="44.1947314" lon="10.4596461"><ele>885.2</ele><time>2026-04-09T08:44:36.996Z</time></trkpt><trkpt lat="44.1946356" lon="10.4595764"><ele>882.6</ele><time>2026-04-09T08:44:38.975Z</time></trkpt><trkpt lat="44.1945398" lon="10.4595107"><ele>880.0</ele><time>2026-04-09T08:44:40.995Z</time></trkpt><trkpt lat="44.1944467" lon="10.4594671"><ele>880.0</ele><time>2026-04-09T08:44:42.981Z</time></trkpt><trkpt lat="44.1943494" lon="10.4594068"><ele>880.0</ele><time>2026-04-09T08:44:44.989Z</time></trkpt><trkpt lat="44.1942416" lon="10.4593333"><ele>880.0</ele><time>2026-04-09T08:44:46.984Z</time></trkpt><trkpt lat="44.1941512" lon="10.4592793"><ele>880.0</ele><time>2026-04-09T08:44:48.989Z</time></trkpt><trkpt lat="44.1940619" lon="10.4592299"><ele>880.0</ele><time>2026-04-09T08:44:50.979Z</time></trkpt><trkpt lat="44.1939617" lon="10.459195"><ele>882.0</ele><time>2026-04-09T08:44:52.992Z</time></trkpt><trkpt lat="44.1938423" lon="10.4591277"><ele>884.0</ele><time>2026-04-09T08:44:54.988Z</time></trkpt><trkpt lat="44.1937227" lon="10.4591221"><ele>886.0</ele><time>2026-04-09T08:44:56.979Z</time></trkpt><trkpt lat="44.1936066" lon="10.4591325"><ele>888.0</ele><time>2026-04-09T08:44:58.982Z</time></trkpt><trkpt lat="44.19349" lon="10.4590923"><ele>888.0</ele><time>2026-04-09T08:45:00.983Z</time></trkpt><trkpt lat="44.1933825" lon="10.4590231"><ele>888.0</ele><time>2026-04-09T08:45:02.986Z</time></trkpt><trkpt lat="44.1932654" lon="10.4589697"><ele>888.0</ele><time>2026-04-09T08:45:04.987Z</time></trkpt><trkpt lat="44.1931965" lon="10.4589565"><ele>888.0</ele><time>2026-04-09T08:45:05.988Z</time></trkpt><trkpt lat="44.1931229" lon="10.4589328"><ele>888.0</ele><time>2026-04-09T08:45:06.989Z</time></trkpt><trkpt lat="44.1930478" lon="10.4589104"><ele>889.2</ele><time>2026-04-09T08:45:07.991Z</time></trkpt><trkpt lat="44.1929774" lon="10.4589036"><ele>890.4</ele><time>2026-04-09T08:45:08.976Z</time></trkpt><trkpt lat="44.1928576" lon="10.4588792"><ele>891.6000000000001</ele><time>2026-04-09T08:45:10.989Z</time></trkpt><trkpt lat="44.1927645" lon="10.4587688"><ele>892.8000000000001</ele><time>2026-04-09T08:45:12.991Z</time></trkpt><trkpt lat="44.1927355" lon="10.4586903"><ele>894.0</ele><time>2026-04-09T08:45:13.981Z</time></trkpt><trkpt lat="44.1926768" lon="10.4585818"><ele>887.75</ele><time>2026-04-09T08:45:15.98Z</time></trkpt><trkpt lat="44.1925956" lon="10.4585408"><ele>881.5</ele><time>2026-04-09T08:45:17.978Z</time></trkpt><trkpt lat="44.1924766" lon="10.4584793"><ele>875.25</ele><time>2026-04-09T08:45:19.985Z</time></trkpt><trkpt lat="44.1923769" lon="10.4583924"><ele>869.0</ele><time>2026-04-09T08:45:21.986Z</time></trkpt><trkpt lat="44.1922277" lon="10.4583143"><ele>869.0</ele><time>2026-04-09T08:45:23.989Z</time></trkpt><trkpt lat="44.1921375" lon="10.4582984"><ele>869.0000000000001</ele><time>2026-04-09T08:45:24.983Z</time></trkpt><trkpt lat="44.1920358" lon="10.4582867"><ele>869.0000000000001</ele><time>2026-04-09T08:45:25.986Z</time></trkpt><trkpt lat="44.1919259" lon="10.4582892"><ele>869.0</ele><time>2026-04-09T08:45:26.993Z</time></trkpt><trkpt lat="44.1918205" lon="10.4582838"><ele>869.0</ele><time>2026-04-09T08:45:27.988Z</time></trkpt><trkpt lat="44.191723" lon="10.4582729"><ele>869.0000000000001</ele><time>2026-04-09T08:45:28.989Z</time></trkpt><trkpt lat="44.1916384" lon="10.4582186"><ele>869.0</ele><time>2026-04-09T08:45:29.982Z</time></trkpt><trkpt lat="44.1915587" lon="10.4581459"><ele>869.0</ele><time>2026-04-09T08:45:30.99Z</time></trkpt><trkpt lat="44.1915055" lon="10.4580666"><ele>869.0</ele><time>2026-04-09T08:45:31.974Z</time></trkpt><trkpt lat="44.1914471" lon="10.4579884"><ele>869.0000000000001</ele><time>2026-04-09T08:45:32.973Z</time></trkpt><trkpt lat="44.1913863" lon="10.4579127"><ele>869.0</ele><time>2026-04-09T08:45:33.981Z</time></trkpt><trkpt lat="44.1913175" lon="10.4578639"><ele>866.1666666666667</ele><time>2026-04-09T08:45:34.976Z</time></trkpt><trkpt lat="44.1912528" lon="10.4578096"><ele>863.3333333333334</ele><time>2026-04-09T08:45:35.986Z</time></trkpt><trkpt lat="44.1911911" lon="10.4577658"><ele>860.5</ele><time>2026-04-09T08:45:36.987Z</time></trkpt><trkpt lat="44.1911248" lon="10.4577129"><ele>857.6666666666667</ele><time>2026-04-09T08:45:37.991Z</time></trkpt><trkpt lat="44.1910484" lon="10.457676"><ele>854.8333333333334</ele><time>2026-04-09T08:45:38.974Z</time></trkpt><trkpt lat="44.1909709" lon="10.4576401"><ele>852.0</ele><time>2026-04-09T08:45:39.972Z</time></trkpt><trkpt lat="44.1909017" lon="10.4575827"><ele>852.0</ele><time>2026-04-09T08:45:40.973Z</time></trkpt><trkpt lat="44.1908485" lon="10.4575259"><ele>852.0</ele><time>2026-04-09T08:45:41.989Z</time></trkpt><trkpt lat="44.1907934" lon="10.4574498"><ele>852.0</ele><time>2026-04-09T08:45:42.981Z</time></trkpt><trkpt lat="44.1907535" lon="10.4573741"><ele>852.0</ele><time>2026-04-09T08:45:43.981Z</time></trkpt><trkpt lat="44.1906974" lon="10.4572183"><ele>852.0</ele><time>2026-04-09T08:45:45.987Z</time></trkpt><trkpt lat="44.1906724" lon="10.4571377"><ele>852.0</ele><time>2026-04-09T08:45:46.976Z</time></trkpt><trkpt lat="44.1905878" lon="10.4570619"><ele>850.4000000000001</ele><time>2026-04-09T08:45:48.986Z</time></trkpt><trkpt lat="44.190466" lon="10.4570448"><ele>848.8000000000001</ele><time>2026-04-09T08:45:51Z</time></trkpt><trkpt lat="44.1903987" lon="10.4570713"><ele>847.2</ele><time>2026-04-09T08:45:51.982Z</time></trkpt><trkpt lat="44.1903305" lon="10.4571219"><ele>845.6</ele><time>2026-04-09T08:45:52.994Z</time></trkpt><trkpt lat="44.1902395" lon="10.457228"><ele>844.0</ele><time>2026-04-09T08:45:54.993Z</time></trkpt><trkpt lat="44.190157" lon="10.4572058"><ele>838.0</ele><time>2026-04-09T08:45:57.982Z</time></trkpt><trkpt lat="44.19019" lon="10.4570978"><ele>832.0</ele><time>2026-04-09T08:45:59.99Z</time></trkpt><trkpt lat="44.1902811" lon="10.4570091"><ele>826.0</ele><time>2026-04-09T08:46:02Z</time></trkpt><trkpt lat="44.1903723" lon="10.4568692"><ele>820.0</ele><time>2026-04-09T08:46:03.997Z</time></trkpt><trkpt lat="44.1904349" lon="10.4568193"><ele>814.0</ele><time>2026-04-09T08:46:04.984Z</time></trkpt><trkpt lat="44.1904977" lon="10.4567979"><ele>814.0</ele><time>2026-04-09T08:46:05.991Z</time></trkpt><trkpt lat="44.190622" lon="10.4568094"><ele>814.0</ele><time>2026-04-09T08:46:07.979Z</time></trkpt><trkpt lat="44.1907321" lon="10.4568957"><ele>814.0</ele><time>2026-04-09T08:46:09.986Z</time></trkpt><trkpt lat="44.1907827" lon="10.4569581"><ele>814.0</ele><time>2026-04-09T08:46:10.983Z</time></trkpt><trkpt lat="44.190828" lon="10.4570239"><ele>814.0</ele><time>2026-04-09T08:46:11.976Z</time></trkpt><trkpt lat="44.1909115" lon="10.4571135"><ele>812.9999999999999</ele><time>2026-04-09T08:46:13.992Z</time></trkpt><trkpt lat="44.1909862" lon="10.4571575"><ele>812.0</ele><time>2026-04-09T08:46:15.984Z</time></trkpt><trkpt lat="44.191058" lon="10.4571171"><ele>811.0</ele><time>2026-04-09T08:46:17.979Z</time></trkpt><trkpt lat="44.1910431" lon="10.457028"><ele>810.0</ele><time>2026-04-09T08:46:19.975Z</time></trkpt><trkpt lat="44.190953" lon="10.4569146"><ele>808.9999999999999</ele><time>2026-04-09T08:46:21.979Z</time></trkpt><trkpt lat="44.190899" lon="10.4568308"><ele>808.0</ele><time>2026-04-09T08:46:22.968Z</time></trkpt><trkpt lat="44.1908485" lon="10.4567499"><ele>807.9999999999999</ele><time>2026-04-09T08:46:23.978Z</time></trkpt><trkpt lat="44.1907962" lon="10.4566518"><ele>808.0</ele><time>2026-04-09T08:46:24.978Z</time></trkpt><trkpt lat="44.190741" lon="10.4565476"><ele>808.0</ele><time>2026-04-09T08:46:25.972Z</time></trkpt><trkpt lat="44.1906918" lon="10.4564789"><ele>808.0</ele><time>2026-04-09T08:46:26.973Z</time></trkpt><trkpt lat="44.190629" lon="10.4564345"><ele>807.9999999999999</ele><time>2026-04-09T08:46:27.97Z</time></trkpt><trkpt lat="44.1905617" lon="10.4563812"><ele>808.0</ele><time>2026-04-09T08:46:28.974Z</time></trkpt><trkpt lat="44.1904744" lon="10.4563444"><ele>809.2</ele><time>2026-04-09T08:46:29.973Z</time></trkpt><trkpt lat="44.1903986" lon="10.4563213"><ele>810.4</ele><time>2026-04-09T08:46:30.972Z</time></trkpt><trkpt lat="44.1903314" lon="10.4563068"><ele>811.6</ele><time>2026-04-09T08:46:31.978Z</time></trkpt><trkpt lat="44.1902326" lon="10.4563578"><ele>812.8000000000001</ele><time>2026-04-09T08:46:33.986Z</time></trkpt><trkpt lat="44.1901362" lon="10.456473"><ele>814.0</ele><time>2026-04-09T08:46:35.989Z</time></trkpt><trkpt lat="44.1900775" lon="10.4565409"><ele>813.9999999999999</ele><time>2026-04-09T08:46:36.984Z</time></trkpt><trkpt lat="44.1900237" lon="10.4566049"><ele>814.0</ele><time>2026-04-09T08:46:37.985Z</time></trkpt><trkpt lat="44.1899711" lon="10.4566817"><ele>814.0</ele><time>2026-04-09T08:46:39.977Z</time></trkpt><trkpt lat="44.189902" lon="10.456646"><ele>814.0</ele><time>2026-04-09T08:46:42.977Z</time></trkpt><trkpt lat="44.1899257" lon="10.4565629"><ele>813.9999999999999</ele><time>2026-04-09T08:46:44.973Z</time></trkpt><trkpt lat="44.1900208" lon="10.4564549"><ele>814.0</ele><time>2026-04-09T08:46:46.989Z</time></trkpt><trkpt lat="44.1901061" lon="10.4563282"><ele>808.0</ele><time>2026-04-09T08:46:48.99Z</time></trkpt><trkpt lat="44.190159" lon="10.4561922"><ele>802.0</ele><time>2026-04-09T08:46:50.991Z</time></trkpt><trkpt lat="44.190222" lon="10.4560651"><ele>796.0</ele><time>2026-04-09T08:46:52.984Z</time></trkpt><trkpt lat="44.1903021" lon="10.455968"><ele>790.0</ele><time>2026-04-09T08:46:54.998Z</time></trkpt><trkpt lat="44.1903866" lon="10.4559301"><ele>784.0</ele><time>2026-04-09T08:46:56.975Z</time></trkpt><trkpt lat="44.1904827" lon="10.455923"><ele>783.9999999999999</ele><time>2026-04-09T08:46:58.975Z</time></trkpt><trkpt lat="44.1905773" lon="10.4559148"><ele>784.0</ele><time>2026-04-09T08:47:00.981Z</time></trkpt><trkpt lat="44.1906099" lon="10.4558305"><ele>784.0</ele><time>2026-04-09T08:47:02.98Z</time></trkpt><trkpt lat="44.190563" lon="10.4557196"><ele>784.0</ele><time>2026-04-09T08:47:04.982Z</time></trkpt><trkpt lat="44.1904969" lon="10.4556726"><ele>783.9999999999999</ele><time>2026-04-09T08:47:05.982Z</time></trkpt><trkpt lat="44.1904394" lon="10.4556308"><ele>784.0</ele><time>2026-04-09T08:47:06.976Z</time></trkpt><trkpt lat="44.1903748" lon="10.4556073"><ele>783.9999999999999</ele><time>2026-04-09T08:47:07.987Z</time></trkpt><trkpt lat="44.1902599" lon="10.4556141"><ele>784.0</ele><time>2026-04-09T08:47:09.988Z</time></trkpt><trkpt lat="44.1901704" lon="10.4556017"><ele>784.0</ele><time>2026-04-09T08:47:11.996Z</time></trkpt><trkpt lat="44.1901257" lon="10.4555272"><ele>784.0</ele><time>2026-04-09T08:47:13.974Z</time></trkpt><trkpt lat="44.1901712" lon="10.4554477"><ele>783.9999999999999</ele><time>2026-04-09T08:47:15.985Z</time></trkpt><trkpt lat="44.1902383" lon="10.4554051"><ele>784.0</ele><time>2026-04-09T08:47:17.977Z</time></trkpt><trkpt lat="44.190275" lon="10.4553111"><ele>779.6666666666666</ele><time>2026-04-09T08:47:20.97Z</time></trkpt><trkpt lat="44.19021" lon="10.4552945"><ele>775.3333333333333</ele><time>2026-04-09T08:47:21.977Z</time></trkpt><trkpt lat="44.1901145" lon="10.4553126"><ele>771.0</ele><time>2026-04-09T08:47:23.98Z</time></trkpt><trkpt lat="44.1900385" lon="10.4554002"><ele>766.6666666666666</ele><time>2026-04-09T08:47:25.989Z</time></trkpt><trkpt lat="44.1899582" lon="10.455395"><ele>762.3333333333333</ele><time>2026-04-09T08:47:27.987Z</time></trkpt><trkpt lat="44.1899119" lon="10.4553241"><ele>758.0</ele><time>2026-04-09T08:47:29.98Z</time></trkpt><trkpt lat="44.1899339" lon="10.4551715"><ele>758.0</ele><time>2026-04-09T08:47:31.983Z</time></trkpt><trkpt lat="44.1900083" lon="10.4550445"><ele>758.0</ele><time>2026-04-09T08:47:33.997Z</time></trkpt><trkpt lat="44.1900235" lon="10.4549378"><ele>758.0</ele><time>2026-04-09T08:47:35.981Z</time></trkpt><trkpt lat="44.1899607" lon="10.454837"><ele>758.0</ele><time>2026-04-09T08:47:37.974Z</time></trkpt><trkpt lat="44.189859" lon="10.4547825"><ele>758.0</ele><time>2026-04-09T08:47:39.987Z</time></trkpt><trkpt lat="44.1897307" lon="10.4547479"><ele>757.4</ele><time>2026-04-09T08:47:41.976Z</time></trkpt><trkpt lat="44.1896552" lon="10.4547228"><ele>756.8</ele><time>2026-04-09T08:47:42.985Z</time></trkpt><trkpt lat="44.189568" lon="10.4546846"><ele>756.2</ele><time>2026-04-09T08:47:43.97Z</time></trkpt><trkpt lat="44.1894763" lon="10.4546305"><ele>755.6</ele><time>2026-04-09T08:47:44.978Z</time></trkpt><trkpt lat="44.1893803" lon="10.4545627"><ele>755.0</ele><time>2026-04-09T08:47:45.98Z</time></trkpt><trkpt lat="44.1892819" lon="10.4544797"><ele>755.0</ele><time>2026-04-09T08:47:46.986Z</time></trkpt><trkpt lat="44.1891964" lon="10.454395"><ele>755.0</ele><time>2026-04-09T08:47:47.978Z</time></trkpt><trkpt lat="44.1891204" lon="10.4543132"><ele>755.0</ele><time>2026-04-09T08:47:48.973Z</time></trkpt><trkpt lat="44.1890569" lon="10.4542273"><ele>755.0</ele><time>2026-04-09T08:47:49.983Z</time></trkpt><trkpt lat="44.1890033" lon="10.4541306"><ele>755.0</ele><time>2026-04-09T08:47:50.984Z</time></trkpt><trkpt lat="44.1889566" lon="10.4540197"><ele>757.6</ele><time>2026-04-09T08:47:51.974Z</time></trkpt><trkpt lat="44.1889078" lon="10.4538847"><ele>760.2</ele><time>2026-04-09T08:47:52.989Z</time></trkpt><trkpt lat="44.1888572" lon="10.4537532"><ele>762.8</ele><time>2026-04-09T08:47:53.982Z</time></trkpt><trkpt lat="44.1888028" lon="10.4536452"><ele>765.4</ele><time>2026-04-09T08:47:54.995Z</time></trkpt><trkpt lat="44.1887291" lon="10.4535549"><ele>768.0</ele><time>2026-04-09T08:47:55.982Z</time></trkpt><trkpt lat="44.1886466" lon="10.4534805"><ele>765.2</ele><time>2026-04-09T08:47:56.982Z</time></trkpt><trkpt lat="44.1885455" lon="10.4534149"><ele>762.4</ele><time>2026-04-09T08:47:57.982Z</time></trkpt><trkpt lat="44.1884439" lon="10.4533613"><ele>759.6</ele><time>2026-04-09T08:47:58.972Z</time></trkpt><trkpt lat="44.1883441" lon="10.4533073"><ele>756.8000000000001</ele><time>2026-04-09T08:47:59.986Z</time></trkpt><trkpt lat="44.1882501" lon="10.453244"><ele>754.0</ele><time>2026-04-09T08:48:00.984Z</time></trkpt><trkpt lat="44.188151" lon="10.4531806"><ele>754.0</ele><time>2026-04-09T08:48:01.997Z</time></trkpt><trkpt lat="44.1880484" lon="10.453109"><ele>754.0</ele><time>2026-04-09T08:48:02.994Z</time></trkpt><trkpt lat="44.1879527" lon="10.4530348"><ele>754.0</ele><time>2026-04-09T08:48:03.993Z</time></trkpt><trkpt lat="44.1878572" lon="10.452954"><ele>754.0</ele><time>2026-04-09T08:48:04.977Z</time></trkpt><trkpt lat="44.1877508" lon="10.4528686"><ele>750.75</ele><time>2026-04-09T08:48:05.989Z</time></trkpt><trkpt lat="44.1876423" lon="10.4527869"><ele>747.5</ele><time>2026-04-09T08:48:06.981Z</time></trkpt><trkpt lat="44.1875331" lon="10.4527042"><ele>744.25</ele><time>2026-04-09T08:48:07.981Z</time></trkpt><trkpt lat="44.1874268" lon="10.4526179"><ele>741.0</ele><time>2026-04-09T08:48:08.984Z</time></trkpt><trkpt lat="44.1873152" lon="10.4525249"><ele>741.0</ele><time>2026-04-09T08:48:09.973Z</time></trkpt><trkpt lat="44.187208" lon="10.4524293"><ele>741.0</ele><time>2026-04-09T08:48:10.999Z</time></trkpt><trkpt lat="44.1871078" lon="10.4523404"><ele>741.0</ele><time>2026-04-09T08:48:11.99Z</time></trkpt><trkpt lat="44.1870006" lon="10.4522391"><ele>741.0</ele><time>2026-04-09T08:48:12.974Z</time></trkpt><trkpt lat="44.1869005" lon="10.4521231"><ele>734.75</ele><time>2026-04-09T08:48:13.98Z</time></trkpt><trkpt lat="44.1868009" lon="10.4519932"><ele>728.5</ele><time>2026-04-09T08:48:14.982Z</time></trkpt><trkpt lat="44.1866994" lon="10.4518558"><ele>722.25</ele><time>2026-04-09T08:48:15.98Z</time></trkpt><trkpt lat="44.1866046" lon="10.4517266"><ele>716.0</ele><time>2026-04-09T08:48:16.971Z</time></trkpt><trkpt lat="44.1865143" lon="10.4516038"><ele>715.1999999999999</ele><time>2026-04-09T08:48:17.994Z</time></trkpt><trkpt lat="44.1864333" lon="10.4514874"><ele>714.4</ele><time>2026-04-09T08:48:18.977Z</time></trkpt><trkpt lat="44.1863528" lon="10.451374"><ele>713.6</ele><time>2026-04-09T08:48:19.971Z</time></trkpt><trkpt lat="44.1862805" lon="10.451253"><ele>712.8</ele><time>2026-04-09T08:48:20.976Z</time></trkpt><trkpt lat="44.1862109" lon="10.4511441"><ele>712.0</ele><time>2026-04-09T08:48:21.974Z</time></trkpt><trkpt lat="44.1861327" lon="10.4510393"><ele>712.0</ele><time>2026-04-09T08:48:22.99Z</time></trkpt><trkpt lat="44.1860455" lon="10.4509839"><ele>712.0</ele><time>2026-04-09T08:48:23.98Z</time></trkpt><trkpt lat="44.185958" lon="10.4509354"><ele>712.0</ele><time>2026-04-09T08:48:24.987Z</time></trkpt><trkpt lat="44.1858713" lon="10.4508921"><ele>712.0</ele><time>2026-04-09T08:48:25.988Z</time></trkpt><trkpt lat="44.1857795" lon="10.4508563"><ele>712.0</ele><time>2026-04-09T08:48:26.994Z</time></trkpt><trkpt lat="44.1856856" lon="10.45084"><ele>713.4000000000001</ele><time>2026-04-09T08:48:28Z</time></trkpt><trkpt lat="44.1855873" lon="10.4508272"><ele>714.8000000000001</ele><time>2026-04-09T08:48:28.996Z</time></trkpt><trkpt lat="44.1854843" lon="10.4508014"><ele>716.2</ele><time>2026-04-09T08:48:29.98Z</time></trkpt><trkpt lat="44.1853791" lon="10.4507538"><ele>717.6</ele><time>2026-04-09T08:48:30.984Z</time></trkpt><trkpt lat="44.1852737" lon="10.450695"><ele>719.0</ele><time>2026-04-09T08:48:31.989Z</time></trkpt><trkpt lat="44.1851683" lon="10.4506314"><ele>719.0</ele><time>2026-04-09T08:48:32.998Z</time></trkpt><trkpt lat="44.1850537" lon="10.4505797"><ele>719.0</ele><time>2026-04-09T08:48:33.992Z</time></trkpt><trkpt lat="44.1849367" lon="10.4505324"><ele>719.0</ele><time>2026-04-09T08:48:34.999Z</time></trkpt><trkpt lat="44.1848299" lon="10.4504982"><ele>719.0</ele><time>2026-04-09T08:48:35.991Z</time></trkpt><trkpt lat="44.1847366" lon="10.4504599"><ele>719.0</ele><time>2026-04-09T08:48:37Z</time></trkpt><trkpt lat="44.1846585" lon="10.4504251"><ele>716.2</ele><time>2026-04-09T08:48:37.997Z</time></trkpt><trkpt lat="44.1845969" lon="10.450379"><ele>713.4000000000001</ele><time>2026-04-09T08:48:38.98Z</time></trkpt><trkpt lat="44.1845586" lon="10.4502412"><ele>710.6</ele><time>2026-04-09T08:48:40.986Z</time></trkpt><trkpt lat="44.1846007" lon="10.4501022"><ele>707.8</ele><time>2026-04-09T08:48:42.992Z</time></trkpt><trkpt lat="44.1846107" lon="10.4499743"><ele>705.0</ele><time>2026-04-09T08:48:44.977Z</time></trkpt><trkpt lat="44.1845696" lon="10.4498304"><ele>705.0</ele><time>2026-04-09T08:48:46.973Z</time></trkpt><trkpt lat="44.1845503" lon="10.4497265"><ele>705.0</ele><time>2026-04-09T08:48:47.97Z</time></trkpt><trkpt lat="44.1845451" lon="10.4496158"><ele>705.0</ele><time>2026-04-09T08:48:48.977Z</time></trkpt><trkpt lat="44.184548" lon="10.4494984"><ele>705.0</ele><time>2026-04-09T08:48:49.973Z</time></trkpt><trkpt lat="44.1845276" lon="10.4493816"><ele>705.0</ele><time>2026-04-09T08:48:50.969Z</time></trkpt><trkpt lat="44.1844837" lon="10.4492662"><ele>705.0</ele><time>2026-04-09T08:48:51.973Z</time></trkpt><trkpt lat="44.184431" lon="10.4491771"><ele>702.5</ele><time>2026-04-09T08:48:52.965Z</time></trkpt><trkpt lat="44.1843612" lon="10.4491035"><ele>700.0</ele><time>2026-04-09T08:48:53.97Z</time></trkpt><trkpt lat="44.1842908" lon="10.4490281"><ele>697.5</ele><time>2026-04-09T08:48:54.967Z</time></trkpt><trkpt lat="44.1842408" lon="10.4489411"><ele>695.0</ele><time>2026-04-09T08:48:55.976Z</time></trkpt><trkpt lat="44.1842019" lon="10.4488462"><ele>692.5</ele><time>2026-04-09T08:48:56.971Z</time></trkpt><trkpt lat="44.184165" lon="10.4487507"><ele>690.0</ele><time>2026-04-09T08:48:57.991Z</time></trkpt><trkpt lat="44.1841315" lon="10.4486387"><ele>690.0</ele><time>2026-04-09T08:48:58.969Z</time></trkpt><trkpt lat="44.1840938" lon="10.4485473"><ele>690.0</ele><time>2026-04-09T08:48:59.969Z</time></trkpt><trkpt lat="44.1840517" lon="10.4484143"><ele>690.0</ele><time>2026-04-09T08:49:00.968Z</time></trkpt><trkpt lat="44.1840221" lon="10.4482829"><ele>690.0</ele><time>2026-04-09T08:49:01.981Z</time></trkpt><trkpt lat="44.1839897" lon="10.4481541"><ele>690.0</ele><time>2026-04-09T08:49:02.975Z</time></trkpt><trkpt lat="44.1839655" lon="10.4480098"><ele>688.6</ele><time>2026-04-09T08:49:03.98Z</time></trkpt><trkpt lat="44.1839506" lon="10.4478692"><ele>687.2</ele><time>2026-04-09T08:49:04.975Z</time></trkpt><trkpt lat="44.1839466" lon="10.4477206"><ele>685.8</ele><time>2026-04-09T08:49:05.982Z</time></trkpt><trkpt lat="44.1839398" lon="10.447573"><ele>684.4</ele><time>2026-04-09T08:49:06.99Z</time></trkpt><trkpt lat="44.1839269" lon="10.4474174"><ele>683.0</ele><time>2026-04-09T08:49:07.968Z</time></trkpt><trkpt lat="44.183909" lon="10.4472608"><ele>679.25</ele><time>2026-04-09T08:49:08.971Z</time></trkpt><trkpt lat="44.1838755" lon="10.4470992"><ele>675.5</ele><time>2026-04-09T08:49:09.974Z</time></trkpt><trkpt lat="44.1838337" lon="10.446942"><ele>671.75</ele><time>2026-04-09T08:49:10.97Z</time></trkpt><trkpt lat="44.1837672" lon="10.446787"><ele>668.0</ele><time>2026-04-09T08:49:11.984Z</time></trkpt><trkpt lat="44.1836991" lon="10.4466302"><ele>668.0</ele><time>2026-04-09T08:49:12.991Z</time></trkpt><trkpt lat="44.1836294" lon="10.4464731"><ele>668.0</ele><time>2026-04-09T08:49:13.976Z</time></trkpt><trkpt lat="44.1835496" lon="10.4463226"><ele>668.0</ele><time>2026-04-09T08:49:14.976Z</time></trkpt><trkpt lat="44.1834663" lon="10.4461802"><ele>668.0</ele><time>2026-04-09T08:49:15.98Z</time></trkpt><trkpt lat="44.1833634" lon="10.4460683"><ele>670.5</ele><time>2026-04-09T08:49:16.97Z</time></trkpt><trkpt lat="44.1832501" lon="10.4459909"><ele>673.0</ele><time>2026-04-09T08:49:17.986Z</time></trkpt><trkpt lat="44.1831357" lon="10.4459316"><ele>675.5</ele><time>2026-04-09T08:49:18.992Z</time></trkpt><trkpt lat="44.1830325" lon="10.4458495"><ele>678.0</ele><time>2026-04-09T08:49:19.992Z</time></trkpt><trkpt lat="44.1829422" lon="10.4457351"><ele>678.0</ele><time>2026-04-09T08:49:20.967Z</time></trkpt><trkpt lat="44.182863" lon="10.4456078"><ele>678.0</ele><time>2026-04-09T08:49:21.981Z</time></trkpt><trkpt lat="44.1827902" lon="10.4454925"><ele>678.0</ele><time>2026-04-09T08:49:22.974Z</time></trkpt><trkpt lat="44.1827276" lon="10.4453847"><ele>678.0</ele><time>2026-04-09T08:49:23.968Z</time></trkpt><trkpt lat="44.1826752" lon="10.4452775"><ele>678.0</ele><time>2026-04-09T08:49:24.987Z</time></trkpt><trkpt lat="44.1826453" lon="10.4451535"><ele>676.5999999999999</ele><time>2026-04-09T08:49:25.974Z</time></trkpt><trkpt lat="44.1826222" lon="10.4450221"><ele>675.1999999999999</ele><time>2026-04-09T08:49:26.998Z</time></trkpt><trkpt lat="44.1826052" lon="10.4448949"><ele>673.8</ele><time>2026-04-09T08:49:27.991Z</time></trkpt><trkpt lat="44.1826227" lon="10.4447593"><ele>672.4</ele><time>2026-04-09T08:49:28.979Z</time></trkpt><trkpt lat="44.1826072" lon="10.4446276"><ele>671.0</ele><time>2026-04-09T08:49:29.983Z</time></trkpt><trkpt lat="44.1825787" lon="10.4445049"><ele>671.0</ele><time>2026-04-09T08:49:30.972Z</time></trkpt><trkpt lat="44.1825452" lon="10.4443818"><ele>671.0</ele><time>2026-04-09T08:49:31.979Z</time></trkpt><trkpt lat="44.1825138" lon="10.4442677"><ele>671.0</ele><time>2026-04-09T08:49:32.985Z</time></trkpt><trkpt lat="44.1824717" lon="10.4441657"><ele>671.0</ele><time>2026-04-09T08:49:33.982Z</time></trkpt><trkpt lat="44.1824184" lon="10.4440896"><ele>671.0</ele><time>2026-04-09T08:49:34.98Z</time></trkpt><trkpt lat="44.1823437" lon="10.4440378"><ele>671.0</ele><time>2026-04-09T08:49:35.982Z</time></trkpt><trkpt lat="44.1822668" lon="10.4440009"><ele>670.5</ele><time>2026-04-09T08:49:36.982Z</time></trkpt><trkpt lat="44.1822074" lon="10.4439425"><ele>670.0</ele><time>2026-04-09T08:49:37.975Z</time></trkpt><trkpt lat="44.1821523" lon="10.4438529"><ele>669.5</ele><time>2026-04-09T08:49:38.999Z</time></trkpt><trkpt lat="44.1821099" lon="10.443768"><ele>669.0</ele><time>2026-04-09T08:49:39.982Z</time></trkpt><trkpt lat="44.1820809" lon="10.4436647"><ele>668.5</ele><time>2026-04-09T08:49:40.994Z</time></trkpt><trkpt lat="44.18204" lon="10.4435386"><ele>668.0</ele><time>2026-04-09T08:49:41.985Z</time></trkpt><trkpt lat="44.1819932" lon="10.4434297"><ele>665.4</ele><time>2026-04-09T08:49:42.985Z</time></trkpt><trkpt lat="44.1819185" lon="10.4433432"><ele>662.8</ele><time>2026-04-09T08:49:43.971Z</time></trkpt><trkpt lat="44.1818373" lon="10.4432704"><ele>660.2</ele><time>2026-04-09T08:49:44.981Z</time></trkpt><trkpt lat="44.181748" lon="10.4432008"><ele>657.6</ele><time>2026-04-09T08:49:46Z</time></trkpt><trkpt lat="44.1816633" lon="10.4431251"><ele>655.0</ele><time>2026-04-09T08:49:46.99Z</time></trkpt><trkpt lat="44.181581" lon="10.4430464"><ele>658.2</ele><time>2026-04-09T08:49:47.974Z</time></trkpt><trkpt lat="44.1815062" lon="10.442963"><ele>661.4</ele><time>2026-04-09T08:49:48.978Z</time></trkpt><trkpt lat="44.1814266" lon="10.4428767"><ele>664.5999999999999</ele><time>2026-04-09T08:49:49.981Z</time></trkpt><trkpt lat="44.1813601" lon="10.4427768"><ele>667.8</ele><time>2026-04-09T08:49:51Z</time></trkpt><trkpt lat="44.1812885" lon="10.4426581"><ele>671.0</ele><time>2026-04-09T08:49:51.988Z</time></trkpt><trkpt lat="44.1812141" lon="10.442547"><ele>671.0</ele><time>2026-04-09T08:49:52.974Z</time></trkpt><trkpt lat="44.1811371" lon="10.4424366"><ele>671.0</ele><time>2026-04-09T08:49:53.989Z</time></trkpt><trkpt lat="44.1810686" lon="10.4423226"><ele>671.0</ele><time>2026-04-09T08:49:54.974Z</time></trkpt><trkpt lat="44.1810113" lon="10.4422137"><ele>671.0</ele><time>2026-04-09T08:49:55.974Z</time></trkpt><trkpt lat="44.1809798" lon="10.4421096"><ele>671.0</ele><time>2026-04-09T08:49:56.973Z</time></trkpt><trkpt lat="44.1809672" lon="10.4420065"><ele>667.5714285714286</ele><time>2026-04-09T08:49:57.97Z</time></trkpt><trkpt lat="44.1809852" lon="10.4418967"><ele>664.1428571428572</ele><time>2026-04-09T08:49:58.974Z</time></trkpt><trkpt lat="44.1810185" lon="10.4418133"><ele>660.7142857142858</ele><time>2026-04-09T08:49:59.972Z</time></trkpt><trkpt lat="44.1810574" lon="10.4417327"><ele>657.2857142857142</ele><time>2026-04-09T08:50:00.975Z</time></trkpt><trkpt lat="44.1810962" lon="10.4416435"><ele>653.8571428571429</ele><time>2026-04-09T08:50:01.971Z</time></trkpt><trkpt lat="44.1811382" lon="10.4415496"><ele>650.4285714285714</ele><time>2026-04-09T08:50:02.983Z</time></trkpt><trkpt lat="44.18118" lon="10.4414665"><ele>647.0</ele><time>2026-04-09T08:50:03.971Z</time></trkpt><trkpt lat="44.1812147" lon="10.4413734"><ele>647.5</ele><time>2026-04-09T08:50:04.97Z</time></trkpt><trkpt lat="44.1812373" lon="10.441274"><ele>648.0</ele><time>2026-04-09T08:50:05.979Z</time></trkpt><trkpt lat="44.1812447" lon="10.4411728"><ele>648.5</ele><time>2026-04-09T08:50:06.976Z</time></trkpt><trkpt lat="44.1812293" lon="10.4410739"><ele>649.0</ele><time>2026-04-09T08:50:07.969Z</time></trkpt><trkpt lat="44.1811974" lon="10.4409902"><ele>649.5</ele><time>2026-04-09T08:50:08.996Z</time></trkpt><trkpt lat="44.1811524" lon="10.4409182"><ele>650.0</ele><time>2026-04-09T08:50:09.971Z</time></trkpt><trkpt lat="44.1810507" lon="10.4407771"><ele>650.0</ele><time>2026-04-09T08:50:11.985Z</time></trkpt><trkpt lat="44.1809883" lon="10.4407235"><ele>650.0</ele><time>2026-04-09T08:50:12.98Z</time></trkpt><trkpt lat="44.1809222" lon="10.4406887"><ele>650.0</ele><time>2026-04-09T08:50:13.972Z</time></trkpt><trkpt lat="44.1808532" lon="10.4406679"><ele>650.0</ele><time>2026-04-09T08:50:14.969Z</time></trkpt><trkpt lat="44.180755" lon="10.4406785"><ele>650.0</ele><time>2026-04-09T08:50:15.972Z</time></trkpt><trkpt lat="44.1806657" lon="10.4407061"><ele>650.0</ele><time>2026-04-09T08:50:16.979Z</time></trkpt><trkpt lat="44.1805812" lon="10.4407263"><ele>647.6</ele><time>2026-04-09T08:50:17.985Z</time></trkpt><trkpt lat="44.1804902" lon="10.440748"><ele>645.2</ele><time>2026-04-09T08:50:18.985Z</time></trkpt><trkpt lat="44.1803975" lon="10.4407476"><ele>642.8</ele><time>2026-04-09T08:50:19.974Z</time></trkpt><trkpt lat="44.1803047" lon="10.4407267"><ele>640.4</ele><time>2026-04-09T08:50:20.984Z</time></trkpt><trkpt lat="44.1802178" lon="10.4406859"><ele>638.0</ele><time>2026-04-09T08:50:21.978Z</time></trkpt><trkpt lat="44.1801502" lon="10.4406098"><ele>638.0</ele><time>2026-04-09T08:50:22.978Z</time></trkpt><trkpt lat="44.180089" lon="10.4405211"><ele>638.0</ele><time>2026-04-09T08:50:23.982Z</time></trkpt><trkpt lat="44.1800401" lon="10.4404231"><ele>638.0</ele><time>2026-04-09T08:50:24.982Z</time></trkpt><trkpt lat="44.180029" lon="10.4402992"><ele>638.0</ele><time>2026-04-09T08:50:25.992Z</time></trkpt><trkpt lat="44.1799988" lon="10.440207"><ele>638.0</ele><time>2026-04-09T08:50:26.978Z</time></trkpt><trkpt lat="44.1799588" lon="10.4401185"><ele>638.0</ele><time>2026-04-09T08:50:27.993Z</time></trkpt><trkpt lat="44.1799125" lon="10.4400415"><ele>639.0</ele><time>2026-04-09T08:50:28.987Z</time></trkpt><trkpt lat="44.1798624" lon="10.4399869"><ele>640.0</ele><time>2026-04-09T08:50:29.979Z</time></trkpt><trkpt lat="44.179803" lon="10.4399443"><ele>641.0</ele><time>2026-04-09T08:50:30.988Z</time></trkpt><trkpt lat="44.179692" lon="10.4398723"><ele>642.0</ele><time>2026-04-09T08:50:32.973Z</time></trkpt><trkpt lat="44.1796313" lon="10.4398328"><ele>643.0</ele><time>2026-04-09T08:50:33.977Z</time></trkpt><trkpt lat="44.1795629" lon="10.4397875"><ele>644.0</ele><time>2026-04-09T08:50:34.984Z</time></trkpt><trkpt lat="44.1794997" lon="10.4397332"><ele>644.0</ele><time>2026-04-09T08:50:35.99Z</time></trkpt><trkpt lat="44.1794334" lon="10.4396862"><ele>644.0</ele><time>2026-04-09T08:50:36.983Z</time></trkpt><trkpt lat="44.1793636" lon="10.4396401"><ele>644.0</ele><time>2026-04-09T08:50:37.982Z</time></trkpt><trkpt lat="44.1792989" lon="10.4395925"><ele>644.0</ele><time>2026-04-09T08:50:38.982Z</time></trkpt><trkpt lat="44.179232" lon="10.4395371"><ele>644.0</ele><time>2026-04-09T08:50:39.981Z</time></trkpt><trkpt lat="44.1791672" lon="10.4394743"><ele>644.0</ele><time>2026-04-09T08:50:40.996Z</time></trkpt><trkpt lat="44.1791046" lon="10.4394074"><ele>642.8000000000001</ele><time>2026-04-09T08:50:41.994Z</time></trkpt><trkpt lat="44.1790425" lon="10.4393291"><ele>641.6</ele><time>2026-04-09T08:50:42.979Z</time></trkpt><trkpt lat="44.178986" lon="10.4392321"><ele>640.4</ele><time>2026-04-09T08:50:43.983Z</time></trkpt><trkpt lat="44.1789457" lon="10.4391175"><ele>639.2</ele><time>2026-04-09T08:50:44.977Z</time></trkpt><trkpt lat="44.1789006" lon="10.4390026"><ele>638.0</ele><time>2026-04-09T08:50:45.971Z</time></trkpt><trkpt lat="44.1788452" lon="10.4388921"><ele>636.8</ele><time>2026-04-09T08:50:46.984Z</time></trkpt><trkpt lat="44.1787861" lon="10.4387843"><ele>635.5999999999999</ele><time>2026-04-09T08:50:47.982Z</time></trkpt><trkpt lat="44.1787213" lon="10.4386772"><ele>634.4000000000001</ele><time>2026-04-09T08:50:48.994Z</time></trkpt><trkpt lat="44.1786511" lon="10.4385615"><ele>633.2</ele><time>2026-04-09T08:50:49.984Z</time></trkpt><trkpt lat="44.1785792" lon="10.4384639"><ele>632.0</ele><time>2026-04-09T08:50:50.984Z</time></trkpt><trkpt lat="44.1784942" lon="10.4383752"><ele>632.0</ele><time>2026-04-09T08:50:51.978Z</time></trkpt><trkpt lat="44.1783896" lon="10.4383165"><ele>632.0</ele><time>2026-04-09T08:50:52.989Z</time></trkpt><trkpt lat="44.1782828" lon="10.4382781"><ele>632.0</ele><time>2026-04-09T08:50:53.999Z</time></trkpt><trkpt lat="44.1781773" lon="10.4382446"><ele>632.0</ele><time>2026-04-09T08:50:54.989Z</time></trkpt><trkpt lat="44.1780688" lon="10.4382163"><ele>632.0</ele><time>2026-04-09T08:50:55.989Z</time></trkpt><trkpt lat="44.1779713" lon="10.438187"><ele>632.0</ele><time>2026-04-09T08:50:56.981Z</time></trkpt><trkpt lat="44.1778786" lon="10.4381574"><ele>632.0</ele><time>2026-04-09T08:50:57.979Z</time></trkpt><trkpt lat="44.1777918" lon="10.4381124"><ele>632.0</ele><time>2026-04-09T08:50:58.993Z</time></trkpt><trkpt lat="44.1777107" lon="10.438045"><ele>632.0</ele><time>2026-04-09T08:50:59.982Z</time></trkpt><trkpt lat="44.1776443" lon="10.4379519"><ele>632.0</ele><time>2026-04-09T08:51:00.978Z</time></trkpt><trkpt lat="44.1775765" lon="10.437858"><ele>632.0</ele><time>2026-04-09T08:51:01.993Z</time></trkpt><trkpt lat="44.1775084" lon="10.4377632"><ele>632.0</ele><time>2026-04-09T08:51:02.982Z</time></trkpt><trkpt lat="44.1774329" lon="10.4376683"><ele>632.0</ele><time>2026-04-09T08:51:03.991Z</time></trkpt><trkpt lat="44.1773586" lon="10.4375803"><ele>632.0</ele><time>2026-04-09T08:51:04.98Z</time></trkpt><trkpt lat="44.1772805" lon="10.4374979"><ele>632.0</ele><time>2026-04-09T08:51:05.98Z</time></trkpt><trkpt lat="44.1772038" lon="10.4374061"><ele>633.1666666666666</ele><time>2026-04-09T08:51:06.982Z</time></trkpt><trkpt lat="44.1771277" lon="10.4373239"><ele>634.3333333333333</ele><time>2026-04-09T08:51:07.981Z</time></trkpt><trkpt lat="44.1770499" lon="10.4372553"><ele>635.5</ele><time>2026-04-09T08:51:08.974Z</time></trkpt><trkpt lat="44.1769983" lon="10.4371743"><ele>636.6666666666666</ele><time>2026-04-09T08:51:09.987Z</time></trkpt><trkpt lat="44.1769638" lon="10.4370616"><ele>637.8333333333334</ele><time>2026-04-09T08:51:10.984Z</time></trkpt><trkpt lat="44.1769333" lon="10.436944"><ele>639.0</ele><time>2026-04-09T08:51:11.975Z</time></trkpt><trkpt lat="44.1769031" lon="10.4368205"><ele>635.8</ele><time>2026-04-09T08:51:12.988Z</time></trkpt><trkpt lat="44.1768763" lon="10.4367084"><ele>632.5999999999999</ele><time>2026-04-09T08:51:13.998Z</time></trkpt><trkpt lat="44.176846" lon="10.4365855"><ele>629.4</ele><time>2026-04-09T08:51:14.973Z</time></trkpt><trkpt lat="44.1768207" lon="10.4364628"><ele>626.1999999999999</ele><time>2026-04-09T08:51:15.994Z</time></trkpt><trkpt lat="44.1767938" lon="10.436333"><ele>623.0</ele><time>2026-04-09T08:51:16.969Z</time></trkpt><trkpt lat="44.1767731" lon="10.4362024"><ele>622.0</ele><time>2026-04-09T08:51:17.972Z</time></trkpt><trkpt lat="44.176748" lon="10.4360758"><ele>621.0</ele><time>2026-04-09T08:51:18.97Z</time></trkpt><trkpt lat="44.1767254" lon="10.4359496"><ele>620.0</ele><time>2026-04-09T08:51:19.979Z</time></trkpt><trkpt lat="44.1767033" lon="10.4358221"><ele>619.0</ele><time>2026-04-09T08:51:20.982Z</time></trkpt><trkpt lat="44.1766861" lon="10.4357039"><ele>618.0</ele><time>2026-04-09T08:51:21.975Z</time></trkpt><trkpt lat="44.1766633" lon="10.4355937"><ele>618.0000000000001</ele><time>2026-04-09T08:51:22.979Z</time></trkpt><trkpt lat="44.1766504" lon="10.4354743"><ele>618.0</ele><time>2026-04-09T08:51:23.983Z</time></trkpt><trkpt lat="44.1766339" lon="10.4353673"><ele>618.0</ele><time>2026-04-09T08:51:24.973Z</time></trkpt><trkpt lat="44.1766159" lon="10.4352619"><ele>618.0</ele><time>2026-04-09T08:51:25.998Z</time></trkpt><trkpt lat="44.1765987" lon="10.4351667"><ele>618.0</ele><time>2026-04-09T08:51:26.974Z</time></trkpt><trkpt lat="44.176584" lon="10.4350783"><ele>618.0000000000001</ele><time>2026-04-09T08:51:27.973Z</time></trkpt><trkpt lat="44.17657" lon="10.4349923"><ele>618.0</ele><time>2026-04-09T08:51:28.976Z</time></trkpt><trkpt lat="44.1765577" lon="10.4348405"><ele>617.0</ele><time>2026-04-09T08:51:30.989Z</time></trkpt><trkpt lat="44.1765664" lon="10.4347094"><ele>616.0</ele><time>2026-04-09T08:51:32.979Z</time></trkpt><trkpt lat="44.176591" lon="10.4346016"><ele>615.0</ele><time>2026-04-09T08:51:34.972Z</time></trkpt><trkpt lat="44.1766167" lon="10.4344843"><ele>614.0</ele><time>2026-04-09T08:51:37.981Z</time></trkpt><trkpt lat="44.1766078" lon="10.4343888"><ele>613.0</ele><time>2026-04-09T08:51:40.974Z</time></trkpt><trkpt lat="44.1765725" lon="10.4343033"><ele>612.0</ele><time>2026-04-09T08:51:43.985Z</time></trkpt><trkpt lat="44.1765276" lon="10.4342312"><ele>610.7142857142857</ele><time>2026-04-09T08:51:46.972Z</time></trkpt><trkpt lat="44.1764676" lon="10.4341799"><ele>609.4285714285714</ele><time>2026-04-09T08:51:49.991Z</time></trkpt><trkpt lat="44.1764043" lon="10.4341205"><ele>608.1428571428571</ele><time>2026-04-09T08:51:52.979Z</time></trkpt><trkpt lat="44.1763323" lon="10.4340473"><ele>606.8571428571429</ele><time>2026-04-09T08:51:55.972Z</time></trkpt><trkpt lat="44.1762722" lon="10.4339716"><ele>605.5714285714286</ele><time>2026-04-09T08:51:57.979Z</time></trkpt><trkpt lat="44.1762297" lon="10.4339022"><ele>604.2857142857143</ele><time>2026-04-09T08:51:58.971Z</time></trkpt><trkpt lat="44.1761883" lon="10.4338351"><ele>603.0</ele><time>2026-04-09T08:51:59.976Z</time></trkpt><trkpt lat="44.1761466" lon="10.4337581"><ele>602.6</ele><time>2026-04-09T08:52:00.977Z</time></trkpt><trkpt lat="44.1760917" lon="10.4336724"><ele>602.1999999999999</ele><time>2026-04-09T08:52:01.974Z</time></trkpt><trkpt lat="44.1760338" lon="10.4335827"><ele>601.8</ele><time>2026-04-09T08:52:02.976Z</time></trkpt><trkpt lat="44.1759688" lon="10.433485"><ele>601.4</ele><time>2026-04-09T08:52:03.996Z</time></trkpt><trkpt lat="44.1759023" lon="10.4333816"><ele>601.0</ele><time>2026-04-09T08:52:04.975Z</time></trkpt><trkpt lat="44.175832" lon="10.4332715"><ele>601.0</ele><time>2026-04-09T08:52:05.97Z</time></trkpt><trkpt lat="44.1757563" lon="10.4331598"><ele>601.0</ele><time>2026-04-09T08:52:06.97Z</time></trkpt><trkpt lat="44.1756802" lon="10.4330514"><ele>601.0</ele><time>2026-04-09T08:52:07.999Z</time></trkpt><trkpt lat="44.1756305" lon="10.4329436"><ele>601.0</ele><time>2026-04-09T08:52:08.985Z</time></trkpt><trkpt lat="44.1756022" lon="10.4328173"><ele>601.0</ele><time>2026-04-09T08:52:09.99Z</time></trkpt><trkpt lat="44.1755996" lon="10.4326902"><ele>597.6</ele><time>2026-04-09T08:52:10.989Z</time></trkpt><trkpt lat="44.1756196" lon="10.4325671"><ele>594.2</ele><time>2026-04-09T08:52:11.981Z</time></trkpt><trkpt lat="44.1756563" lon="10.4324451"><ele>590.8</ele><time>2026-04-09T08:52:12.991Z</time></trkpt><trkpt lat="44.1756768" lon="10.4323124"><ele>587.4</ele><time>2026-04-09T08:52:13.979Z</time></trkpt><trkpt lat="44.1756592" lon="10.4321738"><ele>584.0</ele><time>2026-04-09T08:52:14.975Z</time></trkpt><trkpt lat="44.1756347" lon="10.4320497"><ele>584.0</ele><time>2026-04-09T08:52:15.972Z</time></trkpt><trkpt lat="44.1755911" lon="10.4319366"><ele>584.0</ele><time>2026-04-09T08:52:16.982Z</time></trkpt><trkpt lat="44.1755398" lon="10.4318281"><ele>584.0</ele><time>2026-04-09T08:52:17.987Z</time></trkpt><trkpt lat="44.1754826" lon="10.4317264"><ele>584.0</ele><time>2026-04-09T08:52:18.971Z</time></trkpt><trkpt lat="44.1754315" lon="10.4316329"><ele>584.0</ele><time>2026-04-09T08:52:19.989Z</time></trkpt><trkpt lat="44.1753728" lon="10.4315482"><ele>584.0</ele><time>2026-04-09T08:52:20.981Z</time></trkpt><trkpt lat="44.175317" lon="10.4314722"><ele>584.0</ele><time>2026-04-09T08:52:21.981Z</time></trkpt><trkpt lat="44.1752593" lon="10.4314195"><ele>584.0</ele><time>2026-04-09T08:52:22.979Z</time></trkpt><trkpt lat="44.1752071" lon="10.4313679"><ele>584.0</ele><time>2026-04-09T08:52:23.98Z</time></trkpt><trkpt lat="44.1751141" lon="10.4313227"><ele>584.0</ele><time>2026-04-09T08:52:25.992Z</time></trkpt><trkpt lat="44.1750568" lon="10.431283"><ele>584.0</ele><time>2026-04-09T08:52:27.979Z</time></trkpt><trkpt lat="44.1749782" lon="10.4312599"><ele>584.0</ele><time>2026-04-09T08:52:31.984Z</time></trkpt><trkpt lat="44.1748995" lon="10.4312525"><ele>583.7142857142857</ele><time>2026-04-09T08:52:35.988Z</time></trkpt><trkpt lat="44.1748308" lon="10.4312654"><ele>583.4285714285714</ele><time>2026-04-09T08:52:38.971Z</time></trkpt><trkpt lat="44.1747525" lon="10.4312471"><ele>583.1428571428571</ele><time>2026-04-09T08:52:42.966Z</time></trkpt><trkpt lat="44.1746904" lon="10.4312045"><ele>582.8571428571429</ele><time>2026-04-09T08:52:45.981Z</time></trkpt><trkpt lat="44.1746323" lon="10.4311478"><ele>582.5714285714286</ele><time>2026-04-09T08:52:48.979Z</time></trkpt><trkpt lat="44.1745737" lon="10.4310969"><ele>582.2857142857142</ele><time>2026-04-09T08:52:51.981Z</time></trkpt><trkpt lat="44.1745297" lon="10.4310315"><ele>582.0</ele><time>2026-04-09T08:52:54.977Z</time></trkpt><trkpt lat="44.1745088" lon="10.4309399"><ele>582.0</ele><time>2026-04-09T08:52:57.976Z</time></trkpt><trkpt lat="44.1745075" lon="10.4308416"><ele>582.0</ele><time>2026-04-09T08:53:00.989Z</time></trkpt><trkpt lat="44.1745279" lon="10.4307506"><ele>582.0</ele><time>2026-04-09T08:53:03.987Z</time></trkpt><trkpt lat="44.1745468" lon="10.4306494"><ele>582.0</ele><time>2026-04-09T08:53:06.978Z</time></trkpt><trkpt lat="44.1745118" lon="10.430564"><ele>582.0</ele><time>2026-04-09T08:53:09.974Z</time></trkpt><trkpt lat="44.1744404" lon="10.4305642"><ele>582.0</ele><time>2026-04-09T08:53:12.985Z</time></trkpt><trkpt lat="44.1743597" lon="10.4305877"><ele>582.0</ele><time>2026-04-09T08:53:16.985Z</time></trkpt><trkpt lat="44.1742947" lon="10.4306139"><ele>582.0</ele><time>2026-04-09T08:53:19.97Z</time></trkpt><trkpt lat="44.1742251" lon="10.4306457"><ele>582.0</ele><time>2026-04-09T08:53:22.977Z</time></trkpt><trkpt lat="44.1741555" lon="10.4306217"><ele>582.0</ele><time>2026-04-09T08:53:25.987Z</time></trkpt><trkpt lat="44.1741086" lon="10.4305501"><ele>582.0</ele><time>2026-04-09T08:53:28.975Z</time></trkpt><trkpt lat="44.1740934" lon="10.4304552"><ele>582.0</ele><time>2026-04-09T08:53:31.978Z</time></trkpt><trkpt lat="44.1740836" lon="10.4303623"><ele>582.0</ele><time>2026-04-09T08:53:34.973Z</time></trkpt><trkpt lat="44.1740551" lon="10.4302619"><ele>582.0</ele><time>2026-04-09T08:53:37.983Z</time></trkpt><trkpt lat="44.173982" lon="10.4302197"><ele>583.4285714285714</ele><time>2026-04-09T08:53:40.97Z</time></trkpt><trkpt lat="44.1739166" lon="10.4302036"><ele>584.8571428571428</ele><time>2026-04-09T08:53:42.977Z</time></trkpt><trkpt lat="44.1738489" lon="10.4301847"><ele>586.2857142857142</ele><time>2026-04-09T08:53:44.998Z</time></trkpt><trkpt lat="44.1737766" lon="10.4301644"><ele>587.7142857142857</ele><time>2026-04-09T08:53:46.972Z</time></trkpt><trkpt lat="44.1737055" lon="10.4301555"><ele>589.1428571428571</ele><time>2026-04-09T08:53:48.969Z</time></trkpt><trkpt lat="44.1736285" lon="10.4301422"><ele>590.5714285714286</ele><time>2026-04-09T08:53:50.972Z</time></trkpt><trkpt lat="44.1735532" lon="10.4301268"><ele>592.0</ele><time>2026-04-09T08:53:52.989Z</time></trkpt><trkpt lat="44.1734796" lon="10.4300991"><ele>592.0</ele><time>2026-04-09T08:53:54.999Z</time></trkpt><trkpt lat="44.1734053" lon="10.4300855"><ele>592.0</ele><time>2026-04-09T08:53:56.976Z</time></trkpt><trkpt lat="44.1733356" lon="10.4300798"><ele>592.0</ele><time>2026-04-09T08:53:58.978Z</time></trkpt><trkpt lat="44.1732698" lon="10.4300828"><ele>592.0</ele><time>2026-04-09T08:54:00.983Z</time></trkpt><trkpt lat="44.1732052" lon="10.4300778"><ele>592.0</ele><time>2026-04-09T08:54:02.975Z</time></trkpt><trkpt lat="44.1731223" lon="10.430055"><ele>592.0</ele><time>2026-04-09T08:54:05.978Z</time></trkpt><trkpt lat="44.17306" lon="10.4299889"><ele>592.0</ele><time>2026-04-09T08:54:09.992Z</time></trkpt><trkpt lat="44.1730169" lon="10.429917"><ele>591.4285714285714</ele><time>2026-04-09T08:54:12.988Z</time></trkpt><trkpt lat="44.1729737" lon="10.429849"><ele>590.8571428571429</ele><time>2026-04-09T08:54:15.995Z</time></trkpt><trkpt lat="44.172937" lon="10.4297651"><ele>590.2857142857142</ele><time>2026-04-09T08:54:18.975Z</time></trkpt><trkpt lat="44.1729117" lon="10.4296794"><ele>589.7142857142858</ele><time>2026-04-09T08:54:21.999Z</time></trkpt><trkpt lat="44.1728794" lon="10.4295968"><ele>589.1428571428571</ele><time>2026-04-09T08:54:24.973Z</time></trkpt><trkpt lat="44.1728451" lon="10.4295183"><ele>588.5714285714286</ele><time>2026-04-09T08:54:27.981Z</time></trkpt><trkpt lat="44.1728061" lon="10.4294165"><ele>588.0</ele><time>2026-04-09T08:54:31.992Z</time></trkpt><trkpt lat="44.1727739" lon="10.4293369"><ele>588.0</ele><time>2026-04-09T08:54:34.973Z</time></trkpt><trkpt lat="44.1727384" lon="10.429253"><ele>588.0</ele><time>2026-04-09T08:54:37.974Z</time></trkpt><trkpt lat="44.1727132" lon="10.4291681"><ele>588.0</ele><time>2026-04-09T08:54:40.993Z</time></trkpt><trkpt lat="44.1726855" lon="10.4290839"><ele>588.0</ele><time>2026-04-09T08:54:43.974Z</time></trkpt><trkpt lat="44.1726533" lon="10.429002"><ele>588.0</ele><time>2026-04-09T08:54:46.985Z</time></trkpt><trkpt lat="44.1726194" lon="10.4289102"><ele>588.0</ele><time>2026-04-09T08:54:51.981Z</time></trkpt><trkpt lat="44.1725792" lon="10.4288076"><ele>588.0</ele><time>2026-04-09T08:54:55.979Z</time></trkpt><trkpt lat="44.1725542" lon="10.4287123"><ele>587.2857142857143</ele><time>2026-04-09T08:54:58.977Z</time></trkpt><trkpt lat="44.172529" lon="10.428618"><ele>586.5714285714286</ele><time>2026-04-09T08:55:01.972Z</time></trkpt><trkpt lat="44.1725062" lon="10.4285283"><ele>585.8571428571429</ele><time>2026-04-09T08:55:04.979Z</time></trkpt><trkpt lat="44.1724756" lon="10.4284364"><ele>585.1428571428571</ele><time>2026-04-09T08:55:07.971Z</time></trkpt><trkpt lat="44.1724236" lon="10.4283476"><ele>584.4285714285714</ele><time>2026-04-09T08:55:11.978Z</time></trkpt><trkpt lat="44.1723697" lon="10.4282962"><ele>583.7142857142858</ele><time>2026-04-09T08:55:14.978Z</time></trkpt><trkpt lat="44.1723044" lon="10.4282415"><ele>583.0</ele><time>2026-04-09T08:55:18.985Z</time></trkpt><trkpt lat="44.1722516" lon="10.4281585"><ele>583.0000000000001</ele><time>2026-04-09T08:55:22.981Z</time></trkpt><trkpt lat="44.1722035" lon="10.4280987"><ele>583.0</ele><time>2026-04-09T08:55:25.975Z</time></trkpt><trkpt lat="44.1721377" lon="10.4280552"><ele>583.0</ele><time>2026-04-09T08:55:29.975Z</time></trkpt><trkpt lat="44.1720727" lon="10.428013"><ele>583.0</ele><time>2026-04-09T08:55:33.97Z</time></trkpt><trkpt lat="44.1719926" lon="10.4279837"><ele>583.0</ele><time>2026-04-09T08:55:37.98Z</time></trkpt><trkpt lat="44.1719379" lon="10.4279253"><ele>583.0000000000001</ele><time>2026-04-09T08:55:40.988Z</time></trkpt><trkpt lat="44.1719389" lon="10.4278151"><ele>583.0</ele><time>2026-04-09T08:55:43.977Z</time></trkpt><trkpt lat="44.1719685" lon="10.4277327"><ele>585.1666666666667</ele><time>2026-04-09T08:55:45.981Z</time></trkpt><trkpt lat="44.1720053" lon="10.4276412"><ele>587.3333333333334</ele><time>2026-04-09T08:55:47.976Z</time></trkpt><trkpt lat="44.1720512" lon="10.4275432"><ele>589.5</ele><time>2026-04-09T08:55:49.968Z</time></trkpt><trkpt lat="44.1721016" lon="10.4274499"><ele>591.6666666666666</ele><time>2026-04-09T08:55:51.972Z</time></trkpt><trkpt lat="44.1721431" lon="10.427353"><ele>593.8333333333333</ele><time>2026-04-09T08:55:53.97Z</time></trkpt><trkpt lat="44.1721621" lon="10.4272473"><ele>596.0</ele><time>2026-04-09T08:55:55.97Z</time></trkpt><trkpt lat="44.1721357" lon="10.42715"><ele>596.0</ele><time>2026-04-09T08:55:57.974Z</time></trkpt><trkpt lat="44.1720588" lon="10.4270992"><ele>596.0</ele><time>2026-04-09T08:55:59.976Z</time></trkpt><trkpt lat="44.171981" lon="10.427131"><ele>596.0</ele><time>2026-04-09T08:56:01.971Z</time></trkpt><trkpt lat="44.1719175" lon="10.4271713"><ele>596.0</ele><time>2026-04-09T08:56:03.974Z</time></trkpt><trkpt lat="44.1718367" lon="10.4272169"><ele>596.0</ele><time>2026-04-09T08:56:05.974Z</time></trkpt><trkpt lat="44.17175" lon="10.4272594"><ele>596.0</ele><time>2026-04-09T08:56:07.972Z</time></trkpt><trkpt lat="44.1716564" lon="10.4272974"><ele>596.0</ele><time>2026-04-09T08:56:09.98Z</time></trkpt><trkpt lat="44.1715623" lon="10.4273148"><ele>596.0</ele><time>2026-04-09T08:56:11.984Z</time></trkpt><trkpt lat="44.1714591" lon="10.4273052"><ele>596.0</ele><time>2026-04-09T08:56:13.98Z</time></trkpt><trkpt lat="44.1713547" lon="10.4272976"><ele>596.0</ele><time>2026-04-09T08:56:15.979Z</time></trkpt><trkpt lat="44.1712511" lon="10.4272912"><ele>596.0</ele><time>2026-04-09T08:56:17.991Z</time></trkpt><trkpt lat="44.171132" lon="10.4272768"><ele>597.6</ele><time>2026-04-09T08:56:19.974Z</time></trkpt><trkpt lat="44.1709935" lon="10.4272457"><ele>599.2</ele><time>2026-04-09T08:56:21.97Z</time></trkpt><trkpt lat="44.1709179" lon="10.4272255"><ele>600.8</ele><time>2026-04-09T08:56:22.97Z</time></trkpt><trkpt lat="44.1708374" lon="10.4271826"><ele>602.4</ele><time>2026-04-09T08:56:23.987Z</time></trkpt><trkpt lat="44.17078" lon="10.4270973"><ele>604.0</ele><time>2026-04-09T08:56:24.98Z</time></trkpt><trkpt lat="44.1707272" lon="10.4269933"><ele>598.0</ele><time>2026-04-09T08:56:25.99Z</time></trkpt><trkpt lat="44.170678" lon="10.4268771"><ele>592.0</ele><time>2026-04-09T08:56:26.972Z</time></trkpt><trkpt lat="44.1706217" lon="10.4267464"><ele>586.0</ele><time>2026-04-09T08:56:27.971Z</time></trkpt><trkpt lat="44.1705682" lon="10.4266213"><ele>580.0</ele><time>2026-04-09T08:56:28.972Z</time></trkpt><trkpt lat="44.1705031" lon="10.4264906"><ele>574.0</ele><time>2026-04-09T08:56:29.97Z</time></trkpt><trkpt lat="44.1704248" lon="10.426372"><ele>579.0</ele><time>2026-04-09T08:56:30.977Z</time></trkpt><trkpt lat="44.1703382" lon="10.4262656"><ele>584.0</ele><time>2026-04-09T08:56:31.971Z</time></trkpt><trkpt lat="44.170219" lon="10.4262322"><ele>589.0</ele><time>2026-04-09T08:56:32.986Z</time></trkpt><trkpt lat="44.1701174" lon="10.4261978"><ele>594.0</ele><time>2026-04-09T08:56:33.969Z</time></trkpt><trkpt lat="44.1700159" lon="10.426178"><ele>599.0</ele><time>2026-04-09T08:56:34.996Z</time></trkpt><trkpt lat="44.1699204" lon="10.4261794"><ele>597.5</ele><time>2026-04-09T08:56:35.969Z</time></trkpt><trkpt lat="44.1698319" lon="10.4261944"><ele>596.0</ele><time>2026-04-09T08:56:36.977Z</time></trkpt><trkpt lat="44.1697532" lon="10.4262077"><ele>594.5</ele><time>2026-04-09T08:56:37.971Z</time></trkpt><trkpt lat="44.1696779" lon="10.4262181"><ele>593.0</ele><time>2026-04-09T08:56:38.984Z</time></trkpt><trkpt lat="44.1696054" lon="10.4262171"><ele>591.5</ele><time>2026-04-09T08:56:39.984Z</time></trkpt><trkpt lat="44.169535" lon="10.4262067"><ele>590.0</ele><time>2026-04-09T08:56:40.981Z</time></trkpt><trkpt lat="44.1694388" lon="10.4260927"><ele>590.0</ele><time>2026-04-09T08:56:42.985Z</time></trkpt><trkpt lat="44.1693738" lon="10.4259595"><ele>590.0</ele><time>2026-04-09T08:56:44.985Z</time></trkpt><trkpt lat="44.1693147" lon="10.4258466"><ele>590.0</ele><time>2026-04-09T08:56:46.986Z</time></trkpt><trkpt lat="44.1692501" lon="10.4257565"><ele>590.0</ele><time>2026-04-09T08:56:48.977Z</time></trkpt><trkpt lat="44.1691812" lon="10.4257101"><ele>590.0</ele><time>2026-04-09T08:56:50.99Z</time></trkpt><trkpt lat="44.1691001" lon="10.4256584"><ele>590.0000000000001</ele><time>2026-04-09T08:56:53.967Z</time></trkpt><trkpt lat="44.1690299" lon="10.4256091"><ele>590.0</ele><time>2026-04-09T08:56:57.993Z</time></trkpt><trkpt lat="44.1689693" lon="10.4255711"><ele>590.0</ele><time>2026-04-09T08:57:00.973Z</time></trkpt><trkpt lat="44.1688914" lon="10.425564"><ele>590.0</ele><time>2026-04-09T08:57:04.977Z</time></trkpt><trkpt lat="44.1688104" lon="10.42559"><ele>590.0</ele><time>2026-04-09T08:57:08.974Z</time></trkpt><trkpt lat="44.1687447" lon="10.4256442"><ele>590.0000000000001</ele><time>2026-04-09T08:57:12.973Z</time></trkpt><trkpt lat="44.1686796" lon="10.4256457"><ele>590.0</ele><time>2026-04-09T08:57:15.978Z</time></trkpt><trkpt lat="44.1686125" lon="10.4256113"><ele>588.6666666666666</ele><time>2026-04-09T08:57:19.975Z</time></trkpt><trkpt lat="44.1685535" lon="10.4255636"><ele>587.3333333333333</ele><time>2026-04-09T08:57:23.974Z</time></trkpt><trkpt lat="44.1684782" lon="10.4255272"><ele>586.0</ele><time>2026-04-09T08:57:27.974Z</time></trkpt><trkpt lat="44.168416" lon="10.4255013"><ele>584.6666666666666</ele><time>2026-04-09T08:57:30.974Z</time></trkpt><trkpt lat="44.1683409" lon="10.4254578"><ele>583.3333333333334</ele><time>2026-04-09T08:57:34.995Z</time></trkpt><trkpt lat="44.168263" lon="10.4254202"><ele>582.0</ele><time>2026-04-09T08:57:38.977Z</time></trkpt><trkpt lat="44.1681858" lon="10.4253851"><ele>587.4285714285714</ele><time>2026-04-09T08:57:42.971Z</time></trkpt><trkpt lat="44.1681141" lon="10.4253363"><ele>592.8571428571428</ele><time>2026-04-09T08:57:46.977Z</time></trkpt><trkpt lat="44.1680612" lon="10.4252816"><ele>598.2857142857142</ele><time>2026-04-09T08:57:49.985Z</time></trkpt><trkpt lat="44.1679841" lon="10.4252511"><ele>603.7142857142857</ele><time>2026-04-09T08:57:53.979Z</time></trkpt><trkpt lat="44.1679207" lon="10.4252569"><ele>609.1428571428571</ele><time>2026-04-09T08:57:56.977Z</time></trkpt><trkpt lat="44.1678541" lon="10.4252617"><ele>614.5714285714286</ele><time>2026-04-09T08:57:59.972Z</time></trkpt><trkpt lat="44.1677742" lon="10.4252536"><ele>620.0</ele><time>2026-04-09T08:58:03.974Z</time></trkpt><trkpt lat="44.1676991" lon="10.4252516"><ele>620.0</ele><time>2026-04-09T08:58:07.968Z</time></trkpt><trkpt lat="44.1676342" lon="10.4252499"><ele>620.0</ele><time>2026-04-09T08:58:10.976Z</time></trkpt><trkpt lat="44.1675536" lon="10.4252184"><ele>620.0</ele><time>2026-04-09T08:58:14.971Z</time></trkpt><trkpt lat="44.1674879" lon="10.4251816"><ele>620.0</ele><time>2026-04-09T08:58:18.978Z</time></trkpt><trkpt lat="44.1674182" lon="10.4251311"><ele>620.0</ele><time>2026-04-09T08:58:23.98Z</time></trkpt><trkpt lat="44.1673562" lon="10.425104"><ele>620.0</ele><time>2026-04-09T08:58:27.988Z</time></trkpt><trkpt lat="44.1672802" lon="10.4250691"><ele>620.0</ele><time>2026-04-09T08:58:31.991Z</time></trkpt><trkpt lat="44.1672105" lon="10.4250396"><ele>617.0</ele><time>2026-04-09T08:58:35.978Z</time></trkpt><trkpt lat="44.1671432" lon="10.4250199"><ele>614.0</ele><time>2026-04-09T08:58:38.979Z</time></trkpt><trkpt lat="44.1670782" lon="10.4249961"><ele>611.0</ele><time>2026-04-09T08:58:41.976Z</time></trkpt><trkpt lat="44.1670038" lon="10.4249499"><ele>608.0</ele><time>2026-04-09T08:58:45.982Z</time></trkpt><trkpt lat="44.1669497" lon="10.4249028"><ele>605.0</ele><time>2026-04-09T08:58:49.978Z</time></trkpt><trkpt lat="44.1668866" lon="10.424835"><ele>602.0</ele><time>2026-04-09T08:58:53.984Z</time></trkpt><trkpt lat="44.1668364" lon="10.4247712"><ele>599.0</ele><time>2026-04-09T08:58:56.991Z</time></trkpt><trkpt lat="44.1667963" lon="10.4246904"><ele>602.5714285714286</ele><time>2026-04-09T08:58:59.976Z</time></trkpt><trkpt lat="44.1667668" lon="10.4245975"><ele>606.1428571428571</ele><time>2026-04-09T08:59:03.971Z</time></trkpt><trkpt lat="44.1667653" lon="10.4245017"><ele>609.7142857142858</ele><time>2026-04-09T08:59:07.999Z</time></trkpt><trkpt lat="44.1667687" lon="10.4243984"><ele>613.2857142857142</ele><time>2026-04-09T08:59:12.977Z</time></trkpt><trkpt lat="44.1667453" lon="10.4242964"><ele>616.8571428571428</ele><time>2026-04-09T08:59:16.996Z</time></trkpt><trkpt lat="44.1667307" lon="10.4242097"><ele>620.4285714285714</ele><time>2026-04-09T08:59:19.975Z</time></trkpt><trkpt lat="44.1667179" lon="10.4241184"><ele>624.0</ele><time>2026-04-09T08:59:22.975Z</time></trkpt><trkpt lat="44.1666827" lon="10.4240246"><ele>624.0</ele><time>2026-04-09T08:59:26.995Z</time></trkpt><trkpt lat="44.1666293" lon="10.4239408"><ele>624.0</ele><time>2026-04-09T08:59:30.98Z</time></trkpt><trkpt lat="44.1665608" lon="10.4238925"><ele>624.0</ele><time>2026-04-09T08:59:34.972Z</time></trkpt><trkpt lat="44.166495" lon="10.4238634"><ele>624.0</ele><time>2026-04-09T08:59:38.977Z</time></trkpt><trkpt lat="44.1664334" lon="10.4238444"><ele>624.0</ele><time>2026-04-09T08:59:41.976Z</time></trkpt><trkpt lat="44.1663597" lon="10.4237941"><ele>624.0</ele><time>2026-04-09T08:59:45.984Z</time></trkpt><trkpt lat="44.1663095" lon="10.4237328"><ele>624.0</ele><time>2026-04-09T08:59:48.994Z</time></trkpt><trkpt lat="44.1662522" lon="10.4236575"><ele>624.4285714285714</ele><time>2026-04-09T08:59:52.979Z</time></trkpt><trkpt lat="44.1662004" lon="10.4235893"><ele>624.8571428571428</ele><time>2026-04-09T08:59:56.982Z</time></trkpt><trkpt lat="44.166143" lon="10.4235225"><ele>625.2857142857142</ele><time>2026-04-09T09:00:00.986Z</time></trkpt><trkpt lat="44.1660855" lon="10.4234722"><ele>625.7142857142858</ele><time>2026-04-09T09:00:04.974Z</time></trkpt><trkpt lat="44.1660091" lon="10.4234581"><ele>626.1428571428571</ele><time>2026-04-09T09:00:08.997Z</time></trkpt><trkpt lat="44.1659403" lon="10.4234528"><ele>626.5714285714286</ele><time>2026-04-09T09:00:11.983Z</time></trkpt><trkpt lat="44.1658771" lon="10.4234343"><ele>627.0</ele><time>2026-04-09T09:00:14.985Z</time></trkpt><trkpt lat="44.1658195" lon="10.4233697"><ele>627.0</ele><time>2026-04-09T09:00:18.985Z</time></trkpt><trkpt lat="44.1658257" lon="10.4232802"><ele>627.0</ele><time>2026-04-09T09:00:22.979Z</time></trkpt><trkpt lat="44.1658926" lon="10.423266"><ele>627.0</ele><time>2026-04-09T09:00:27.97Z</time></trkpt><trkpt lat="44.1659696" lon="10.4232749"><ele>627.0</ele><time>2026-04-09T09:00:32.979Z</time></trkpt><trkpt lat="44.166045" lon="10.4232937"><ele>627.0</ele><time>2026-04-09T09:00:36.979Z</time></trkpt><trkpt lat="44.1661276" lon="10.4232978"><ele>627.0</ele><time>2026-04-09T09:00:40.99Z</time></trkpt><trkpt lat="44.1661971" lon="10.4233429"><ele>627.0</ele><time>2026-04-09T09:00:44.971Z</time></trkpt><trkpt lat="44.1662543" lon="10.4234017"><ele>627.0</ele><time>2026-04-09T09:00:48.979Z</time></trkpt><trkpt lat="44.1663175" lon="10.4234655"><ele>627.0</ele><time>2026-04-09T09:00:52.978Z</time></trkpt><trkpt lat="44.1663917" lon="10.4234758"><ele>627.0</ele><time>2026-04-09T09:00:56.972Z</time></trkpt><trkpt lat="44.1664307" lon="10.423387"><ele>627.0</ele><time>2026-04-09T09:01:00.985Z</time></trkpt><trkpt lat="44.1663871" lon="10.4232916"><ele>627.0</ele><time>2026-04-09T09:01:05.988Z</time></trkpt><trkpt lat="44.1663386" lon="10.4232161"><ele>627.0</ele><time>2026-04-09T09:01:09.985Z</time></trkpt><trkpt lat="44.1662814" lon="10.4231499"><ele>627.0</ele><time>2026-04-09T09:01:13.978Z</time></trkpt><trkpt lat="44.1662199" lon="10.4230939"><ele>627.0</ele><time>2026-04-09T09:01:17.995Z</time></trkpt><trkpt lat="44.1661573" lon="10.4230213"><ele>627.0</ele><time>2026-04-09T09:01:21.979Z</time></trkpt><trkpt lat="44.1660888" lon="10.4229645"><ele>627.0</ele><time>2026-04-09T09:01:25.987Z</time></trkpt><trkpt lat="44.1660231" lon="10.4229011"><ele>627.0</ele><time>2026-04-09T09:01:29.986Z</time></trkpt><trkpt lat="44.165965" lon="10.4228222"><ele>627.0</ele><time>2026-04-09T09:01:33.974Z</time></trkpt><trkpt lat="44.1659358" lon="10.4227311"><ele>629.8571428571429</ele><time>2026-04-09T09:01:37.983Z</time></trkpt><trkpt lat="44.1659199" lon="10.4226295"><ele>632.7142857142857</ele><time>2026-04-09T09:01:41.993Z</time></trkpt><trkpt lat="44.1659189" lon="10.4225207"><ele>635.5714285714286</ele><time>2026-04-09T09:01:45.975Z</time></trkpt><trkpt lat="44.1659211" lon="10.4224247"><ele>638.4285714285714</ele><time>2026-04-09T09:01:49.996Z</time></trkpt><trkpt lat="44.1659347" lon="10.4223326"><ele>641.2857142857143</ele><time>2026-04-09T09:01:53.993Z</time></trkpt><trkpt lat="44.1659474" lon="10.4222265"><ele>644.1428571428571</ele><time>2026-04-09T09:01:57.989Z</time></trkpt><trkpt lat="44.165962" lon="10.4221393"><ele>647.0</ele><time>2026-04-09T09:02:00.98Z</time></trkpt><trkpt lat="44.165986" lon="10.42204"><ele>649.3333333333333</ele><time>2026-04-09T09:02:04.982Z</time></trkpt><trkpt lat="44.1659959" lon="10.4219388"><ele>651.6666666666666</ele><time>2026-04-09T09:02:08.974Z</time></trkpt><trkpt lat="44.1660098" lon="10.4218382"><ele>654.0</ele><time>2026-04-09T09:02:12.985Z</time></trkpt><trkpt lat="44.166027" lon="10.4217247"><ele>656.3333333333334</ele><time>2026-04-09T09:02:16.973Z</time></trkpt><trkpt lat="44.1660334" lon="10.4216293"><ele>658.6666666666667</ele><time>2026-04-09T09:02:21.969Z</time></trkpt><trkpt lat="44.1660371" lon="10.4215146"><ele>661.0</ele><time>2026-04-09T09:02:25.99Z</time></trkpt><trkpt lat="44.1660242" lon="10.4214093"><ele>662.2857142857142</ele><time>2026-04-09T09:02:29.969Z</time></trkpt><trkpt lat="44.1660229" lon="10.4213051"><ele>663.5714285714286</ele><time>2026-04-09T09:02:33.976Z</time></trkpt><trkpt lat="44.1660156" lon="10.4212074"><ele>664.8571428571429</ele><time>2026-04-09T09:02:36.995Z</time></trkpt><trkpt lat="44.1660149" lon="10.4210932"><ele>666.1428571428571</ele><time>2026-04-09T09:02:40.972Z</time></trkpt><trkpt lat="44.166012" lon="10.421005"><ele>667.4285714285714</ele><time>2026-04-09T09:02:43.968Z</time></trkpt><trkpt lat="44.1659969" lon="10.4208959"><ele>668.7142857142857</ele><time>2026-04-09T09:02:47.992Z</time></trkpt><trkpt lat="44.1659881" lon="10.4207871"><ele>670.0</ele><time>2026-04-09T09:02:51.979Z</time></trkpt><trkpt lat="44.1659851" lon="10.420686"><ele>669.9999999999999</ele><time>2026-04-09T09:02:55.978Z</time></trkpt><trkpt lat="44.1659742" lon="10.4205921"><ele>670.0</ele><time>2026-04-09T09:02:59.98Z</time></trkpt><trkpt lat="44.1659488" lon="10.4205089"><ele>670.0</ele><time>2026-04-09T09:03:01.986Z</time></trkpt><trkpt lat="44.165891" lon="10.420441"><ele>670.0</ele><time>2026-04-09T09:03:05.98Z</time></trkpt><trkpt lat="44.16582" lon="10.4204014"><ele>670.0</ele><time>2026-04-09T09:03:09.993Z</time></trkpt><trkpt lat="44.1657544" lon="10.4203412"><ele>669.9999999999999</ele><time>2026-04-09T09:03:13.98Z</time></trkpt><trkpt lat="44.1657185" lon="10.4202625"><ele>670.0</ele><time>2026-04-09T09:03:16.982Z</time></trkpt><trkpt lat="44.1656861" lon="10.4201866"><ele>669.5714285714286</ele><time>2026-04-09T09:03:19.982Z</time></trkpt><trkpt lat="44.1656492" lon="10.4201035"><ele>669.1428571428571</ele><time>2026-04-09T09:03:22.98Z</time></trkpt><trkpt lat="44.1656165" lon="10.4200252"><ele>668.7142857142858</ele><time>2026-04-09T09:03:25.999Z</time></trkpt><trkpt lat="44.16559" lon="10.4199382"><ele>668.2857142857142</ele><time>2026-04-09T09:03:28.986Z</time></trkpt><trkpt lat="44.1655614" lon="10.4198287"><ele>667.8571428571429</ele><time>2026-04-09T09:03:32.975Z</time></trkpt><trkpt lat="44.1655364" lon="10.4197417"><ele>667.4285714285714</ele><time>2026-04-09T09:03:35.981Z</time></trkpt><trkpt lat="44.1655067" lon="10.4196609"><ele>667.0</ele><time>2026-04-09T09:03:38.977Z</time></trkpt><trkpt lat="44.1654896" lon="10.4195709"><ele>667.0000000000001</ele><time>2026-04-09T09:03:41.977Z</time></trkpt><trkpt lat="44.1654767" lon="10.4194788"><ele>667.0</ele><time>2026-04-09T09:03:44.997Z</time></trkpt><trkpt lat="44.16545" lon="10.4193887"><ele>667.0</ele><time>2026-04-09T09:03:47.997Z</time></trkpt><trkpt lat="44.1654125" lon="10.4193151"><ele>667.0</ele><time>2026-04-09T09:03:50.977Z</time></trkpt><trkpt lat="44.1653726" lon="10.4192169"><ele>667.0</ele><time>2026-04-09T09:03:54.996Z</time></trkpt><trkpt lat="44.1653457" lon="10.4191131"><ele>667.0000000000001</ele><time>2026-04-09T09:03:58.967Z</time></trkpt><trkpt lat="44.1652999" lon="10.4190172"><ele>667.0</ele><time>2026-04-09T09:04:02.981Z</time></trkpt><trkpt lat="44.1652787" lon="10.4189119"><ele>667.0000000000001</ele><time>2026-04-09T09:04:06.979Z</time></trkpt><trkpt lat="44.1652683" lon="10.4188225"><ele>667.0</ele><time>2026-04-09T09:04:09.977Z</time></trkpt><trkpt lat="44.1653132" lon="10.4187486"><ele>667.0</ele><time>2026-04-09T09:04:13.996Z</time></trkpt><trkpt lat="44.1653822" lon="10.4187903"><ele>667.0</ele><time>2026-04-09T09:04:17.974Z</time></trkpt><trkpt lat="44.165449" lon="10.4188332"><ele>667.0</ele><time>2026-04-09T09:04:21.978Z</time></trkpt><trkpt lat="44.1655151" lon="10.418832"><ele>667.0000000000001</ele><time>2026-04-09T09:04:24.987Z</time></trkpt><trkpt lat="44.1655804" lon="10.4188413"><ele>667.0</ele><time>2026-04-09T09:04:29.985Z</time></trkpt><trkpt lat="44.1656465" lon="10.4189107"><ele>670.3333333333334</ele><time>2026-04-09T09:04:33.977Z</time></trkpt><trkpt lat="44.1657129" lon="10.4189819"><ele>673.6666666666667</ele><time>2026-04-09T09:04:37.97Z</time></trkpt><trkpt lat="44.1657487" lon="10.4190795"><ele>677.0</ele><time>2026-04-09T09:04:39.979Z</time></trkpt><trkpt lat="44.1658104" lon="10.4191335"><ele>680.3333333333334</ele><time>2026-04-09T09:04:43.975Z</time></trkpt><trkpt lat="44.1658706" lon="10.4191836"><ele>683.6666666666666</ele><time>2026-04-09T09:04:47.967Z</time></trkpt><trkpt lat="44.1659423" lon="10.4192152"><ele>687.0</ele><time>2026-04-09T09:04:50.974Z</time></trkpt><trkpt lat="44.1660156" lon="10.4192534"><ele>687.0</ele><time>2026-04-09T09:04:54.972Z</time></trkpt><trkpt lat="44.1660798" lon="10.4193096"><ele>687.0</ele><time>2026-04-09T09:04:58.974Z</time></trkpt><trkpt lat="44.1661386" lon="10.419348"><ele>687.0</ele><time>2026-04-09T09:05:01.977Z</time></trkpt><trkpt lat="44.1662139" lon="10.4193119"><ele>687.0</ele><time>2026-04-09T09:05:05.971Z</time></trkpt><trkpt lat="44.1662269" lon="10.4192221"><ele>687.0</ele><time>2026-04-09T09:05:09.994Z</time></trkpt><trkpt lat="44.1661846" lon="10.4191367"><ele>687.0</ele><time>2026-04-09T09:05:13.967Z</time></trkpt><trkpt lat="44.1661496" lon="10.4190336"><ele>687.0</ele><time>2026-04-09T09:05:17.976Z</time></trkpt><trkpt lat="44.1661095" lon="10.4189631"><ele>687.0</ele><time>2026-04-09T09:05:20.971Z</time></trkpt><trkpt lat="44.1660783" lon="10.4188867"><ele>687.0</ele><time>2026-04-09T09:05:23.974Z</time></trkpt><trkpt lat="44.1660553" lon="10.4188014"><ele>687.0</ele><time>2026-04-09T09:05:26.98Z</time></trkpt><trkpt lat="44.1660149" lon="10.4187044"><ele>687.0</ele><time>2026-04-09T09:05:30.971Z</time></trkpt><trkpt lat="44.1659745" lon="10.4186077"><ele>687.0</ele><time>2026-04-09T09:05:34.977Z</time></trkpt><trkpt lat="44.1659425" lon="10.4185118"><ele>687.0</ele><time>2026-04-09T09:05:38.973Z</time></trkpt><trkpt lat="44.1659173" lon="10.418421"><ele>687.0</ele><time>2026-04-09T09:05:41.978Z</time></trkpt><trkpt lat="44.1658706" lon="10.4183265"><ele>686.7142857142858</ele><time>2026-04-09T09:05:45.978Z</time></trkpt><trkpt lat="44.1658199" lon="10.4182653"><ele>686.4285714285713</ele><time>2026-04-09T09:05:48.982Z</time></trkpt><trkpt lat="44.1657544" lon="10.4182011"><ele>686.1428571428571</ele><time>2026-04-09T09:05:52.972Z</time></trkpt><trkpt lat="44.1657041" lon="10.4181412"><ele>685.8571428571429</ele><time>2026-04-09T09:05:55.974Z</time></trkpt><trkpt lat="44.1656592" lon="10.4180796"><ele>685.5714285714287</ele><time>2026-04-09T09:05:58.979Z</time></trkpt><trkpt lat="44.1656148" lon="10.4179887"><ele>685.2857142857142</ele><time>2026-04-09T09:06:02.977Z</time></trkpt><trkpt lat="44.1655869" lon="10.4179026"><ele>685.0</ele><time>2026-04-09T09:06:05.98Z</time></trkpt><trkpt lat="44.1655572" lon="10.4177966"><ele>692.3333333333334</ele><time>2026-04-09T09:06:09.976Z</time></trkpt><trkpt lat="44.1655233" lon="10.4177039"><ele>699.6666666666667</ele><time>2026-04-09T09:06:13.97Z</time></trkpt><trkpt lat="44.1654569" lon="10.4176367"><ele>707.0</ele><time>2026-04-09T09:06:17.976Z</time></trkpt><trkpt lat="44.1653773" lon="10.4176055"><ele>714.3333333333334</ele><time>2026-04-09T09:06:21.994Z</time></trkpt><trkpt lat="44.165303" lon="10.4176139"><ele>721.6666666666666</ele><time>2026-04-09T09:06:25.974Z</time></trkpt><trkpt lat="44.1652281" lon="10.4176085"><ele>729.0</ele><time>2026-04-09T09:06:29.968Z</time></trkpt><trkpt lat="44.1651531" lon="10.4176212"><ele>729.0</ele><time>2026-04-09T09:06:33.983Z</time></trkpt><trkpt lat="44.1650883" lon="10.4176599"><ele>729.0</ele><time>2026-04-09T09:06:36.97Z</time></trkpt><trkpt lat="44.1650253" lon="10.417691"><ele>729.0</ele><time>2026-04-09T09:06:39.97Z</time></trkpt><trkpt lat="44.1649495" lon="10.4177289"><ele>729.0</ele><time>2026-04-09T09:06:43.982Z</time></trkpt><trkpt lat="44.1648709" lon="10.4177133"><ele>729.0</ele><time>2026-04-09T09:06:47.971Z</time></trkpt><trkpt lat="44.1647989" lon="10.417664"><ele>729.0</ele><time>2026-04-09T09:06:51.976Z</time></trkpt><trkpt lat="44.1647424" lon="10.4176169"><ele>729.0</ele><time>2026-04-09T09:06:54.973Z</time></trkpt><trkpt lat="44.1646679" lon="10.4175646"><ele>729.1428571428572</ele><time>2026-04-09T09:06:58.979Z</time></trkpt><trkpt lat="44.1646055" lon="10.417549"><ele>729.2857142857142</ele><time>2026-04-09T09:07:01.97Z</time></trkpt><trkpt lat="44.164533" lon="10.4175758"><ele>729.4285714285714</ele><time>2026-04-09T09:07:05.973Z</time></trkpt><trkpt lat="44.1644593" lon="10.4176044"><ele>729.5714285714287</ele><time>2026-04-09T09:07:09.972Z</time></trkpt><trkpt lat="44.1643955" lon="10.4176486"><ele>729.7142857142858</ele><time>2026-04-09T09:07:13.973Z</time></trkpt><trkpt lat="44.1643172" lon="10.4176671"><ele>729.8571428571429</ele><time>2026-04-09T09:07:17.971Z</time></trkpt><trkpt lat="44.1642539" lon="10.4176705"><ele>730.0</ele><time>2026-04-09T09:07:20.971Z</time></trkpt><trkpt lat="44.1641722" lon="10.4176704"><ele>730.0000000000001</ele><time>2026-04-09T09:07:24.897Z</time></trkpt><trkpt lat="44.1641011" lon="10.4176645"><ele>730.0</ele><time>2026-04-09T09:07:27.99Z</time></trkpt><trkpt lat="44.1640327" lon="10.4176551"><ele>730.0</ele><time>2026-04-09T09:07:30.983Z</time></trkpt><trkpt lat="44.1639741" lon="10.4176201"><ele>730.0</ele><time>2026-04-09T09:07:33.973Z</time></trkpt><trkpt lat="44.163911" lon="10.4175516"><ele>730.0</ele><time>2026-04-09T09:07:37.971Z</time></trkpt><trkpt lat="44.1638484" lon="10.4174961"><ele>730.0000000000001</ele><time>2026-04-09T09:07:40.969Z</time></trkpt><trkpt lat="44.1637923" lon="10.417439"><ele>730.0</ele><time>2026-04-09T09:07:43.977Z</time></trkpt><trkpt lat="44.1637405" lon="10.4173619"><ele>731.0000000000001</ele><time>2026-04-09T09:07:47.974Z</time></trkpt><trkpt lat="44.1636719" lon="10.4173168"><ele>732.0</ele><time>2026-04-09T09:07:51.98Z</time></trkpt><trkpt lat="44.1636147" lon="10.4172732"><ele>733.0</ele><time>2026-04-09T09:07:54.971Z</time></trkpt><trkpt lat="44.1635434" lon="10.4172296"><ele>734.0</ele><time>2026-04-09T09:07:57.974Z</time></trkpt><trkpt lat="44.1634842" lon="10.4171799"><ele>735.0</ele><time>2026-04-09T09:08:00.973Z</time></trkpt><trkpt lat="44.1634498" lon="10.4170947"><ele>736.0000000000001</ele><time>2026-04-09T09:08:04.973Z</time></trkpt><trkpt lat="44.1634439" lon="10.4170002"><ele>737.0</ele><time>2026-04-09T09:08:08.972Z</time></trkpt><trkpt lat="44.1634543" lon="10.4169042"><ele>737.0000000000001</ele><time>2026-04-09T09:08:12.976Z</time></trkpt><trkpt lat="44.1634444" lon="10.4167881"><ele>737.0</ele><time>2026-04-09T09:08:16.988Z</time></trkpt><trkpt lat="44.1634204" lon="10.4166984"><ele>737.0</ele><time>2026-04-09T09:08:19.971Z</time></trkpt><trkpt lat="44.1633932" lon="10.4165958"><ele>737.0</ele><time>2026-04-09T09:08:22.979Z</time></trkpt><trkpt lat="44.1633673" lon="10.4164955"><ele>737.0</ele><time>2026-04-09T09:08:25.984Z</time></trkpt><trkpt lat="44.1633474" lon="10.4164022"><ele>737.0000000000001</ele><time>2026-04-09T09:08:28.977Z</time></trkpt><trkpt lat="44.1632975" lon="10.416336"><ele>737.0</ele><time>2026-04-09T09:08:31.972Z</time></trkpt><trkpt lat="44.1632361" lon="10.4162884"><ele>743.3333333333333</ele><time>2026-04-09T09:08:34.974Z</time></trkpt><trkpt lat="44.1631617" lon="10.4162641"><ele>749.6666666666666</ele><time>2026-04-09T09:08:38.971Z</time></trkpt><trkpt lat="44.163086" lon="10.4162446"><ele>756.0</ele><time>2026-04-09T09:08:42.974Z</time></trkpt><trkpt lat="44.1630099" lon="10.4162158"><ele>762.3333333333333</ele><time>2026-04-09T09:08:46.986Z</time></trkpt><trkpt lat="44.1629287" lon="10.4161974"><ele>768.6666666666666</ele><time>2026-04-09T09:08:50.976Z</time></trkpt><trkpt lat="44.1628458" lon="10.4162097"><ele>775.0</ele><time>2026-04-09T09:08:54.988Z</time></trkpt><trkpt lat="44.1627798" lon="10.4162333"><ele>774.9999999999999</ele><time>2026-04-09T09:08:57.99Z</time></trkpt><trkpt lat="44.1627217" lon="10.416271"><ele>775.0</ele><time>2026-04-09T09:09:00.971Z</time></trkpt><trkpt lat="44.1626458" lon="10.4163177"><ele>775.0</ele><time>2026-04-09T09:09:04.983Z</time></trkpt><trkpt lat="44.1625705" lon="10.4163652"><ele>775.0</ele><time>2026-04-09T09:09:08.974Z</time></trkpt><trkpt lat="44.1625058" lon="10.4164003"><ele>774.9999999999999</ele><time>2026-04-09T09:09:11.982Z</time></trkpt><trkpt lat="44.1624269" lon="10.4164321"><ele>775.0</ele><time>2026-04-09T09:09:15.974Z</time></trkpt><trkpt lat="44.1623562" lon="10.4164594"><ele>772.5714285714286</ele><time>2026-04-09T09:09:19.976Z</time></trkpt><trkpt lat="44.1622947" lon="10.4164866"><ele>770.1428571428571</ele><time>2026-04-09T09:09:22.972Z</time></trkpt><trkpt lat="44.162231" lon="10.4165143"><ele>767.7142857142858</ele><time>2026-04-09T09:09:25.981Z</time></trkpt><trkpt lat="44.1621538" lon="10.4165518"><ele>765.2857142857142</ele><time>2026-04-09T09:09:29.974Z</time></trkpt><trkpt lat="44.1620742" lon="10.416542"><ele>762.8571428571429</ele><time>2026-04-09T09:09:33.975Z</time></trkpt><trkpt lat="44.1620354" lon="10.4164546"><ele>760.4285714285714</ele><time>2026-04-09T09:09:37.977Z</time></trkpt><trkpt lat="44.1619879" lon="10.4163805"><ele>758.0</ele><time>2026-04-09T09:09:40.97Z</time></trkpt><trkpt lat="44.1619248" lon="10.4163186"><ele>758.0</ele><time>2026-04-09T09:09:43.981Z</time></trkpt><trkpt lat="44.1618548" lon="10.4162697"><ele>758.0</ele><time>2026-04-09T09:09:46.979Z</time></trkpt><trkpt lat="44.1617857" lon="10.416216"><ele>758.0</ele><time>2026-04-09T09:09:49.977Z</time></trkpt><trkpt lat="44.1617125" lon="10.4161694"><ele>758.0</ele><time>2026-04-09T09:09:52.975Z</time></trkpt><trkpt lat="44.1616434" lon="10.4161228"><ele>758.0</ele><time>2026-04-09T09:09:55.973Z</time></trkpt><trkpt lat="44.161578" lon="10.4160685"><ele>758.0</ele><time>2026-04-09T09:09:58.975Z</time></trkpt><trkpt lat="44.1615138" lon="10.416004"><ele>752.1666666666666</ele><time>2026-04-09T09:10:01.98Z</time></trkpt><trkpt lat="44.1614538" lon="10.4159307"><ele>746.3333333333333</ele><time>2026-04-09T09:10:04.973Z</time></trkpt><trkpt lat="44.1613956" lon="10.4158499"><ele>740.5</ele><time>2026-04-09T09:10:07.977Z</time></trkpt><trkpt lat="44.1613391" lon="10.4157673"><ele>734.6666666666666</ele><time>2026-04-09T09:10:10.981Z</time></trkpt><trkpt lat="44.1612888" lon="10.4156845"><ele>728.8333333333334</ele><time>2026-04-09T09:10:13.975Z</time></trkpt><trkpt lat="44.161238" lon="10.4155995"><ele>723.0</ele><time>2026-04-09T09:10:16.976Z</time></trkpt><trkpt lat="44.1611938" lon="10.415512"><ele>727.1666666666666</ele><time>2026-04-09T09:10:19.972Z</time></trkpt><trkpt lat="44.1611595" lon="10.4154253"><ele>731.3333333333334</ele><time>2026-04-09T09:10:22.971Z</time></trkpt><trkpt lat="44.1611267" lon="10.4153391"><ele>735.5</ele><time>2026-04-09T09:10:25.973Z</time></trkpt><trkpt lat="44.1610958" lon="10.4152483"><ele>739.6666666666667</ele><time>2026-04-09T09:10:28.983Z</time></trkpt><trkpt lat="44.1610581" lon="10.4151461"><ele>743.8333333333334</ele><time>2026-04-09T09:10:31.987Z</time></trkpt><trkpt lat="44.1610263" lon="10.4150342"><ele>748.0</ele><time>2026-04-09T09:10:34.979Z</time></trkpt><trkpt lat="44.1610014" lon="10.4149404"><ele>748.0</ele><time>2026-04-09T09:10:37.992Z</time></trkpt><trkpt lat="44.1609889" lon="10.4148344"><ele>748.0</ele><time>2026-04-09T09:10:40.987Z</time></trkpt><trkpt lat="44.1610072" lon="10.4147289"><ele>748.0</ele><time>2026-04-09T09:10:43.995Z</time></trkpt><trkpt lat="44.1610435" lon="10.4146344"><ele>748.0</ele><time>2026-04-09T09:10:46.977Z</time></trkpt><trkpt lat="44.1611083" lon="10.4145643"><ele>748.0</ele><time>2026-04-09T09:10:49.979Z</time></trkpt><trkpt lat="44.1611867" lon="10.4145272"><ele>748.0</ele><time>2026-04-09T09:10:52.973Z</time></trkpt><trkpt lat="44.1612697" lon="10.4144899"><ele>748.0</ele><time>2026-04-09T09:10:55.979Z</time></trkpt><trkpt lat="44.1613519" lon="10.4144527"><ele>748.0</ele><time>2026-04-09T09:10:58.986Z</time></trkpt><trkpt lat="44.1614371" lon="10.4144193"><ele>748.0</ele><time>2026-04-09T09:11:01.982Z</time></trkpt><trkpt lat="44.1615185" lon="10.4143872"><ele>748.0</ele><time>2026-04-09T09:11:04.973Z</time></trkpt><trkpt lat="44.161594" lon="10.4143413"><ele>748.0</ele><time>2026-04-09T09:11:07.987Z</time></trkpt><trkpt lat="44.1616711" lon="10.414294"><ele>748.0</ele><time>2026-04-09T09:11:10.971Z</time></trkpt><trkpt lat="44.1617419" lon="10.4142298"><ele>747.1666666666667</ele><time>2026-04-09T09:11:13.984Z</time></trkpt><trkpt lat="44.1618073" lon="10.4141672"><ele>746.3333333333334</ele><time>2026-04-09T09:11:16.97Z</time></trkpt><trkpt lat="44.1618677" lon="10.4140894"><ele>745.5</ele><time>2026-04-09T09:11:19.969Z</time></trkpt><trkpt lat="44.1619225" lon="10.4140033"><ele>744.6666666666666</ele><time>2026-04-09T09:11:22.973Z</time></trkpt><trkpt lat="44.1619836" lon="10.4139192"><ele>743.8333333333333</ele><time>2026-04-09T09:11:25.979Z</time></trkpt><trkpt lat="44.1620505" lon="10.4138313"><ele>743.0</ele><time>2026-04-09T09:11:28.973Z</time></trkpt><trkpt lat="44.1621191" lon="10.4137446"><ele>743.0</ele><time>2026-04-09T09:11:31.976Z</time></trkpt><trkpt lat="44.1621839" lon="10.4136671"><ele>743.0</ele><time>2026-04-09T09:11:34.982Z</time></trkpt><trkpt lat="44.1622594" lon="10.4135888"><ele>743.0</ele><time>2026-04-09T09:11:37.979Z</time></trkpt><trkpt lat="44.1623157" lon="10.4135405"><ele>743.0</ele><time>2026-04-09T09:11:39.979Z</time></trkpt><trkpt lat="44.1623765" lon="10.4134951"><ele>743.0</ele><time>2026-04-09T09:11:41.979Z</time></trkpt><trkpt lat="44.1624397" lon="10.413451"><ele>743.0</ele><time>2026-04-09T09:11:43.977Z</time></trkpt><trkpt lat="44.1624979" lon="10.4134079"><ele>748.5</ele><time>2026-04-09T09:11:45.981Z</time></trkpt><trkpt lat="44.1625599" lon="10.413363"><ele>754.0</ele><time>2026-04-09T09:11:47.987Z</time></trkpt><trkpt lat="44.162618" lon="10.4133147"><ele>759.5</ele><time>2026-04-09T09:11:49.998Z</time></trkpt><trkpt lat="44.1626858" lon="10.4132613"><ele>765.0</ele><time>2026-04-09T09:11:52.979Z</time></trkpt><trkpt lat="44.1626092" lon="10.4132713"><ele>770.5000000000001</ele><time>2026-04-09T09:11:58.984Z</time></trkpt><trkpt lat="44.1625247" lon="10.4133369"><ele>776.0</ele><time>2026-04-09T09:12:01.981Z</time></trkpt><trkpt lat="44.1624519" lon="10.4133821"><ele>776.0</ele><time>2026-04-09T09:12:03.993Z</time></trkpt><trkpt lat="44.1623709" lon="10.4134371"><ele>776.0</ele><time>2026-04-09T09:12:05.986Z</time></trkpt><trkpt lat="44.1622833" lon="10.4135048"><ele>776.0</ele><time>2026-04-09T09:12:07.97Z</time></trkpt><trkpt lat="44.1621956" lon="10.4135915"><ele>776.0</ele><time>2026-04-09T09:12:09.972Z</time></trkpt><trkpt lat="44.1621041" lon="10.4137031"><ele>776.0</ele><time>2026-04-09T09:12:11.973Z</time></trkpt><trkpt lat="44.1620564" lon="10.4137637"><ele>774.5000000000001</ele><time>2026-04-09T09:12:12.978Z</time></trkpt><trkpt lat="44.1620075" lon="10.4138302"><ele>773.0</ele><time>2026-04-09T09:12:13.975Z</time></trkpt><trkpt lat="44.1619553" lon="10.4138999"><ele>771.5</ele><time>2026-04-09T09:12:14.975Z</time></trkpt><trkpt lat="44.1619009" lon="10.4139719"><ele>770.0</ele><time>2026-04-09T09:12:15.979Z</time></trkpt><trkpt lat="44.1618459" lon="10.4140431"><ele>768.5</ele><time>2026-04-09T09:12:16.981Z</time></trkpt><trkpt lat="44.1617848" lon="10.4141172"><ele>767.0</ele><time>2026-04-09T09:12:17.972Z</time></trkpt><trkpt lat="44.1617203" lon="10.4141894"><ele>767.0</ele><time>2026-04-09T09:12:18.985Z</time></trkpt><trkpt lat="44.1616487" lon="10.4142481"><ele>767.0</ele><time>2026-04-09T09:12:19.969Z</time></trkpt><trkpt lat="44.1615689" lon="10.4142995"><ele>767.0</ele><time>2026-04-09T09:12:20.968Z</time></trkpt><trkpt lat="44.1614844" lon="10.4143402"><ele>767.0</ele><time>2026-04-09T09:12:21.974Z</time></trkpt><trkpt lat="44.1613975" lon="10.4143787"><ele>767.0</ele><time>2026-04-09T09:12:22.982Z</time></trkpt><trkpt lat="44.1613055" lon="10.4144077"><ele>767.0</ele><time>2026-04-09T09:12:23.971Z</time></trkpt><trkpt lat="44.1612136" lon="10.4144493"><ele>763.8333333333333</ele><time>2026-04-09T09:12:24.971Z</time></trkpt><trkpt lat="44.1611291" lon="10.414491"><ele>760.6666666666666</ele><time>2026-04-09T09:12:25.972Z</time></trkpt><trkpt lat="44.1610562" lon="10.4145504"><ele>757.5</ele><time>2026-04-09T09:12:26.986Z</time></trkpt><trkpt lat="44.1610022" lon="10.4146279"><ele>754.3333333333334</ele><time>2026-04-09T09:12:27.985Z</time></trkpt><trkpt lat="44.160969" lon="10.4147294"><ele>751.1666666666667</ele><time>2026-04-09T09:12:28.988Z</time></trkpt><trkpt lat="44.1609659" lon="10.4148448"><ele>748.0</ele><time>2026-04-09T09:12:29.975Z</time></trkpt><trkpt lat="44.1609854" lon="10.414964"><ele>748.0</ele><time>2026-04-09T09:12:30.982Z</time></trkpt><trkpt lat="44.1610209" lon="10.4150858"><ele>748.0</ele><time>2026-04-09T09:12:31.98Z</time></trkpt><trkpt lat="44.1610593" lon="10.4152132"><ele>748.0</ele><time>2026-04-09T09:12:32.986Z</time></trkpt><trkpt lat="44.1610966" lon="10.4153435"><ele>748.0</ele><time>2026-04-09T09:12:33.981Z</time></trkpt><trkpt lat="44.1611431" lon="10.4154656"><ele>748.0</ele><time>2026-04-09T09:12:34.982Z</time></trkpt><trkpt lat="44.161206" lon="10.4155889"><ele>741.75</ele><time>2026-04-09T09:12:35.982Z</time></trkpt><trkpt lat="44.1612769" lon="10.4157108"><ele>735.5</ele><time>2026-04-09T09:12:36.972Z</time></trkpt><trkpt lat="44.1613493" lon="10.4158331"><ele>729.25</ele><time>2026-04-09T09:12:37.99Z</time></trkpt><trkpt lat="44.1614263" lon="10.4159506"><ele>723.0</ele><time>2026-04-09T09:12:38.974Z</time></trkpt><trkpt lat="44.1615109" lon="10.4160625"><ele>725.2</ele><time>2026-04-09T09:12:39.987Z</time></trkpt><trkpt lat="44.1616027" lon="10.4161541"><ele>727.4</ele><time>2026-04-09T09:12:40.995Z</time></trkpt><trkpt lat="44.1616902" lon="10.4162148"><ele>729.6</ele><time>2026-04-09T09:12:41.978Z</time></trkpt><trkpt lat="44.1617783" lon="10.416259"><ele>731.8000000000001</ele><time>2026-04-09T09:12:42.981Z</time></trkpt><trkpt lat="44.1618527" lon="10.416297"><ele>734.0</ele><time>2026-04-09T09:12:43.974Z</time></trkpt><trkpt lat="44.1619188" lon="10.4163335"><ele>734.0</ele><time>2026-04-09T09:12:44.983Z</time></trkpt><trkpt lat="44.1620021" lon="10.41645"><ele>734.0</ele><time>2026-04-09T09:12:46.976Z</time></trkpt><trkpt lat="44.1619499" lon="10.4165714"><ele>734.0</ele><time>2026-04-09T09:12:49Z</time></trkpt><trkpt lat="44.1618372" lon="10.4165424"><ele>734.0</ele><time>2026-04-09T09:12:50.975Z</time></trkpt><trkpt lat="44.1617796" lon="10.4165025"><ele>734.0</ele><time>2026-04-09T09:12:51.977Z</time></trkpt><trkpt lat="44.1617188" lon="10.4164588"><ele>734.0</ele><time>2026-04-09T09:12:52.979Z</time></trkpt><trkpt lat="44.1616561" lon="10.4164112"><ele>734.0</ele><time>2026-04-09T09:12:53.978Z</time></trkpt><trkpt lat="44.1615914" lon="10.4163642"><ele>734.0</ele><time>2026-04-09T09:12:54.978Z</time></trkpt><trkpt lat="44.1615263" lon="10.4163079"><ele>734.0</ele><time>2026-04-09T09:12:55.985Z</time></trkpt><trkpt lat="44.1614582" lon="10.4162482"><ele>734.0</ele><time>2026-04-09T09:12:56.978Z</time></trkpt><trkpt lat="44.1613875" lon="10.4161867"><ele>734.0</ele><time>2026-04-09T09:12:57.988Z</time></trkpt><trkpt lat="44.1613197" lon="10.4161087"><ele>731.8000000000001</ele><time>2026-04-09T09:12:58.99Z</time></trkpt><trkpt lat="44.1612573" lon="10.4160218"><ele>729.6</ele><time>2026-04-09T09:12:59.988Z</time></trkpt><trkpt lat="44.1611935" lon="10.4159322"><ele>727.4</ele><time>2026-04-09T09:13:00.994Z</time></trkpt><trkpt lat="44.1611286" lon="10.4158418"><ele>725.2</ele><time>2026-04-09T09:13:01.976Z</time></trkpt><trkpt lat="44.1610659" lon="10.4157483"><ele>723.0</ele><time>2026-04-09T09:13:02.978Z</time></trkpt><trkpt lat="44.1610013" lon="10.4156475"><ele>723.0</ele><time>2026-04-09T09:13:03.982Z</time></trkpt><trkpt lat="44.1609357" lon="10.4155483"><ele>723.0</ele><time>2026-04-09T09:13:04.974Z</time></trkpt><trkpt lat="44.1608597" lon="10.4154528"><ele>723.0</ele><time>2026-04-09T09:13:05.986Z</time></trkpt><trkpt lat="44.1607849" lon="10.4153567"><ele>723.0</ele><time>2026-04-09T09:13:06.978Z</time></trkpt><trkpt lat="44.1607062" lon="10.4152628"><ele>723.0</ele><time>2026-04-09T09:13:07.995Z</time></trkpt><trkpt lat="44.1606256" lon="10.4151729"><ele>723.2</ele><time>2026-04-09T09:13:08.985Z</time></trkpt><trkpt lat="44.1605419" lon="10.4150919"><ele>723.4</ele><time>2026-04-09T09:13:09.987Z</time></trkpt><trkpt lat="44.1604446" lon="10.4150318"><ele>723.6</ele><time>2026-04-09T09:13:10.982Z</time></trkpt><trkpt lat="44.160336" lon="10.4150083"><ele>723.8000000000001</ele><time>2026-04-09T09:13:11.986Z</time></trkpt><trkpt lat="44.1602286" lon="10.4150172"><ele>724.0</ele><time>2026-04-09T09:13:12.985Z</time></trkpt><trkpt lat="44.1601187" lon="10.4150378"><ele>724.0</ele><time>2026-04-09T09:13:13.975Z</time></trkpt><trkpt lat="44.1600103" lon="10.4150537"><ele>724.0</ele><time>2026-04-09T09:13:14.976Z</time></trkpt><trkpt lat="44.1599099" lon="10.4150775"><ele>724.0</ele><time>2026-04-09T09:13:15.984Z</time></trkpt><trkpt lat="44.1598172" lon="10.4150853"><ele>724.0</ele><time>2026-04-09T09:13:16.983Z</time></trkpt><trkpt lat="44.159733" lon="10.4150659"><ele>724.0</ele><time>2026-04-09T09:13:17.969Z</time></trkpt><trkpt lat="44.1596485" lon="10.4150081"><ele>720.6</ele><time>2026-04-09T09:13:18.979Z</time></trkpt><trkpt lat="44.1595816" lon="10.4149105"><ele>717.2</ele><time>2026-04-09T09:13:19.979Z</time></trkpt><trkpt lat="44.1595281" lon="10.4147937"><ele>713.8000000000001</ele><time>2026-04-09T09:13:20.983Z</time></trkpt><trkpt lat="44.1595005" lon="10.4146599"><ele>710.4000000000001</ele><time>2026-04-09T09:13:21.98Z</time></trkpt><trkpt lat="44.1595018" lon="10.4145348"><ele>707.0</ele><time>2026-04-09T09:13:22.981Z</time></trkpt><trkpt lat="44.1595405" lon="10.4144131"><ele>707.0</ele><time>2026-04-09T09:13:23.975Z</time></trkpt><trkpt lat="44.1595987" lon="10.4143069"><ele>707.0</ele><time>2026-04-09T09:13:24.991Z</time></trkpt><trkpt lat="44.1596627" lon="10.4142005"><ele>707.0</ele><time>2026-04-09T09:13:25.981Z</time></trkpt><trkpt lat="44.15972" lon="10.4140876"><ele>707.0</ele><time>2026-04-09T09:13:26.976Z</time></trkpt><trkpt lat="44.1597692" lon="10.4139604"><ele>707.0</ele><time>2026-04-09T09:13:27.983Z</time></trkpt><trkpt lat="44.1598006" lon="10.4138207"><ele>706.4000000000001</ele><time>2026-04-09T09:13:28.986Z</time></trkpt><trkpt lat="44.1598183" lon="10.413674"><ele>705.8000000000001</ele><time>2026-04-09T09:13:29.981Z</time></trkpt><trkpt lat="44.1598272" lon="10.4135186"><ele>705.2</ele><time>2026-04-09T09:13:30.982Z</time></trkpt><trkpt lat="44.1598355" lon="10.4133632"><ele>704.6</ele><time>2026-04-09T09:13:31.984Z</time></trkpt><trkpt lat="44.1598561" lon="10.4132082"><ele>704.0</ele><time>2026-04-09T09:13:32.984Z</time></trkpt><trkpt lat="44.1599056" lon="10.4130646"><ele>704.0</ele><time>2026-04-09T09:13:33.976Z</time></trkpt><trkpt lat="44.159978" lon="10.4129324"><ele>704.0</ele><time>2026-04-09T09:13:34.984Z</time></trkpt><trkpt lat="44.1600659" lon="10.4128175"><ele>704.0</ele><time>2026-04-09T09:13:35.982Z</time></trkpt><trkpt lat="44.1601553" lon="10.4127271"><ele>704.0</ele><time>2026-04-09T09:13:36.987Z</time></trkpt><trkpt lat="44.1602437" lon="10.4126539"><ele>704.0</ele><time>2026-04-09T09:13:37.989Z</time></trkpt><trkpt lat="44.1603353" lon="10.4126376"><ele>704.0</ele><time>2026-04-09T09:13:38.989Z</time></trkpt><trkpt lat="44.1604364" lon="10.4126487"><ele>704.0</ele><time>2026-04-09T09:13:39.975Z</time></trkpt><trkpt lat="44.1605368" lon="10.4126868"><ele>704.0</ele><time>2026-04-09T09:13:40.982Z</time></trkpt><trkpt lat="44.1606324" lon="10.4127288"><ele>704.0</ele><time>2026-04-09T09:13:41.985Z</time></trkpt><trkpt lat="44.1607334" lon="10.4127656"><ele>704.8000000000001</ele><time>2026-04-09T09:13:42.982Z</time></trkpt><trkpt lat="44.1608367" lon="10.4127804"><ele>705.6</ele><time>2026-04-09T09:13:43.976Z</time></trkpt><trkpt lat="44.1609467" lon="10.4127766"><ele>706.4</ele><time>2026-04-09T09:13:44.977Z</time></trkpt><trkpt lat="44.161059" lon="10.412754"><ele>707.2</ele><time>2026-04-09T09:13:45.98Z</time></trkpt><trkpt lat="44.1611686" lon="10.4127189"><ele>708.0</ele><time>2026-04-09T09:13:46.97Z</time></trkpt><trkpt lat="44.1612738" lon="10.412659"><ele>708.0</ele><time>2026-04-09T09:13:47.988Z</time></trkpt><trkpt lat="44.161369" lon="10.4125592"><ele>708.0</ele><time>2026-04-09T09:13:48.979Z</time></trkpt><trkpt lat="44.1614461" lon="10.4124361"><ele>708.0</ele><time>2026-04-09T09:13:49.981Z</time></trkpt><trkpt lat="44.1615068" lon="10.4122906"><ele>708.0</ele><time>2026-04-09T09:13:50.972Z</time></trkpt><trkpt lat="44.1615647" lon="10.4121476"><ele>704.0</ele><time>2026-04-09T09:13:51.971Z</time></trkpt><trkpt lat="44.1616228" lon="10.41202"><ele>700.0</ele><time>2026-04-09T09:13:52.983Z</time></trkpt><trkpt lat="44.1616753" lon="10.4119154"><ele>696.0</ele><time>2026-04-09T09:13:53.982Z</time></trkpt><trkpt lat="44.1617219" lon="10.4118147"><ele>692.0</ele><time>2026-04-09T09:13:54.987Z</time></trkpt><trkpt lat="44.1617566" lon="10.4116639"><ele>688.0</ele><time>2026-04-09T09:13:56.983Z</time></trkpt><trkpt lat="44.1616711" lon="10.4115816"><ele>688.0</ele><time>2026-04-09T09:13:58.972Z</time></trkpt><trkpt lat="44.1615652" lon="10.4116617"><ele>688.0</ele><time>2026-04-09T09:14:00.976Z</time></trkpt><trkpt lat="44.1615283" lon="10.4117399"><ele>688.0</ele><time>2026-04-09T09:14:01.985Z</time></trkpt><trkpt lat="44.1614882" lon="10.41182"><ele>688.0</ele><time>2026-04-09T09:14:02.983Z</time></trkpt><trkpt lat="44.1614505" lon="10.4119074"><ele>688.0</ele><time>2026-04-09T09:14:03.977Z</time></trkpt><trkpt lat="44.1614084" lon="10.4120037"><ele>688.0</ele><time>2026-04-09T09:14:04.991Z</time></trkpt><trkpt lat="44.1613683" lon="10.4121013"><ele>691.3333333333334</ele><time>2026-04-09T09:14:05.982Z</time></trkpt><trkpt lat="44.1613224" lon="10.4122032"><ele>694.6666666666667</ele><time>2026-04-09T09:14:06.98Z</time></trkpt><trkpt lat="44.1612556" lon="10.4122686"><ele>698.0</ele><time>2026-04-09T09:14:07.982Z</time></trkpt><trkpt lat="44.1611658" lon="10.4122924"><ele>701.3333333333334</ele><time>2026-04-09T09:14:08.997Z</time></trkpt><trkpt lat="44.1610768" lon="10.4122844"><ele>704.6666666666666</ele><time>2026-04-09T09:14:09.973Z</time></trkpt><trkpt lat="44.1609898" lon="10.4122401"><ele>708.0</ele><time>2026-04-09T09:14:10.985Z</time></trkpt><trkpt lat="44.1609086" lon="10.4121781"><ele>702.5999999999999</ele><time>2026-04-09T09:14:11.986Z</time></trkpt><trkpt lat="44.1608299" lon="10.4121096"><ele>697.1999999999999</ele><time>2026-04-09T09:14:12.979Z</time></trkpt><trkpt lat="44.1607471" lon="10.4120413"><ele>691.8</ele><time>2026-04-09T09:14:13.984Z</time></trkpt><trkpt lat="44.1606654" lon="10.411973"><ele>686.4</ele><time>2026-04-09T09:14:14.987Z</time></trkpt><trkpt lat="44.1605814" lon="10.4119073"><ele>681.0</ele><time>2026-04-09T09:14:15.982Z</time></trkpt><trkpt lat="44.1604957" lon="10.4118483"><ele>681.0</ele><time>2026-04-09T09:14:16.981Z</time></trkpt><trkpt lat="44.1604034" lon="10.4118177"><ele>681.0</ele><time>2026-04-09T09:14:17.982Z</time></trkpt><trkpt lat="44.1603116" lon="10.4118059"><ele>681.0</ele><time>2026-04-09T09:14:18.981Z</time></trkpt><trkpt lat="44.1602087" lon="10.4118085"><ele>681.0</ele><time>2026-04-09T09:14:19.981Z</time></trkpt><trkpt lat="44.1601088" lon="10.411816"><ele>681.0</ele><time>2026-04-09T09:14:20.982Z</time></trkpt><trkpt lat="44.1600061" lon="10.4118142"><ele>681.0</ele><time>2026-04-09T09:14:21.973Z</time></trkpt><trkpt lat="44.159903" lon="10.4117918"><ele>681.0</ele><time>2026-04-09T09:14:22.986Z</time></trkpt><trkpt lat="44.1598039" lon="10.4117441"><ele>681.0</ele><time>2026-04-09T09:14:23.982Z</time></trkpt><trkpt lat="44.1597091" lon="10.4116831"><ele>681.0</ele><time>2026-04-09T09:14:24.975Z</time></trkpt><trkpt lat="44.159615" lon="10.4116152"><ele>681.0</ele><time>2026-04-09T09:14:25.974Z</time></trkpt><trkpt lat="44.1595076" lon="10.4115643"><ele>680.1999999999999</ele><time>2026-04-09T09:14:26.978Z</time></trkpt><trkpt lat="44.1594018" lon="10.4115418"><ele>679.4</ele><time>2026-04-09T09:14:27.985Z</time></trkpt><trkpt lat="44.1592949" lon="10.411553"><ele>678.6</ele><time>2026-04-09T09:14:28.98Z</time></trkpt><trkpt lat="44.1592057" lon="10.4115836"><ele>677.8</ele><time>2026-04-09T09:14:29.983Z</time></trkpt><trkpt lat="44.1591152" lon="10.4116828"><ele>677.0</ele><time>2026-04-09T09:14:30.986Z</time></trkpt><trkpt lat="44.1590293" lon="10.4117603"><ele>675.0</ele><time>2026-04-09T09:14:31.989Z</time></trkpt><trkpt lat="44.158937" lon="10.4118423"><ele>673.0</ele><time>2026-04-09T09:14:32.974Z</time></trkpt><trkpt lat="44.1588511" lon="10.4119295"><ele>671.0</ele><time>2026-04-09T09:14:33.98Z</time></trkpt><trkpt lat="44.1587693" lon="10.4120359"><ele>669.0</ele><time>2026-04-09T09:14:34.978Z</time></trkpt><trkpt lat="44.1587096" lon="10.4121473"><ele>667.0</ele><time>2026-04-09T09:14:35.981Z</time></trkpt><trkpt lat="44.1586532" lon="10.4122655"><ele>667.0</ele><time>2026-04-09T09:14:36.988Z</time></trkpt><trkpt lat="44.1585946" lon="10.4123822"><ele>667.0</ele><time>2026-04-09T09:14:37.999Z</time></trkpt><trkpt lat="44.1585412" lon="10.4125005"><ele>667.0</ele><time>2026-04-09T09:14:38.977Z</time></trkpt><trkpt lat="44.158482" lon="10.4126106"><ele>667.0</ele><time>2026-04-09T09:14:39.972Z</time></trkpt><trkpt lat="44.1584114" lon="10.4127089"><ele>667.0</ele><time>2026-04-09T09:14:40.986Z</time></trkpt><trkpt lat="44.1583337" lon="10.4127985"><ele>667.0</ele><time>2026-04-09T09:14:41.992Z</time></trkpt><trkpt lat="44.1582608" lon="10.4128919"><ele>667.0</ele><time>2026-04-09T09:14:42.993Z</time></trkpt><trkpt lat="44.1581994" lon="10.4130018"><ele>667.0</ele><time>2026-04-09T09:14:43.972Z</time></trkpt><trkpt lat="44.1581537" lon="10.4131262"><ele>667.0</ele><time>2026-04-09T09:14:44.973Z</time></trkpt><trkpt lat="44.158116" lon="10.4132456"><ele>667.0</ele><time>2026-04-09T09:14:45.983Z</time></trkpt><trkpt lat="44.1580739" lon="10.4133496"><ele>667.3333333333334</ele><time>2026-04-09T09:14:46.972Z</time></trkpt><trkpt lat="44.1580127" lon="10.4134175"><ele>667.6666666666667</ele><time>2026-04-09T09:14:47.985Z</time></trkpt><trkpt lat="44.1579336" lon="10.4134512"><ele>668.0</ele><time>2026-04-09T09:14:48.984Z</time></trkpt><trkpt lat="44.1578492" lon="10.4134526"><ele>668.3333333333334</ele><time>2026-04-09T09:14:49.979Z</time></trkpt><trkpt lat="44.1577703" lon="10.4134274"><ele>668.6666666666666</ele><time>2026-04-09T09:14:50.985Z</time></trkpt><trkpt lat="44.1576864" lon="10.4133986"><ele>669.0</ele><time>2026-04-09T09:14:51.975Z</time></trkpt><trkpt lat="44.1575991" lon="10.4133739"><ele>669.0</ele><time>2026-04-09T09:14:52.981Z</time></trkpt><trkpt lat="44.1575076" lon="10.4133516"><ele>669.0</ele><time>2026-04-09T09:14:53.981Z</time></trkpt><trkpt lat="44.1574155" lon="10.4133245"><ele>669.0</ele><time>2026-04-09T09:14:54.985Z</time></trkpt><trkpt lat="44.1573205" lon="10.4132953"><ele>669.0</ele><time>2026-04-09T09:14:55.989Z</time></trkpt><trkpt lat="44.1572231" lon="10.4132678"><ele>669.0</ele><time>2026-04-09T09:14:56.98Z</time></trkpt><trkpt lat="44.1571244" lon="10.4132491"><ele>668.4000000000001</ele><time>2026-04-09T09:14:57.991Z</time></trkpt><trkpt lat="44.1570254" lon="10.4132385"><ele>667.8</ele><time>2026-04-09T09:14:58.981Z</time></trkpt><trkpt lat="44.1569228" lon="10.4132313"><ele>667.2</ele><time>2026-04-09T09:14:59.973Z</time></trkpt><trkpt lat="44.1568189" lon="10.413227"><ele>666.5999999999999</ele><time>2026-04-09T09:15:00.984Z</time></trkpt><trkpt lat="44.1567152" lon="10.413213"><ele>666.0</ele><time>2026-04-09T09:15:01.984Z</time></trkpt><trkpt lat="44.1566069" lon="10.4131921"><ele>665.1999999999999</ele><time>2026-04-09T09:15:02.983Z</time></trkpt><trkpt lat="44.156501" lon="10.413163"><ele>664.4</ele><time>2026-04-09T09:15:03.978Z</time></trkpt><trkpt lat="44.156394" lon="10.4131351"><ele>663.6</ele><time>2026-04-09T09:15:04.981Z</time></trkpt><trkpt lat="44.1562858" lon="10.4131095"><ele>662.8</ele><time>2026-04-09T09:15:05.987Z</time></trkpt><trkpt lat="44.1561775" lon="10.4130937"><ele>662.0</ele><time>2026-04-09T09:15:06.982Z</time></trkpt><trkpt lat="44.1560651" lon="10.4130827"><ele>662.0</ele><time>2026-04-09T09:15:07.994Z</time></trkpt><trkpt lat="44.1559517" lon="10.4130765"><ele>662.0</ele><time>2026-04-09T09:15:08.974Z</time></trkpt><trkpt lat="44.1558387" lon="10.4130725"><ele>662.0</ele><time>2026-04-09T09:15:09.98Z</time></trkpt><trkpt lat="44.1557236" lon="10.4130668"><ele>662.0</ele><time>2026-04-09T09:15:10.972Z</time></trkpt><trkpt lat="44.155609" lon="10.4130454"><ele>658.4000000000001</ele><time>2026-04-09T09:15:11.974Z</time></trkpt><trkpt lat="44.155491" lon="10.4130054"><ele>654.8000000000001</ele><time>2026-04-09T09:15:12.978Z</time></trkpt><trkpt lat="44.1553871" lon="10.4129642"><ele>651.2</ele><time>2026-04-09T09:15:13.991Z</time></trkpt><trkpt lat="44.1552898" lon="10.4129294"><ele>647.6</ele><time>2026-04-09T09:15:14.973Z</time></trkpt><trkpt lat="44.1551928" lon="10.41294"><ele>644.0</ele><time>2026-04-09T09:15:15.974Z</time></trkpt><trkpt lat="44.1550972" lon="10.4129819"><ele>644.0</ele><time>2026-04-09T09:15:16.969Z</time></trkpt><trkpt lat="44.1549974" lon="10.4130393"><ele>644.0</ele><time>2026-04-09T09:15:17.974Z</time></trkpt><trkpt lat="44.1548975" lon="10.4130925"><ele>644.0</ele><time>2026-04-09T09:15:18.974Z</time></trkpt><trkpt lat="44.1548044" lon="10.4131546"><ele>644.0</ele><time>2026-04-09T09:15:19.981Z</time></trkpt><trkpt lat="44.1547252" lon="10.4132214"><ele>644.0</ele><time>2026-04-09T09:15:20.984Z</time></trkpt><trkpt lat="44.1546531" lon="10.4133019"><ele>640.4000000000001</ele><time>2026-04-09T09:15:21.973Z</time></trkpt><trkpt lat="44.1546201" lon="10.4134122"><ele>636.8000000000001</ele><time>2026-04-09T09:15:22.976Z</time></trkpt><trkpt lat="44.1546008" lon="10.413537"><ele>633.2</ele><time>2026-04-09T09:15:23.978Z</time></trkpt><trkpt lat="44.1545893" lon="10.4136664"><ele>629.6</ele><time>2026-04-09T09:15:24.996Z</time></trkpt><trkpt lat="44.1545672" lon="10.4137947"><ele>626.0</ele><time>2026-04-09T09:15:25.985Z</time></trkpt><trkpt lat="44.1545248" lon="10.4139243"><ele>626.0</ele><time>2026-04-09T09:15:26.988Z</time></trkpt><trkpt lat="44.1544636" lon="10.4140382"><ele>626.0</ele><time>2026-04-09T09:15:27.982Z</time></trkpt><trkpt lat="44.1543842" lon="10.4141236"><ele>626.0</ele><time>2026-04-09T09:15:28.977Z</time></trkpt><trkpt lat="44.1542955" lon="10.4141966"><ele>626.0</ele><time>2026-04-09T09:15:29.991Z</time></trkpt><trkpt lat="44.1542047" lon="10.4142682"><ele>626.0</ele><time>2026-04-09T09:15:30.983Z</time></trkpt><trkpt lat="44.1541073" lon="10.4143408"><ele>624.4</ele><time>2026-04-09T09:15:31.978Z</time></trkpt><trkpt lat="44.1540116" lon="10.4144164"><ele>622.8</ele><time>2026-04-09T09:15:32.977Z</time></trkpt><trkpt lat="44.1539157" lon="10.4144939"><ele>621.1999999999999</ele><time>2026-04-09T09:15:33.978Z</time></trkpt><trkpt lat="44.153831" lon="10.4145648"><ele>619.6</ele><time>2026-04-09T09:15:34.99Z</time></trkpt><trkpt lat="44.1537588" lon="10.4146181"><ele>618.0</ele><time>2026-04-09T09:15:35.977Z</time></trkpt><trkpt lat="44.1536949" lon="10.4146597"><ele>618.0</ele><time>2026-04-09T09:15:36.987Z</time></trkpt><trkpt lat="44.1536037" lon="10.4147175"><ele>618.0</ele><time>2026-04-09T09:15:38.978Z</time></trkpt><trkpt lat="44.1535461" lon="10.41468"><ele>618.0</ele><time>2026-04-09T09:15:40.986Z</time></trkpt><trkpt lat="44.1535862" lon="10.4145742"><ele>618.0</ele><time>2026-04-09T09:15:42.986Z</time></trkpt><trkpt lat="44.1536672" lon="10.4144807"><ele>618.0</ele><time>2026-04-09T09:15:44.985Z</time></trkpt><trkpt lat="44.1537573" lon="10.414374"><ele>619.1428571428572</ele><time>2026-04-09T09:15:46.979Z</time></trkpt><trkpt lat="44.1538108" lon="10.4143189"><ele>620.2857142857143</ele><time>2026-04-09T09:15:47.981Z</time></trkpt><trkpt lat="44.1538669" lon="10.4142633"><ele>621.4285714285714</ele><time>2026-04-09T09:15:48.975Z</time></trkpt><trkpt lat="44.1539227" lon="10.4142062"><ele>622.5714285714287</ele><time>2026-04-09T09:15:49.977Z</time></trkpt><trkpt lat="44.153984" lon="10.4141462"><ele>623.7142857142858</ele><time>2026-04-09T09:15:50.974Z</time></trkpt><trkpt lat="44.1540483" lon="10.4140868"><ele>624.8571428571429</ele><time>2026-04-09T09:15:51.985Z</time></trkpt><trkpt lat="44.15411" lon="10.4140222"><ele>626.0</ele><time>2026-04-09T09:15:52.984Z</time></trkpt><trkpt lat="44.15417" lon="10.4139491"><ele>626.0</ele><time>2026-04-09T09:15:53.981Z</time></trkpt><trkpt lat="44.1542217" lon="10.4138535"><ele>626.0</ele><time>2026-04-09T09:15:54.974Z</time></trkpt><trkpt lat="44.1542629" lon="10.4137466"><ele>626.0</ele><time>2026-04-09T09:15:55.986Z</time></trkpt><trkpt lat="44.1542852" lon="10.4136286"><ele>626.0</ele><time>2026-04-09T09:15:56.986Z</time></trkpt><trkpt lat="44.1542941" lon="10.4135033"><ele>626.0</ele><time>2026-04-09T09:15:57.985Z</time></trkpt><trkpt lat="44.1542984" lon="10.4133692"><ele>626.0</ele><time>2026-04-09T09:15:58.986Z</time></trkpt><trkpt lat="44.154311" lon="10.4132379"><ele>623.2</ele><time>2026-04-09T09:15:59.983Z</time></trkpt><trkpt lat="44.1543402" lon="10.4131065"><ele>620.4000000000001</ele><time>2026-04-09T09:16:00.985Z</time></trkpt><trkpt lat="44.1543867" lon="10.4129792"><ele>617.6</ele><time>2026-04-09T09:16:01.973Z</time></trkpt><trkpt lat="44.1544459" lon="10.4128659"><ele>614.8000000000001</ele><time>2026-04-09T09:16:02.979Z</time></trkpt><trkpt lat="44.154512" lon="10.4127542"><ele>612.0</ele><time>2026-04-09T09:16:03.979Z</time></trkpt><trkpt lat="44.1545772" lon="10.412637"><ele>608.0</ele><time>2026-04-09T09:16:04.972Z</time></trkpt><trkpt lat="44.1546424" lon="10.4125286"><ele>604.0</ele><time>2026-04-09T09:16:05.978Z</time></trkpt><trkpt lat="44.1547112" lon="10.4124173"><ele>600.0</ele><time>2026-04-09T09:16:06.987Z</time></trkpt><trkpt lat="44.1547843" lon="10.412309"><ele>596.0</ele><time>2026-04-09T09:16:07.982Z</time></trkpt><trkpt lat="44.1548605" lon="10.4121882"><ele>592.0</ele><time>2026-04-09T09:16:08.986Z</time></trkpt><trkpt lat="44.1549401" lon="10.412088"><ele>591.4</ele><time>2026-04-09T09:16:09.985Z</time></trkpt><trkpt lat="44.1550263" lon="10.4120198"><ele>590.8000000000001</ele><time>2026-04-09T09:16:10.984Z</time></trkpt><trkpt lat="44.1551203" lon="10.4119778"><ele>590.2</ele><time>2026-04-09T09:16:11.981Z</time></trkpt><trkpt lat="44.1552222" lon="10.4119578"><ele>589.6</ele><time>2026-04-09T09:16:12.972Z</time></trkpt><trkpt lat="44.1553273" lon="10.4119642"><ele>589.0</ele><time>2026-04-09T09:16:13.982Z</time></trkpt><trkpt lat="44.1554324" lon="10.4119637"><ele>589.0</ele><time>2026-04-09T09:16:14.976Z</time></trkpt><trkpt lat="44.155538" lon="10.4119704"><ele>589.0</ele><time>2026-04-09T09:16:15.978Z</time></trkpt><trkpt lat="44.1556467" lon="10.411977"><ele>589.0</ele><time>2026-04-09T09:16:16.982Z</time></trkpt><trkpt lat="44.1557593" lon="10.4119792"><ele>589.0</ele><time>2026-04-09T09:16:17.985Z</time></trkpt><trkpt lat="44.1558717" lon="10.4119613"><ele>589.0</ele><time>2026-04-09T09:16:18.987Z</time></trkpt><trkpt lat="44.1559845" lon="10.4119148"><ele>591.75</ele><time>2026-04-09T09:16:19.985Z</time></trkpt><trkpt lat="44.1560883" lon="10.4118424"><ele>594.5</ele><time>2026-04-09T09:16:20.973Z</time></trkpt><trkpt lat="44.1561874" lon="10.4117421"><ele>597.25</ele><time>2026-04-09T09:16:21.975Z</time></trkpt><trkpt lat="44.1562723" lon="10.4116277"><ele>600.0</ele><time>2026-04-09T09:16:22.993Z</time></trkpt><trkpt lat="44.1563593" lon="10.4115129"><ele>600.0</ele><time>2026-04-09T09:16:23.987Z</time></trkpt><trkpt lat="44.1564478" lon="10.4114013"><ele>600.0</ele><time>2026-04-09T09:16:24.985Z</time></trkpt><trkpt lat="44.1565399" lon="10.4112816"><ele>600.0</ele><time>2026-04-09T09:16:25.997Z</time></trkpt><trkpt lat="44.1566288" lon="10.4111694"><ele>600.0</ele><time>2026-04-09T09:16:26.987Z</time></trkpt><trkpt lat="44.1567069" lon="10.4110685"><ele>597.5</ele><time>2026-04-09T09:16:27.986Z</time></trkpt><trkpt lat="44.156773" lon="10.4109831"><ele>595.0</ele><time>2026-04-09T09:16:28.982Z</time></trkpt><trkpt lat="44.1568279" lon="10.4109041"><ele>592.5</ele><time>2026-04-09T09:16:29.989Z</time></trkpt><trkpt lat="44.1568671" lon="10.4108299"><ele>590.0</ele><time>2026-04-09T09:16:30.988Z</time></trkpt><trkpt lat="44.1568909" lon="10.4106964"><ele>587.5</ele><time>2026-04-09T09:16:32.988Z</time></trkpt><trkpt lat="44.156817" lon="10.4106192"><ele>585.0</ele><time>2026-04-09T09:16:34.988Z</time></trkpt><trkpt lat="44.1566988" lon="10.4106019"><ele>585.0</ele><time>2026-04-09T09:16:36.984Z</time></trkpt><trkpt lat="44.1565726" lon="10.4106432"><ele>585.0</ele><time>2026-04-09T09:16:38.986Z</time></trkpt><trkpt lat="44.1565044" lon="10.4106736"><ele>585.0</ele><time>2026-04-09T09:16:39.975Z</time></trkpt><trkpt lat="44.156434" lon="10.4107112"><ele>585.0</ele><time>2026-04-09T09:16:40.982Z</time></trkpt><trkpt lat="44.156358" lon="10.4107496"><ele>585.0</ele><time>2026-04-09T09:16:41.986Z</time></trkpt><trkpt lat="44.1562777" lon="10.4107919"><ele>585.0</ele><time>2026-04-09T09:16:42.983Z</time></trkpt><trkpt lat="44.1561924" lon="10.4108243"><ele>582.8</ele><time>2026-04-09T09:16:43.991Z</time></trkpt><trkpt lat="44.1561078" lon="10.4108569"><ele>580.6</ele><time>2026-04-09T09:16:44.99Z</time></trkpt><trkpt lat="44.1560163" lon="10.4108895"><ele>578.4</ele><time>2026-04-09T09:16:45.982Z</time></trkpt><trkpt lat="44.1559225" lon="10.4109166"><ele>576.2</ele><time>2026-04-09T09:16:46.979Z</time></trkpt><trkpt lat="44.1558251" lon="10.4109451"><ele>574.0</ele><time>2026-04-09T09:16:47.978Z</time></trkpt><trkpt lat="44.1557271" lon="10.4109693"><ele>572.6</ele><time>2026-04-09T09:16:48.981Z</time></trkpt><trkpt lat="44.1556251" lon="10.4109957"><ele>571.2</ele><time>2026-04-09T09:16:49.984Z</time></trkpt><trkpt lat="44.1555222" lon="10.4110259"><ele>569.8000000000001</ele><time>2026-04-09T09:16:50.981Z</time></trkpt><trkpt lat="44.1554163" lon="10.4110545"><ele>568.4</ele><time>2026-04-09T09:16:51.981Z</time></trkpt><trkpt lat="44.1553106" lon="10.4110773"><ele>567.0</ele><time>2026-04-09T09:16:52.983Z</time></trkpt><trkpt lat="44.1552034" lon="10.4110884"><ele>567.0</ele><time>2026-04-09T09:16:53.983Z</time></trkpt><trkpt lat="44.1550962" lon="10.4110982"><ele>567.0</ele><time>2026-04-09T09:16:54.978Z</time></trkpt><trkpt lat="44.1549827" lon="10.4111071"><ele>567.0</ele><time>2026-04-09T09:16:55.983Z</time></trkpt><trkpt lat="44.1548694" lon="10.4111177"><ele>567.0</ele><time>2026-04-09T09:16:56.978Z</time></trkpt><trkpt lat="44.1547512" lon="10.4111278"><ele>565.75</ele><time>2026-04-09T09:16:57.983Z</time></trkpt><trkpt lat="44.1546366" lon="10.4111327"><ele>564.5</ele><time>2026-04-09T09:16:58.984Z</time></trkpt><trkpt lat="44.1545152" lon="10.4111428"><ele>563.25</ele><time>2026-04-09T09:16:59.986Z</time></trkpt><trkpt lat="44.1543967" lon="10.4111546"><ele>562.0</ele><time>2026-04-09T09:17:00.989Z</time></trkpt><trkpt lat="44.1542773" lon="10.411177"><ele>562.0</ele><time>2026-04-09T09:17:01.987Z</time></trkpt><trkpt lat="44.1541553" lon="10.4112029"><ele>562.0</ele><time>2026-04-09T09:17:02.983Z</time></trkpt><trkpt lat="44.1540415" lon="10.4112295"><ele>562.0</ele><time>2026-04-09T09:17:03.983Z</time></trkpt><trkpt lat="44.1539307" lon="10.4112508"><ele>562.0</ele><time>2026-04-09T09:17:04.981Z</time></trkpt><trkpt lat="44.1538266" lon="10.411272"><ele>559.4</ele><time>2026-04-09T09:17:05.987Z</time></trkpt><trkpt lat="44.1537262" lon="10.411291"><ele>556.8000000000001</ele><time>2026-04-09T09:17:06.988Z</time></trkpt><trkpt lat="44.1536198" lon="10.4112983"><ele>554.2</ele><time>2026-04-09T09:17:07.989Z</time></trkpt><trkpt lat="44.1535134" lon="10.4112823"><ele>551.6</ele><time>2026-04-09T09:17:08.981Z</time></trkpt><trkpt lat="44.1534026" lon="10.4112558"><ele>549.0</ele><time>2026-04-09T09:17:09.978Z</time></trkpt><trkpt lat="44.153288" lon="10.4112237"><ele>547.4</ele><time>2026-04-09T09:17:10.988Z</time></trkpt><trkpt lat="44.1531776" lon="10.4111793"><ele>545.8</ele><time>2026-04-09T09:17:11.981Z</time></trkpt><trkpt lat="44.1530687" lon="10.4111232"><ele>544.2</ele><time>2026-04-09T09:17:12.982Z</time></trkpt><trkpt lat="44.1529629" lon="10.4110677"><ele>542.6</ele><time>2026-04-09T09:17:13.986Z</time></trkpt><trkpt lat="44.1528628" lon="10.4110243"><ele>541.0</ele><time>2026-04-09T09:17:14.985Z</time></trkpt><trkpt lat="44.1527676" lon="10.411004"><ele>541.0</ele><time>2026-04-09T09:17:15.986Z</time></trkpt><trkpt lat="44.1526727" lon="10.4110177"><ele>541.0</ele><time>2026-04-09T09:17:16.984Z</time></trkpt><trkpt lat="44.1525783" lon="10.4110529"><ele>541.0</ele><time>2026-04-09T09:17:17.975Z</time></trkpt><trkpt lat="44.1524863" lon="10.4111078"><ele>541.0</ele><time>2026-04-09T09:17:18.978Z</time></trkpt><trkpt lat="44.1523886" lon="10.4111755"><ele>541.0</ele><time>2026-04-09T09:17:19.979Z</time></trkpt><trkpt lat="44.1522907" lon="10.411243"><ele>540.8</ele><time>2026-04-09T09:17:20.981Z</time></trkpt><trkpt lat="44.1521903" lon="10.4113052"><ele>540.6</ele><time>2026-04-09T09:17:21.975Z</time></trkpt><trkpt lat="44.1520909" lon="10.411372"><ele>540.4</ele><time>2026-04-09T09:17:22.981Z</time></trkpt><trkpt lat="44.1519921" lon="10.4114407"><ele>540.2</ele><time>2026-04-09T09:17:23.987Z</time></trkpt><trkpt lat="44.1518986" lon="10.4115049"><ele>540.0</ele><time>2026-04-09T09:17:24.976Z</time></trkpt><trkpt lat="44.1518072" lon="10.4115565"><ele>540.0</ele><time>2026-04-09T09:17:25.981Z</time></trkpt><trkpt lat="44.151717" lon="10.4116023"><ele>540.0</ele><time>2026-04-09T09:17:26.972Z</time></trkpt><trkpt lat="44.1516252" lon="10.4116296"><ele>540.0</ele><time>2026-04-09T09:17:27.974Z</time></trkpt><trkpt lat="44.1515412" lon="10.4116479"><ele>540.0</ele><time>2026-04-09T09:17:28.987Z</time></trkpt><trkpt lat="44.1514573" lon="10.4116561"><ele>540.0</ele><time>2026-04-09T09:17:29.99Z</time></trkpt><trkpt lat="44.1513747" lon="10.4116681"><ele>540.0</ele><time>2026-04-09T09:17:30.988Z</time></trkpt><trkpt lat="44.1512999" lon="10.4116811"><ele>538.5</ele><time>2026-04-09T09:17:31.99Z</time></trkpt><trkpt lat="44.1512317" lon="10.411692"><ele>537.0</ele><time>2026-04-09T09:17:32.979Z</time></trkpt><trkpt lat="44.1511233" lon="10.4117026"><ele>535.5</ele><time>2026-04-09T09:17:34.985Z</time></trkpt><trkpt lat="44.1510435" lon="10.4117206"><ele>534.0</ele><time>2026-04-09T09:17:36.987Z</time></trkpt><trkpt lat="44.1509713" lon="10.4117453"><ele>532.5</ele><time>2026-04-09T09:17:38.973Z</time></trkpt><trkpt lat="44.1509022" lon="10.4118157"><ele>531.0</ele><time>2026-04-09T09:17:41.98Z</time></trkpt><trkpt lat="44.1509417" lon="10.4118973"><ele>531.0</ele><time>2026-04-09T09:17:46.985Z</time></trkpt><trkpt lat="44.1510047" lon="10.4119231"><ele>531.0</ele><time>2026-04-09T09:17:50.977Z</time></trkpt><trkpt lat="44.1510622" lon="10.411963"><ele>531.0</ele><time>2026-04-09T09:17:55.972Z</time></trkpt><trkpt lat="44.1510207" lon="10.4120487"><ele>531.0</ele><time>2026-04-09T09:18:03.977Z</time></trkpt><trkpt lat="44.1509652" lon="10.4120968"><ele>531.0</ele><time>2026-04-09T09:18:08.972Z</time></trkpt><trkpt lat="44.1508975" lon="10.4121098"><ele>531.0</ele><time>2026-04-09T09:18:13.99Z</time></trkpt><trkpt lat="44.1508413" lon="10.4121671"><ele>531.0</ele><time>2026-04-09T09:18:18.976Z</time></trkpt><trkpt lat="44.1508125" lon="10.4122492"><ele>546.0</ele><time>2026-04-09T09:18:23.97Z</time></trkpt><trkpt lat="44.1507861" lon="10.412336"><ele>546.0</ele><time>2026-04-09T09:18:29.969Z</time></trkpt><trkpt lat="44.1507716" lon="10.4124296"><ele>546.0</ele><time>2026-04-09T09:18:34.977Z</time></trkpt><trkpt lat="44.1507464" lon="10.4125254"><ele>546.0</ele><time>2026-04-09T09:18:39.977Z</time></trkpt></trkseg></trk></gpx>